[[{"header":{"parameterUnit":"m.s-1","parameterCategory":1,"la1":31.0,"la2":29.5877,"lo1":-88.7671,"lo2":-86.6584,"dx":0.0162,"dy":0.0185,"nx":115,"ny":88,"refTime":"2022-11-03T06:00:00:Z","depth":0,"parameterNumber":2,"parameterNumberName":"U-component_of_WINDS"},"data":[0.0,0.0,0.0,0.0,0.0,0.0,0.0,0.0,0.0,0.0,0.0,0.0,0.0,0.0,0.0,0.0,0.0,0.0,0.0,0.0,0.0,0.0,0.0,0.0,0.0,0.0,0.0,0.0,0.0,0.0,0.0,0.0,0.0,0.0,0.0,0.0,0.0,0.0,0.0,0.0,0.0,0.0,0.0,0.0,0.0,0.0,0.0,0.0,0.0,0.0,0.0,0.0,0.0,0.0,0.0,0.0,0.0,0.0,0.0,0.0,0.0,0.0,0.0,0.0,0.0,0.0,0.0,0.0,0.0,0.0,0.0,0.0,0.0,0.0,0.0,0.0,0.0,0.0,0.0,0.0,0.0,0.0,0.0,0.0,0.0,0.0,0.0,0.0,0.0,0.0,0.0,0.0,0.0,0.0,0.0,0.0,0.0,0.0,0.0,0.0,0.0,0.0,0.0,0.0,0.0,0.0,0.0,0.0,0.0,0.0,0.0,0.0,0.0,0.0,0.0,0.0,0.0,0.0,0.0,0.0,0.0,0.0,0.0,0.0,0.0,0.0,0.0,0.0,0.0,0.0,0.0,0.0,0.0,0.0,0.0,0.0,0.0,0.0,0.0,0.0,0.0,0.0,0.0,0.0,0.0,0.0,0.0,0.0,0.0,0.0,0.0,0.0,0.0,0.0,0.0,0.0,0.0,0.0,0.0,0.0,0.0,0.0,0.0,0.0,0.0,0.0,0.0,0.0,0.0,0.0,0.0,0.0,0.0,0.0,0.0,0.0,0.0,0.0,0.0,0.0,0.0,0.0,0.0,0.0,0.0,0.0,0.0,0.0,0.0,0.0,0.0,0.0,0.0,0.0,0.0,0.0,0.0,0.0,0.0,0.0,0.0,0.0,0.0,0.0,0.0,0.0,0.0,0.0,0.0,0.0,0.0,0.0,0.0,0.0,0.0,0.0,0.0,0.0,0.0,0.0,0.0,0.0,0.0,0.0,0.0,0.0,0.0,0.0,0.0,0.0,0.0,0.0,0.0,0.0,0.0,0.0,0.0,0.0,0.0,0.0,0.0,0.0,0.0,0.0,0.0,0.0,0.0,0.0,0.0,0.0,0.0,0.0,0.0,0.0,0.0,0.0,0.0,0.0,0.0,0.0,0.0,0.0,0.0,0.0,0.0,0.0,0.0,0.0,0.0,0.0,0.0,0.0,0.0,0.0,0.0,0.0,0.0,0.0,0.0,0.0,0.0,0.0,0.0,0.0,0.0,0.0,0.0,0.0,0.0,0.0,0.0,0.0,0.0,0.0,0.0,0.0,0.0,0.0,0.0,0.0,0.0,0.0,0.0,0.0,0.0,0.0,0.0,0.0,0.0,0.0,0.0,0.0,0.0,0.0,0.0,0.0,0.0,0.0,0.0,0.0,0.0,0.0,0.0,0.0,0.0,0.0,0.0,0.0,0.0,0.0,0.0,0.0,0.0,0.0,0.0,0.0,0.0,0.0,0.0,0.0,0.0,0.0,0.0,0.0,0.0,0.0,0.0,0.0,0.0,0.0,0.0,0.0,0.0,0.0,0.0,0.0,0.0,0.0,0.0,0.0,0.0,0.0,0.0,0.0,0.0,0.0,0.0,0.0,0.0,0.0,0.0,0.0,0.0,0.0,0.0,0.0,0.0,0.0,0.0,0.0,0.0,0.0,0.0,0.0,0.0,0.0,0.0,0.0,0.0,0.0,0.0,0.0,0.0,0.0,0.0,0.0,0.0,0.0,0.0,0.0,0.0,0.0,0.0,0.0,0.0,0.0,0.0,0.0,0.0,0.0,0.0,0.0,0.0,0.0,0.0,0.0,0.0,0.0,0.0,0.0,0.0,0.0,0.0,0.0,0.0,0.0,0.0,0.0,0.0,0.0,0.0,0.0,0.0,0.0,0.0,0.0,0.0,0.0,0.0,0.0,0.0,0.0,0.0,0.0,0.0,0.0,0.0,0.0,0.0,0.0,0.0,0.0,0.0,0.0,0.0,0.0,0.0,0.0,0.0,0.0,0.0,0.0,0.0,0.0,0.0,0.0,0.0,0.0,0.0,0.0,0.0,0.0,0.0,0.0,0.0,0.0,0.0,0.0,0.0,0.0,0.0,0.0,0.0,0.0,0.0,0.0,0.0,0.0,0.0,0.0,0.0,0.0,0.0,0.0,0.0,0.0,0.0,0.0,0.0,0.0,0.0,0.0,0.0,0.0,0.0,0.0,0.0,0.0,0.0,0.0,0.0,0.0,0.0,0.0,0.0,0.0,0.0,0.0,0.0,0.0,0.0,0.0,0.0,0.0,0.0,0.0,0.0,0.0,0.0,0.0,0.0,0.0,0.0,0.0,0.0,0.0,0.0,0.0,0.0,0.0,0.0,0.0,0.0,0.0,0.0,0.0,0.0,0.0,0.0,0.0,0.0,0.0,0.0,0.0,0.0,0.0,0.0,0.0,0.0,0.0,0.0,0.0,0.0,0.0,0.0,0.0,0.0,0.0,0.0,0.0,0.0,0.0,0.0,0.0,0.0,0.0,0.0,0.0,0.0,0.0,0.0,0.0,0.0,0.0,0.0,0.0,0.0,0.0,0.0,0.0,0.0,0.0,0.0,0.0,0.0,0.0,0.0,0.0,0.0,0.0,0.0,0.0,0.0,0.0,0.0,0.0,0.0,0.0,0.0,0.0,0.0,0.0,0.0,0.0,0.0,0.0,0.0,0.0,0.0,0.0,0.0,0.0,0.0,0.0,0.0,0.0,0.0,0.0,0.0,0.0,0.0,0.0,0.0,0.0,0.0,0.0,0.0,0.0,0.0,0.0,0.0,0.0,0.0,0.0,0.0,0.0,0.0,0.0,0.0,0.0,0.0,0.0,0.0,0.0,0.0,0.0,0.0,0.0,0.0,0.0,0.0,0.0,0.0,0.0,0.0,0.0,0.0,0.0,0.0,0.0,0.0,0.0,0.0,0.0,0.0,0.0,0.0,0.0,0.0,0.0,0.0,0.0,0.0,0.0,0.0,0.0,0.0,0.0,0.0,0.0,0.0,0.0,0.0,0.0,0.0,0.0,0.0,0.0,0.0,0.0,0.0,0.0,0.0,0.0,0.0,0.0,0.0,0.0,0.0,0.0,0.0,0.0,0.0,0.0,0.0,0.0,0.0,0.0,0.0,0.0,0.0,0.0,0.0,0.0,0.0,0.0,0.0,0.0,0.0,0.0,0.0,0.0,0.0,0.0,0.0,0.0,0.0,0.0,0.0,0.0,0.0,0.0,0.0,0.0,0.0,0.0,0.0,0.0,0.0,0.0,0.0,0.0,0.0,0.0,0.0,0.0,0.0,0.0,0.0,0.0,0.0,0.0,0.0,0.0,0.0,0.0,0.0,0.0,0.0,0.0,0.0,0.0,0.0,0.0,0.0,0.0,0.0,0.0,0.0,0.0,0.0,0.0,0.0,0.0,0.0,0.0,0.0,0.0,0.0,0.0,0.0,0.0,0.0,0.0,0.0,0.0,0.0,0.0,0.0,0.0,0.0,0.0,0.0,0.0,0.0,0.0,0.0,0.0,0.0,0.0,0.0,0.0,0.0,0.0,0.0,0.0,0.0,0.0,0.0,0.0,0.0,0.0,0.0,0.0,0.0,0.0,0.0,0.0,0.0,0.0,0.0,0.0,0.0,0.0,0.0,0.0,0.0,0.0,0.0,0.0,0.0,0.0,0.0,0.0,0.0,0.0,0.0,0.0,0.0,0.0,0.0,0.0,0.0,0.0,0.0,0.0,0.0,0.0,0.0,0.0,0.0,0.0,0.0,0.0,0.0,0.0,0.0,0.0,0.0,0.0,0.0,0.0,0.0,0.0,0.0,0.0,0.0,0.0,0.0,0.0,0.0,0.0,0.0,0.0,0.0,0.0,0.0,0.0,0.0,0.0,0.0,0.0,0.0,0.0,0.0,0.0,0.0,0.0,0.0,0.0,0.0,0.0,0.0,0.0,0.0,0.0,0.0,0.0,0.0,0.0,0.0,0.0,0.0,0.0,0.0,0.0,0.0,0.0,0.0,0.0,0.0,0.0,0.0,0.0,0.0,0.0,0.0,0.0,0.0,0.0,0.0,0.0,0.0,0.0,0.0,0.0,0.0,0.0,0.0,0.0,0.0,0.0,0.0,0.0,0.0,0.0,0.0,0.0,0.0,0.0,0.0,0.0,0.0,0.0,0.0,0.0,0.0,0.0,0.0,0.0,0.0,0.0,-0.2446,0.0,0.0,0.0,-0.2243,0.0,0.0,0.0,0.0,0.0,0.0,0.0,0.0,0.0,0.0,0.0,0.0,0.0,0.0,0.0,0.0,0.0,0.0,0.0,0.0,0.0,0.0,0.0,0.0,0.0,0.0,0.0,0.0,0.0,0.0,0.0,0.0,0.0,0.0,0.0,0.0,0.0,0.0,0.0,0.0,0.0,0.0,0.0,0.0,0.0,0.0,0.0,0.0,0.0,0.0,0.0,0.0,0.0,0.0,0.0,0.0,0.0,0.0,0.0,0.0,0.0,0.0,0.0,0.0,0.0,0.0,0.0,0.0,0.0,0.0,0.0,0.0,0.0,0.0,0.0,0.0,0.0,0.0,0.0,0.0,0.0,0.0,0.0,0.0,0.0,0.0,0.0,0.0,0.0,0.0,0.0,0.0,0.0,0.0,0.0,0.0,0.0,0.0,0.0,0.0,0.0,0.0,0.0,0.0,0.0,0.0,0.0,0.0,0.0,0.0,-0.2308,-0.225,-0.2252,-0.2232,-0.2199,0.0,0.0,0.0,0.0,0.0,0.0,0.0,0.0,0.0,0.0,0.0,0.0,0.0,0.0,0.0,0.0,0.0,0.0,0.0,0.0,0.0,0.0,0.0,0.0,0.0,0.0,0.0,0.0,0.0,0.0,0.0,0.0,0.0,0.0,0.0,0.0,0.0,0.0,0.0,0.0,0.0,0.0,0.0,0.0,0.0,0.0,0.0,0.0,0.0,0.0,0.0,0.0,0.0,0.0,0.0,0.0,0.0,0.0,0.0,0.0,0.0,0.0,0.0,0.0,0.0,0.0,0.0,0.0,0.0,0.0,0.0,0.0,0.0,0.0,0.0,0.0,0.0,0.0,0.0,0.0,0.0,0.0,0.0,0.0,0.0,0.0,0.0,0.0,0.0,0.0,0.0,0.0,0.0,0.0,0.0,0.0,0.0,0.0,0.0,0.0,0.0,0.0,0.0,0.0,0.0,0.0,0.0,0.0,0.0,0.0,0.0,0.0,-0.2198,-0.2201,-0.2199,0.0,0.0,0.0,0.0,0.0,0.0,0.0,0.0,0.0,0.0,0.0,0.0,0.0,0.0,0.0,0.0,0.0,0.0,0.0,0.0,0.0,0.0,0.0,0.0,0.0,0.0,0.0,0.0,0.0,0.0,0.0,0.0,0.0,0.0,0.0,0.0,0.0,0.0,0.0,0.0,0.0,0.0,0.0,0.0,0.0,0.0,0.0,0.0,0.0,0.0,0.0,0.0,0.0,0.0,0.0,0.0,0.0,0.0,0.0,0.0,0.0,0.0,0.0,0.0,0.0,0.0,0.0,0.0,0.0,0.0,0.0,0.0,0.0,0.0,0.0,0.0,0.0,0.0,0.0,0.0,0.0,0.0,0.0,0.0,0.0,0.0,0.0,0.0,0.0,0.0,0.0,0.0,0.0,0.0,0.0,0.0,0.0,0.0,0.0,0.0,0.0,0.0,0.0,0.0,0.0,0.0,0.0,0.0,0.0,0.0,-0.2225,-0.229,-0.2231,0.0,-0.2201,0.0,0.0,0.0,0.0,0.0,0.0,0.0,0.0,0.0,0.0,0.0,0.0,0.0,0.0,0.0,0.0,0.0,0.0,0.0,0.0,0.0,0.0,0.0,0.0,0.0,0.0,0.0,0.0,0.0,0.0,0.0,0.0,0.0,0.0,0.0,0.0,0.0,0.0,0.0,0.0,0.0,0.0,0.0,0.0,0.0,0.0,0.0,0.0,0.0,0.0,0.0,0.0,0.0,0.0,0.0,0.0,0.0,0.0,0.0,0.0,0.0,0.0,0.0,0.0,0.0,0.0,0.0,0.0,0.0,0.0,0.0,0.0,0.0,0.0,0.0,0.0,0.0,0.0,0.0,0.0,0.0,0.0,0.0,0.0,0.0,0.0,0.0,0.0,0.0,0.0,0.0,0.0,0.0,0.0,0.0,0.0,0.0,0.0,0.0,0.0,0.0,0.0,0.0,0.0,0.0,0.0,0.0,0.0,0.0,0.0,-0.2242,-0.229,-0.2269,-0.222,0.0,0.0,0.0,0.0,0.0,0.0,0.0,0.0,0.0,0.0,0.0,0.0,0.0,0.0,0.0,0.0,0.0,0.0,0.0,0.0,0.0,0.0,0.0,0.0,0.0,0.0,0.0,0.0,0.0,0.0,0.0,0.0,0.0,0.0,0.0,0.0,0.0,0.0,0.0,0.0,0.0,0.0,0.0,0.0,0.0,0.0,0.0,0.0,0.0,0.0,0.0,0.0,0.0,0.0,0.0,0.0,0.0,0.0,0.0,0.0,0.0,0.0,0.0,0.0,0.0,0.0,0.0,0.0,0.0,0.0,0.0,0.0,0.0,0.0,0.0,0.0,0.0,0.0,0.0,0.0,0.0,0.0,0.0,0.0,0.0,0.0,0.0,0.0,0.0,0.0,0.0,0.0,0.0,0.0,0.0,0.0,0.0,0.0,0.0,0.0,0.0,0.0,0.0,0.0,0.0,0.0,0.0,0.0,0.0,0.0,-0.2201,-0.2231,-0.2288,-0.2317,-0.2249,-0.211,0.0,0.0,0.0,0.0,0.0,0.0,0.0,0.0,0.0,0.0,0.0,0.0,0.0,0.0,0.0,0.0,0.0,0.0,0.0,0.0,0.0,0.0,0.0,0.0,0.0,0.0,0.0,0.0,0.0,0.0,0.0,0.0,0.0,0.0,0.0,0.0,0.0,0.0,0.0,0.0,0.0,0.0,0.0,0.0,0.0,0.0,0.0,0.0,0.0,0.0,0.0,0.0,0.0,0.0,0.0,0.0,0.0,0.0,0.0,0.0,0.0,0.0,0.0,0.0,0.0,0.0,0.0,0.0,0.0,0.0,0.0,0.0,0.0,0.0,0.0,0.0,0.0,0.0,0.0,0.0,0.0,0.0,0.0,0.0,0.0,0.0,0.0,0.0,0.0,0.0,0.0,0.0,0.0,0.0,0.0,0.0,0.0,0.0,0.0,0.0,0.0,0.0,0.0,0.0,0.0,0.0,0.0,0.0,-0.2201,-0.2203,-0.2233,-0.2296,-0.2354,-0.23,0.0,0.0,0.0,0.0,0.0,0.0,0.0,0.0,0.0,0.0,0.0,0.0,0.0,0.0,0.0,0.0,0.0,0.0,0.0,0.0,0.0,0.0,0.0,0.0,0.0,0.0,0.0,0.0,0.0,0.0,0.0,0.0,0.0,0.0,0.0,0.0,0.0,0.0,0.0,0.0,0.0,0.0,0.0,0.0,0.0,0.0,0.0,0.0,0.0,0.0,0.0,0.0,0.0,0.0,0.0,0.0,0.0,0.0,0.0,0.0,0.0,0.0,0.0,0.0,0.0,0.0,0.0,0.0,0.0,0.0,0.0,0.0,0.0,0.0,0.0,0.0,0.0,0.0,0.0,0.0,0.0,0.0,0.0,0.0,0.0,0.0,0.0,0.0,0.0,0.0,0.0,0.0,0.0,0.0,0.0,0.0,0.0,0.0,0.0,0.0,0.0,0.0,0.0,0.0,0.0,0.0,0.0,0.0,0.0,-0.2194,-0.229,-0.2391,-0.2477,-0.2421,-0.2303,0.0,0.0,0.0,0.0,0.0,0.0,0.0,0.0,0.0,0.0,0.0,0.0,0.0,0.0,0.0,0.0,0.0,0.0,0.0,0.0,0.0,0.0,0.0,0.0,0.0,0.0,0.0,0.0,0.0,0.0,0.0,0.0,0.0,0.0,0.0,0.0,0.0,0.0,0.0,0.0,0.0,0.0,0.0,0.0,0.0,0.0,0.0,0.0,0.0,0.0,0.0,0.0,0.0,0.0,0.0,0.0,0.0,0.0,0.0,0.0,0.0,0.0,0.0,0.0,0.0,0.0,0.0,0.0,0.0,0.0,0.0,0.0,0.0,0.0,0.0,0.0,0.0,0.0,0.0,0.0,0.0,0.0,0.0,0.0,0.0,0.0,0.0,0.0,0.0,0.0,0.0,0.0,0.0,0.0,0.0,0.0,0.0,0.0,0.0,0.0,0.0,0.0,0.0,0.0,0.0,0.0,0.0,0.0,0.0,-0.2235,-0.2327,-0.2473,-0.2585,-0.2466,-0.2308,0.0,0.0,0.0,0.0,0.0,0.0,0.0,0.0,0.0,0.0,0.0,0.0,0.0,0.0,0.0,0.0,0.0,0.0,0.0,0.0,0.0,0.0,0.0,0.0,0.0,0.0,0.0,0.0,0.0,0.0,0.0,0.0,0.0,0.0,0.0,0.0,0.0,0.0,0.0,0.0,0.0,0.0,0.0,0.0,0.0,0.0,0.0,0.0,0.0,0.0,0.0,0.0,0.0,0.0,0.0,0.0,0.0,0.0,0.0,0.0,0.0,0.0,0.0,0.0,0.0,0.0,0.0,0.0,0.0,0.0,0.0,0.0,0.0,0.0,0.0,0.0,0.0,0.0,0.0,0.0,0.0,0.0,0.0,0.0,0.0,0.0,0.0,0.0,0.0,0.0,0.0,0.0,0.0,0.0,0.0,0.0,0.0,0.0,0.0,0.0,0.0,0.0,0.0,0.0,0.0,0.0,0.0,0.0,-0.2233,-0.2306,-0.2374,-0.247,-0.259,-0.2481,-0.2308,0.0,0.0,0.0,0.0,0.0,0.0,0.0,0.0,0.0,0.0,0.0,0.0,0.0,0.0,0.0,0.0,0.0,0.0,0.0,0.0,0.0,0.0,0.0,0.0,0.0,0.0,0.0,0.0,0.0,0.0,0.0,0.0,0.0,0.0,0.0,0.0,0.0,0.0,0.0,0.0,0.0,0.0,0.0,0.0,0.0,0.0,0.0,0.0,0.0,0.0,0.0,0.0,0.0,0.0,0.0,0.0,0.0,0.0,0.0,0.0,0.0,0.0,0.0,0.0,0.0,0.0,0.0,0.0,0.0,0.0,0.0,0.0,0.0,0.0,0.0,0.0,0.0,0.0,0.0,0.0,0.0,0.0,0.0,0.0,0.0,0.0,0.0,0.0,0.0,0.0,0.0,0.0,0.0,0.0,0.0,0.0,0.0,0.0,0.0,0.0,0.0,0.0,0.0,0.0,0.0,0.0,0.0,0.0,0.0,-0.2372,-0.249,-0.2567,-0.2665,-0.2499,-0.2306,0.0,0.0,0.0,0.0,0.0,0.0,0.0,0.0,0.0,0.0,0.0,0.0,0.0,0.0,0.0,0.0,0.0,0.0,0.0,0.0,0.0,0.0,0.0,0.0,0.0,0.0,0.0,0.0,0.0,0.0,0.0,0.0,0.0,0.0,0.0,0.0,0.0,0.0,0.0,0.0,0.0,0.0,0.0,0.0,0.0,0.0,0.0,0.0,0.0,0.0,0.0,0.0,0.0,0.0,0.0,0.0,0.0,0.0,0.0,0.0,0.0,0.0,0.0,0.0,0.0,0.0,0.0,0.0,0.0,0.0,0.0,0.0,0.0,0.0,0.0,0.0,0.0,0.0,0.0,0.0,0.0,0.0,0.0,0.0,0.0,0.0,0.0,0.0,0.0,0.0,0.0,0.0,0.0,0.0,0.0,0.0,0.0,0.0,0.0,0.0,0.0,0.0,0.0,0.0,0.0,0.0,0.0,0.0,0.0,-0.2479,-0.255,-0.2637,-0.2689,-0.2546,-0.2367,-0.2107,0.0,0.0,0.0,0.0,0.0,0.0,0.0,0.0,0.0,0.0,0.0,0.0,0.0,0.0,0.0,0.0,0.0,0.0,0.0,0.0,0.0,0.0,0.0,0.0,0.0,0.0,0.0,0.0,0.0,0.0,0.0,0.0,0.0,0.0,0.0,0.0,0.0,0.0,0.0,0.0,0.0,0.0,0.0,0.0,0.0,0.0,0.0,0.0,0.0,0.0,0.0,0.0,0.0,0.0,0.0,0.0,0.0,0.0,0.0,0.0,0.0,0.0,0.0,0.0,0.0,0.0,0.0,0.0,0.0,0.0,0.0,0.0,0.0,0.0,0.0,0.0,0.0,0.0,0.0,0.0,0.0,0.0,0.0,0.0,0.0,0.0,0.0,0.0,0.0,0.0,0.0,0.0,0.0,0.0,0.0,0.0,0.0,0.0,0.0,0.0,0.0,0.0,0.0,0.0,0.0,0.0,0.0,0.0,-0.2608,-0.2614,-0.264,-0.2685,-0.2628,-0.2435,0.0,0.0,0.0,0.0,0.0,0.0,0.0,0.0,0.0,0.0,0.0,0.0,0.0,0.0,0.0,0.0,0.0,0.0,0.0,0.0,0.0,0.0,0.0,0.0,0.0,0.0,0.0,0.0,0.0,0.0,0.0,0.0,0.0,0.0,0.0,0.0,0.0,0.0,0.0,0.0,0.0,0.0,0.0,0.0,0.0,0.0,0.0,0.0,0.0,0.0,0.0,0.0,0.0,0.0,0.0,0.0,0.0,0.0,0.0,0.0,0.0,0.0,0.0,0.0,0.0,0.0,0.0,0.0,0.0,0.0,0.0,0.0,0.0,0.0,0.0,0.0,0.0,0.0,0.0,0.0,0.0,0.0,0.0,0.0,0.0,0.0,0.0,0.0,0.0,0.0,0.0,0.0,0.0,0.0,0.0,0.0,0.0,0.0,0.0,0.0,0.0,0.0,0.0,0.0,0.0,0.0,0.0,0.0,0.0,-0.2754,-0.2847,-0.2826,-0.2695,-0.2493,-0.225,0.0,0.0,0.0,0.0,0.0,0.0,0.0,0.0,0.0,0.0,0.0,0.0,0.0,0.0,0.0,0.0,0.0,0.0,0.0,0.0,0.0,0.0,0.0,0.0,0.0,0.0,0.0,0.0,0.0,0.0,0.0,0.0,0.0,0.0,0.0,0.0,0.0,0.0,0.0,0.0,0.0,0.0,0.0,0.0,0.0,0.0,0.0,0.0,0.0,0.0,0.0,0.0,0.0,0.0,0.0,0.0,0.0,0.0,0.0,0.0,0.0,0.0,0.0,0.0,0.0,0.0,0.0,0.0,0.0,0.0,0.0,0.0,0.0,0.0,0.0,0.0,0.0,0.0,0.0,0.0,0.0,0.0,0.0,0.0,0.0,0.0,0.0,0.0,0.0,0.0,0.0,0.0,0.0,0.0,0.0,0.0,0.0,0.0,0.0,0.0,0.0,0.0,0.0,0.0,0.0,0.0,0.0,0.0,-0.2701,-0.2798,-0.2939,-0.295,-0.2818,-0.2572,-0.2255,0.0,0.0,0.0,0.0,0.0,0.0,0.0,0.0,0.0,0.0,0.0,0.0,0.0,0.0,0.0,0.0,0.0,0.0,0.0,0.0,0.0,0.0,0.0,0.0,0.0,0.0,0.0,0.0,0.0,0.0,0.0,0.0,0.0,0.0,0.0,0.0,0.0,0.0,0.0,0.0,0.0,0.0,0.0,0.0,0.0,0.0,0.0,0.0,0.0,0.0,0.0,0.0,0.0,0.0,0.0,0.0,0.0,0.0,0.0,0.0,0.0,0.0,0.0,0.0,0.0,0.0,0.0,0.0,0.0,0.0,0.0,0.0,0.0,0.0,0.0,0.0,0.0,0.0,0.0,0.0,0.0,0.0,0.0,0.0,0.0,0.0,0.0,0.0,0.0,0.0,0.0,0.0,0.0,0.0,0.0,0.0,0.0,0.0,0.0,0.0,0.0,0.0,0.0,0.0,0.0,0.0,0.0,0.0,-0.2682,-0.2824,-0.2953,-0.3025,-0.301,-0.2727,-0.2343,0.0,0.0,0.0,0.0,0.0,0.0,0.0,0.0,0.0,0.0,0.0,0.0,0.0,0.0,0.0,0.0,0.0,0.0,0.0,0.0,0.0,0.0,0.0,0.0,0.0,0.0,0.0,0.0,0.0,0.0,0.0,0.0,0.0,0.0,0.0,0.0,0.0,0.0,0.0,0.0,0.0,0.0,0.0,0.0,0.0,0.0,0.0,0.0,0.0,0.0,0.0,0.0,0.0,0.0,0.0,0.0,0.0,0.0,0.0,0.0,0.0,0.0,0.0,0.0,0.0,0.0,0.0,0.0,0.0,0.0,0.0,0.0,0.0,0.0,0.0,0.0,0.0,0.0,0.0,0.0,0.0,0.0,0.0,0.0,0.0,0.0,0.0,0.0,0.0,0.0,0.0,0.0,0.0,0.0,0.0,0.0,0.0,0.0,0.0,0.0,0.0,0.0,0.0,0.0,0.0,0.0,0.0,0.0,-0.2797,-0.3034,-0.3122,-0.3134,-0.3078,-0.2664,-0.2224,0.0,0.0,0.0,0.0,0.0,0.0,0.0,0.0,0.0,0.0,0.0,0.0,0.0,0.0,0.0,0.0,0.0,0.0,0.0,0.0,0.0,0.0,0.0,0.0,0.0,0.0,0.0,0.0,0.0,0.0,0.0,0.0,0.0,0.0,0.0,0.0,0.0,0.0,0.0,0.0,0.0,0.0,0.0,0.0,0.0,0.0,0.0,0.0,0.8623,0.0,0.0,0.0,0.0,0.0,0.0,0.0,0.0,0.0,0.0,0.0,0.0,0.0,0.0,0.0,0.0,0.0,0.0,0.0,0.0,0.0,0.0,0.0,0.0,0.0,0.0,0.0,0.0,0.0,0.0,0.0,0.0,0.0,0.0,0.0,0.0,0.0,0.0,0.0,0.0,0.0,0.0,0.0,0.0,0.0,0.0,0.0,0.0,0.0,0.0,0.0,0.0,0.0,0.0,0.0,0.0,0.0,0.0,0.0,-0.2769,-0.3105,-0.3179,-0.3151,-0.3036,-0.2592,-0.2146,0.0,0.0,0.0,0.0,0.0,0.0,0.0,0.0,0.0,0.0,0.0,0.0,0.0,0.0,0.0,0.0,0.0,0.0,0.0,0.0,0.0,0.0,0.0,0.0,0.0,0.0,0.0,0.0,0.0,0.0,0.0,0.0,0.0,0.0,0.0,0.0,0.0,0.0,0.0,0.0,0.0,0.0,0.0,0.0,0.0,0.0,0.0,0.0,0.0,0.0,0.0,0.0,0.0,0.0,0.0,0.0,0.0,0.0,0.0,0.0,0.0,0.0,0.0,0.0,0.0,0.0,0.0,0.0,0.0,0.0,0.0,0.0,0.0,0.0,0.0,0.0,0.0,0.0,0.0,0.0,0.0,0.0,0.0,0.0,0.0,0.0,0.0,0.0,0.0,0.0,0.0,0.0,0.0,0.0,0.0,0.0,0.0,0.0,0.0,0.0,0.0,0.0,0.0,0.0,0.0,0.0,0.0,-0.2432,-0.2697,-0.3093,-0.317,-0.3142,-0.2987,-0.2527,-0.2055,-0.1613,0.0,0.0,0.0,0.0,0.0,0.0,0.0,0.0,0.0,0.0,0.0,0.0,0.0,0.0,0.0,0.0,0.0,0.0,0.0,0.0,0.0,0.0,0.0,0.0,0.0,0.0,0.0,0.0,0.0,0.0,0.0,0.0,0.0,0.0,0.0,0.0,0.0,0.0,0.6309,0.7364,0.0,0.0,0.0,0.0,0.0,0.0,0.0,0.0,0.9614,0.0,0.0,0.0,0.0,0.0,0.0,0.0,0.0,0.0,0.0,0.0,0.0,0.0,0.0,0.0,0.0,0.0,0.0,0.0,0.0,0.0,0.0,0.0,0.0,0.0,0.0,0.0,0.0,0.0,0.0,0.0,0.0,0.0,0.0,0.0,0.0,0.0,0.0,0.0,0.0,0.0,0.0,0.0,0.0,0.0,0.0,0.0,0.0,0.0,0.0,0.0,0.0,0.0,0.0,0.0,0.0,-0.2473,-0.2485,-0.2724,-0.3166,-0.3201,-0.3142,-0.3002,-0.2448,-0.1829,-0.1217,0.0,0.0,0.0,0.0,0.0,0.0,0.0,0.0,0.0,0.0,0.0,0.0,0.0,0.0,0.0,0.0,0.0,0.0,0.0,0.0,0.0,0.0,0.0,0.0,0.0,0.0,0.0,0.0,0.0,0.0,0.0,0.0,0.0,0.0,0.0,0.0,0.0,0.0,0.0,0.7956,0.8475,0.0,0.0,0.0,0.0,0.0,0.0,0.0,0.0,0.9572,0.0,0.0,0.0,0.0,0.0,0.0,0.0,0.0,0.0,0.0,0.0,0.0,0.0,0.0,0.0,0.0,0.0,0.0,0.0,0.0,0.0,0.0,0.0,0.0,0.0,0.0,0.0,0.0,0.0,0.0,0.0,0.0,0.0,0.0,0.0,0.0,0.0,0.0,0.0,0.0,0.0,0.0,0.0,0.0,0.0,0.0,0.0,0.0,0.0,0.0,0.0,0.0,0.0,0.0,0.0,-0.2467,-0.2497,-0.273,-0.3186,-0.3209,-0.3075,-0.2852,-0.2367,-0.1757,0.0,0.0,0.0,0.0,0.0,0.0,0.0,0.0,0.0,0.0,0.0,0.0,0.0,0.0,0.0,0.0,0.0,0.0,0.0,0.0,0.0,0.0,0.0,0.0,0.0,0.0,0.0,0.0,0.0,0.0,0.0,0.0,0.0,0.0,0.0,0.0,0.0,0.0,0.0,0.0,0.808,0.8529,0.8787,0.0,0.0,0.0,0.0,0.0,0.0,0.9791,0.975,0.0,0.0,0.0,0.0,0.0,0.0,0.0,0.0,0.0,0.0,0.0,0.0,0.0,0.0,0.0,0.0,0.0,0.0,0.0,0.0,0.0,0.0,0.0,0.0,0.0,0.0,0.0,0.0,0.0,0.0,0.0,0.0,0.0,0.0,0.0,0.0,0.0,0.0,0.0,0.0,0.0,0.0,0.0,0.0,0.0,0.0,0.0,0.0,0.0,0.0,0.0,0.0,0.0,0.0,0.0,-0.247,-0.2497,-0.2714,-0.3167,-0.3209,-0.3041,-0.2718,-0.227,-0.166,0.0,0.0,0.0,0.0,0.0,0.0,0.0,0.0,0.0,0.0,0.0,0.0,0.0,0.0,0.0,0.0,0.0,0.0,0.0,0.0,0.0,0.0,0.0,0.0,0.0,0.0,0.0,0.0,0.0,0.0,0.0,0.0,0.0,0.0,0.0,0.0,0.0,0.0,0.0,0.0,0.0,0.8541,0.9068,0.9428,0.0,0.0,0.0,0.0,1.0049,0.9946,0.0,0.0,0.0,0.0,0.0,0.0,0.0,0.0,0.0,0.0,0.0,0.0,0.0,0.0,0.0,0.0,0.0,0.0,0.0,0.0,0.0,0.0,0.0,0.0,0.0,0.0,0.0,0.0,0.0,0.0,0.0,0.0,0.0,0.0,0.0,0.0,0.0,0.0,0.0,0.0,0.0,0.0,0.0,0.0,0.0,0.0,0.0,0.0,0.0,0.0,0.0,0.0,0.0,0.0,0.0,0.0,-0.2485,-0.2497,-0.2746,-0.3165,-0.3209,-0.3041,-0.2701,-0.2135,-0.1457,0.0,0.0,0.0,0.0,0.0,0.0,0.0,0.0,0.0,0.0,0.0,0.0,0.0,0.0,0.0,0.0,0.0,0.0,0.0,0.0,0.0,0.0,0.0,0.0,0.0,0.0,0.0,0.0,0.0,0.0,0.0,0.0,0.0,0.0,0.0,0.0,0.0,0.0,0.0,0.0,0.0,0.8607,0.8976,0.9447,0.9689,0.0,0.0,0.984,0.984,0.982,0.0,0.0,0.0,0.0,0.0,0.0,0.0,0.0,0.0,0.0,0.0,0.0,0.0,0.0,0.0,0.0,0.0,0.0,0.0,0.0,0.0,0.0,0.0,0.0,0.0,0.0,0.0,0.0,0.0,0.0,0.0,0.0,0.0,0.0,0.0,0.0,0.0,0.0,0.0,0.0,0.0,0.0,0.0,0.0,0.0,0.0,0.0,0.0,0.0,0.0,0.0,0.0,0.0,0.0,0.0,-0.1934,-0.2473,-0.2525,-0.2759,-0.3188,-0.3209,-0.3041,-0.2703,-0.2124,-0.1413,0.0,0.0,0.0,0.0,0.0,0.0,0.0,0.0,0.0,0.0,0.0,0.0,0.0,0.0,0.0,0.0,0.0,0.0,0.0,0.0,0.0,0.0,0.0,0.0,0.0,0.0,0.0,0.0,0.0,0.0,0.0,0.0,0.0,0.0,0.0,0.0,0.0,0.0,0.0,0.0,0.0,0.0,0.9411,0.9709,0.0,0.0,0.0,1.0315,1.0159,0.0,0.0,0.0,0.0,0.0,0.0,0.0,0.0,0.0,0.0,0.0,0.0,0.0,0.0,0.0,0.0,0.0,0.0,0.0,0.0,0.0,0.0,0.0,0.0,0.0,0.0,0.0,0.0,0.0,0.0,0.0,0.0,0.0,0.0,0.0,0.0,0.0,0.0,0.0,0.0,0.0,0.0,0.0,0.0,0.0,0.0,0.0,0.0,0.0,0.0,0.0,0.0,0.0,0.0,0.0,0.0,0.0,-0.2479,-0.2557,-0.2807,-0.3239,-0.3262,-0.3091,-0.273,-0.2163,0.0,0.0,0.0,0.0,0.0,0.0,0.0,0.0,0.0,0.0,0.0,0.0,0.0,0.0,0.0,0.0,0.0,0.0,0.0,0.0,0.0,0.0,0.0,0.0,0.0,0.0,0.0,0.4747,0.0,0.0,0.0,0.0,0.0,0.0,0.0,0.0,0.0,0.0,0.0,0.0,0.0,0.0,0.8797,0.9658,0.9871,1.0069,0.0,0.0,1.0564,1.0398,1.0343,1.0323,0.0,0.0,0.0,0.0,0.0,0.0,0.0,0.0,0.0,0.0,0.0,0.0,0.0,0.0,0.0,0.0,0.0,0.0,0.0,0.0,0.0,0.0,0.0,0.0,0.0,0.0,0.0,0.0,0.0,0.0,0.0,0.0,0.0,0.0,0.0,0.0,0.0,0.0,0.0,0.0,0.0,0.0,0.0,0.0,0.0,0.0,0.0,0.0,0.0,0.0,0.0,0.0,0.0,0.0,-0.1962,-0.2477,-0.2557,-0.2852,-0.3363,-0.3389,-0.3196,-0.2809,-0.2268,-0.1545,0.0,0.0,0.0,0.0,0.0,0.0,0.0,0.0,0.0,0.0,0.0,0.0,0.0,0.0,0.0,0.0,0.0,0.0,0.0,0.0,0.0,0.0,0.0,0.0,0.0,0.0,0.0,0.0,0.0,0.0,0.0,0.0,0.0,0.0,0.0,0.0,0.0,0.0,0.0,0.0,0.0,0.8924,0.9365,0.9747,0.9945,0.0,0.9933,1.0113,1.0285,1.0102,1.0044,1.0409,0.0,0.0,0.0,0.0,0.0,0.0,0.0,0.0,0.0,0.0,0.0,0.0,0.0,0.0,0.0,0.0,0.0,0.0,0.0,0.0,0.0,0.0,0.0,0.0,0.0,0.0,0.0,0.0,0.0,0.0,0.0,0.0,0.0,0.0,0.0,0.0,0.0,0.0,0.0,0.0,0.0,0.0,0.0,0.0,0.0,0.0,0.0,0.0,0.0,0.0,0.0,0.0,0.0,-0.2056,-0.2497,-0.2646,-0.2932,-0.338,-0.3453,-0.3267,-0.287,-0.2315,-0.1628,0.0,0.0,0.0,0.0,0.0,0.0,0.0,0.0,0.0,0.0,0.0,0.0,0.0,0.0,0.0,0.0,0.0,0.0,0.0,0.0,0.0,0.0,0.0,0.0,0.0,0.0,0.0,0.0,0.5498,0.5603,0.588,0.0,0.0,0.0,0.0,0.0,0.0,0.0,0.0,0.0,0.0,0.8737,0.9425,0.9663,0.0,0.0,1.0264,1.0267,1.0188,1.0307,1.0437,1.055,1.0653,0.0,0.0,0.0,0.0,0.0,0.0,0.0,0.0,0.0,0.0,0.0,0.0,0.0,0.0,0.0,0.0,0.0,0.0,0.0,0.0,0.0,0.0,0.0,0.0,0.0,0.0,0.0,0.0,0.0,0.0,0.0,0.0,0.0,0.0,0.0,0.0,0.0,0.0,0.0,0.0,0.0,0.0,0.0,0.0,0.0,0.0,0.0,0.0,0.0,0.0,0.0,0.0,-0.2176,-0.2532,-0.2765,-0.307,-0.3442,-0.3505,-0.3334,-0.2945,-0.2482,-0.1846,0.0,0.0,0.0,0.0,0.0,0.0,0.0,0.0,0.0,0.0,0.0,0.0,0.0,0.0,0.0,0.0,0.0,0.0,0.0,0.0,0.0,0.0,0.0,0.0,0.0,0.0,0.0,0.0,0.5735,0.5901,0.6153,0.0,0.0,0.0,0.0,0.0,0.0,0.0,0.0,0.0,0.0,0.8747,0.9406,0.9559,0.9788,1.0363,1.0373,1.03,1.025,1.0354,1.048,1.0618,0.0,0.0,0.0,0.0,0.0,0.0,0.0,0.0,0.0,0.0,0.0,0.0,0.0,0.0,0.0,0.0,0.0,0.0,0.0,0.0,0.0,0.0,0.0,0.0,0.0,0.0,0.0,-0.3596,0.0,0.0,-0.2524,0.0,0.0,0.0,0.0,0.0,0.0,0.0,0.0,0.0,0.0,0.0,0.0,0.0,0.0,0.0,0.0,0.0,0.0,0.0,0.0,0.0,0.0,-0.2321,-0.2593,-0.2916,-0.3267,-0.3572,-0.3603,-0.3419,-0.3006,-0.2852,-0.2278,-0.123,0.0,0.0,0.0,0.0,0.0,0.0,0.0,0.0,0.0,0.0,0.0,0.0,0.0,0.0,0.0,0.0,0.0,0.0,0.0,0.0,0.0,0.0,0.0,0.0,0.0,0.0,0.587,0.6077,0.6241,0.0,0.0,0.0,0.0,0.0,0.0,0.0,0.0,0.0,0.7921,0.8518,0.9049,0.9291,0.9479,0.976,1.0236,1.0075,1.0066,1.05,1.0171,1.0021,0.0,0.0,0.0,0.0,0.0,0.0,0.0,0.0,0.0,0.0,0.0,0.0,0.0,0.0,0.0,0.0,0.0,0.0,0.0,0.0,0.0,0.0,0.0,0.0,0.0,0.0,0.0,-0.4563,-0.4431,0.0,0.0,0.0,0.0,0.0,0.0,0.0,0.0,0.0,0.0,0.0,-0.424,-0.4148,0.0,0.0,0.0,0.0,0.0,0.0,0.0,0.0,0.0,0.0,0.0,0.0,-0.2346,-0.265,-0.2992,-0.3309,-0.3584,-0.3704,-0.36,-0.3349,-0.2993,-0.2189,-0.091,0.0,0.0,0.0,0.0,0.0,0.0,0.0,0.0,0.0,0.0,0.0,0.0,0.0,0.0,0.0,0.0,0.0,0.0,0.0,0.0,0.0,0.0,0.0,0.0,0.0,0.5591,0.0,0.0,0.0,0.0,0.0,0.0,0.0,0.0,0.0,0.0,0.0,0.7841,0.8356,0.8652,0.8975,0.9439,0.9552,0.9701,0.0,0.0,0.0,0.0,0.0,0.0,0.0,0.0,0.0,0.0,0.0,0.0,0.0,0.0,1.1132,1.121,1.1327,1.1469,1.1699,0.0,0.0,0.0,0.0,0.0,0.0,0.0,0.0,0.0,0.0,0.0,0.0,0.0,0.0,-0.5336,0.0,-0.4752,0.0,0.0,0.0,0.0,0.0,0.0,0.0,0.0,-0.4677,-0.4907,-0.5039,-0.5076,-0.4932,0.0,-0.4194,-0.36,0.0,0.0,0.0,0.0,0.0,0.0,0.0,0.0,-0.2505,-0.2776,-0.3144,-0.3434,-0.3671,-0.3751,-0.3704,-0.3485,-0.2969,-0.2162,-0.1054,-0.0478,0.0081,0.0,0.0,0.0,0.0,0.0,0.0,0.0,0.0,0.0,0.0,0.0,0.0,0.0,0.0,0.0,0.0,0.0,0.0,0.0,0.0,0.0,0.0,0.0,0.5806,0.0,0.0,0.0,0.0,0.0,0.0,0.0,0.0,0.0,0.7764,0.7836,0.8121,0.8628,0.8826,0.9088,0.9542,0.0,0.0,0.0,0.0,0.0,0.0,0.0,1.0794,1.1056,1.1161,1.1288,1.1478,1.1496,1.1458,1.1478,0.0,0.0,1.1719,1.183,1.1953,1.2161,1.2447,1.2645,1.262,1.2777,1.2914,0.0,0.0,0.0,0.0,0.0,0.0,0.0,0.0,-0.6552,-0.6139,0.0,-0.5499,0.0,0.0,0.0,0.0,-0.4452,-0.472,0.0,0.0,-0.5545,-0.5817,-0.5959,-0.6136,-0.6072,-0.5771,-0.5178,-0.4593,-0.3983,-0.3019,0.0,0.0,0.0,0.0,0.0,0.0,-0.2763,-0.2933,-0.3377,-0.3675,-0.3782,-0.3812,-0.3692,-0.3491,-0.2879,-0.2236,-0.1624,-0.1022,-0.0388,0.0353,0.077,0.0,0.0,0.0,0.0,0.0,0.0,0.0,0.0,0.0,0.0,0.0,0.0,0.0,0.0,0.0,0.0,0.0,0.0,0.0,0.0,0.5687,0.0,0.0,0.0,0.0,0.0,0.0,0.0,0.0,0.0,0.0,0.7922,0.834,0.8718,0.8737,0.0,0.0,0.0,0.0,0.979,1.0241,1.0095,1.01,1.0537,1.0471,1.0473,1.088,0.0,0.0,1.1208,1.1269,1.13,1.1263,1.1306,1.1424,1.2019,1.2248,1.2454,1.2719,1.2949,1.3101,1.3121,1.316,1.318,-0.849,0.0,0.0,0.0,0.0,-0.7335,-0.7215,-0.7021,-0.685,-0.6614,-0.6318,-0.6089,0.0,0.0,0.0,0.0,0.0,0.0,-0.5974,-0.63,-0.6671,-0.6863,-0.6885,-0.6819,-0.6505,-0.6004,-0.5552,-0.5048,-0.4489,-0.3782,-0.3093,-0.2488,0.0,0.0,0.0,0.0,-0.3082,-0.3257,-0.3572,-0.3767,-0.3879,-0.3924,-0.3741,-0.3356,-0.3037,-0.2451,-0.1631,-0.1298,-0.0756,0.0,0.0395,0.0,0.0,0.0,0.0,0.0,0.0,0.0,0.0,0.0,0.0,0.0,0.0,0.0,0.0,0.0,0.0,0.0,0.0,0.0,0.485,0.5265,0.5658,0.0,0.0,0.0,0.0,0.0,0.0,0.0,0.0,0.0,0.8631,0.8809,0.9019,0.0,0.0,0.9873,1.0064,1.0216,1.0347,1.0499,1.0564,0.0,1.0796,1.0925,1.1107,1.1423,1.175,1.2037,1.223,1.2258,1.228,1.2268,1.2252,1.2317,1.2466,1.2421,1.2461,1.2803,1.3252,1.3585,1.3604,1.3765,1.3863,-0.9191,-0.85,-0.8308,-0.8201,-0.8101,-0.8074,-0.7957,-0.7819,-0.7595,-0.7381,-0.7189,-0.6932,-0.6699,-0.6455,-0.6376,0.0,0.0,0.0,-0.6886,-0.7137,-0.7385,-0.7451,-0.7365,-0.7332,-0.7037,-0.6506,-0.6168,-0.5676,-0.5017,-0.4536,-0.3939,-0.3205,0.0,0.0,-0.2828,-0.3086,-0.3299,-0.3452,-0.3712,-0.3883,-0.3932,-0.3902,-0.3696,-0.3355,-0.3131,-0.2633,-0.1913,-0.1602,-0.1113,-0.0362,0.014,0.0669,0.0,0.0,0.0,0.0,0.0,0.0,0.0,0.0,0.0,0.0,0.0,0.2602,0.2758,0.0,0.0,0.0,0.4148,0.4461,0.4842,0.5087,0.0,0.0,0.0,0.0,0.0,0.0,0.0,0.8136,0.8308,0.8579,0.9004,0.9152,0.9352,0.9705,1.0039,1.0221,1.0263,0.0,1.0436,1.0459,1.0547,1.0685,1.0888,1.1032,1.1234,1.1492,1.186,1.2157,1.2272,1.2386,1.2455,1.2478,1.2478,1.25,1.2569,1.2522,1.2541,1.2792,1.3096,1.3381,1.3505,1.3646,1.3785,-0.9757,-0.9546,-0.9336,-0.9215,-0.9206,-0.9071,-0.9001,-0.8971,-0.8601,-0.8301,-0.8097,-0.7908,-0.7648,-0.7339,-0.7339,0.0,-0.7348,-0.7531,-0.7668,-0.7709,-0.7818,-0.7786,-0.7607,-0.7785,-0.7618,-0.7133,-0.692,-0.6398,-0.558,-0.5266,-0.48,-0.4156,-0.3451,-0.3094,-0.3092,-0.3319,-0.3475,-0.3547,-0.3815,-0.3944,-0.3991,-0.3802,-0.3607,-0.3391,-0.3139,-0.2795,-0.2324,-0.1918,-0.1406,-0.0743,-0.0036,0.0629,0.124,0.0,0.0,0.0,0.0,0.0,0.0,0.0,0.0,0.0,0.0,0.0,0.0,0.0,0.0,0.0,0.4229,0.0,0.4914,0.4995,0.0,0.0,0.0,0.6663,0.731,0.7686,0.8024,0.8262,0.0,0.0,0.9187,0.941,0.9647,0.9962,1.0335,1.0459,1.0227,1.0226,1.0203,1.0226,1.0235,1.0394,1.0758,1.0911,1.1056,1.1335,1.1549,1.176,1.1783,1.1944,1.209,1.2158,1.2131,1.221,1.2401,1.2646,1.2799,1.2767,1.2785,1.2866,1.3129,1.3221,1.3307,-1.0305,-1.0231,-0.9879,-0.9521,-0.9188,-0.9148,-0.9083,-0.8983,-0.873,-0.8518,-0.8324,-0.812,-0.7897,-0.768,-0.7584,-0.7597,-0.7689,-0.7893,-0.8139,-0.8435,-0.8645,-0.8605,-0.8411,-0.8463,-0.8162,-0.7567,-0.7202,-0.6743,-0.6165,-0.5603,-0.5079,-0.4563,-0.4229,-0.3949,-0.3691,-0.3792,-0.3868,-0.3866,-0.404,-0.4064,-0.3908,-0.3732,-0.3483,-0.3188,-0.3123,-0.2858,-0.238,-0.2097,-0.1618,-0.0961,-0.033,0.0322,0.0959,0.1512,0.0,0.0,0.0,0.0,0.0,0.0,0.0,0.0,0.0,0.2769,0.2954,0.0,0.3436,0.0,0.3978,0.4185,0.4372,0.4511,0.0,0.0,0.5792,0.6208,0.6985,0.7167,0.7494,0.8166,0.8304,0.8609,0.9265,0.9588,0.9804,1.0047,1.0141,1.0204,1.0137,1.0261,1.0345,1.0369,1.0341,1.0393,1.0539,1.0873,1.1211,1.1506,1.1747,1.192,1.1939,1.1987,1.2088,1.228,1.2328,1.2419,1.2635,1.2902,1.3008,1.3021,1.3175,1.3309,1.3404,1.341,1.3481,-1.0494,-1.0457,-1.0048,-0.9766,-0.9518,-0.9505,-0.9474,-0.9384,-0.9093,-0.8898,-0.8775,-0.8487,-0.8304,-0.8203,-0.8226,-0.8268,-0.8351,-0.8551,-0.8757,-0.8967,-0.908,-0.9017,-0.8841,-0.8743,-0.8437,-0.7954,-0.7527,-0.7105,-0.6643,-0.6081,-0.5535,-0.5069,-0.473,-0.4471,-0.4248,-0.4093,-0.397,-0.3904,-0.3925,-0.3879,-0.3765,-0.354,-0.332,-0.3149,-0.3061,-0.2879,-0.2585,-0.224,-0.1753,-0.1157,-0.0445,0.0237,0.0867,0.1464,0.1933,0.0,0.0,0.0,0.0,0.0,0.0,0.0,0.0,0.0,0.0,0.0,0.3419,0.3663,0.374,0.3902,0.4213,0.4244,0.4504,0.5214,0.5479,0.5916,0.6637,0.6996,0.7388,0.799,0.8155,0.8505,0.9126,0.9363,0.9557,0.9834,0.9963,1.0009,1.0051,1.0224,1.0345,1.037,1.0444,1.0516,1.0617,1.0995,1.1347,1.1497,1.1823,1.2104,1.2099,1.2174,1.2324,1.2473,1.2473,1.2523,1.2708,1.2923,1.3063,1.3098,1.3293,1.3516,1.3659,1.3678,1.3728,-1.0581,-1.0559,-1.0204,-1.0008,-0.9989,-0.9994,-0.9978,-0.9932,-0.955,-0.935,-0.9273,-0.8918,-0.8779,-0.8793,-0.8953,-0.9043,-0.9052,-0.9222,-0.9316,-0.9324,-0.9345,-0.924,-0.9078,-0.8897,-0.8673,-0.8367,-0.7932,-0.7479,-0.7071,-0.6605,-0.6091,-0.5529,-0.5092,-0.4839,-0.4692,-0.4283,-0.3982,-0.3816,-0.3641,-0.3563,-0.354,-0.3296,-0.316,-0.3138,-0.2984,-0.2871,-0.2797,-0.2357,-0.19,-0.1373,-0.0518,0.0223,0.0794,0.1375,0.1854,0.0,0.236,0.0,0.0,0.0,0.0,0.0,0.0,0.0,0.0,0.3169,0.3387,0.362,0.3546,0.3682,0.4164,0.4061,0.4242,0.4843,0.5263,0.5703,0.6296,0.6911,0.7432,0.7839,0.8088,0.841,0.8907,0.8979,0.9118,0.9459,0.9674,0.9794,0.9942,1.0138,1.0293,1.0264,1.0424,1.0582,1.0794,1.1096,1.1251,1.1364,1.1712,1.2101,1.2077,1.2283,1.2478,1.2525,1.251,1.2545,1.2591,1.2812,1.2993,1.3024,1.3282,1.3591,1.3751,1.38,1.391,-1.1109,-1.1115,-1.0882,-1.0663,-1.0458,-1.0483,-1.0376,-1.022,-0.9971,-0.9641,-0.929,-0.9204,-0.9184,-0.9189,-0.9206,-0.9246,-0.923,-0.9283,-0.938,-0.9545,-0.9545,-0.9524,-0.9484,-0.9445,-0.9208,-0.8791,-0.8525,-0.8055,-0.7402,-0.7095,-0.6502,-0.5689,-0.5475,-0.517,-0.4803,0.0,0.0,0.0,-0.3467,-0.327,-0.3272,-0.3072,-0.2963,-0.2963,-0.2918,0.0,-0.2857,-0.2431,-0.2032,-0.1686,-0.0818,0.0,0.0,0.0,0.0,0.0,0.0,0.0,0.0,0.0,0.0,0.0,0.3142,0.3144,0.3016,0.3135,0.325,0.3368,0.335,0.3411,0.3615,0.3816,0.4083,0.4466,0.5011,0.5526,0.6015,0.6383,0.6874,0.7702,0.7866,0.8139,0.8726,0.8854,0.8918,0.9184,0.9238,0.9375,0.9711,1.0031,1.0215,1.0223,1.0299,1.0407,1.0625,1.072,1.0898,1.0988,1.1274,1.1542,1.1608,1.181,1.2059,1.2224,1.2282,1.2348,1.2555,1.281,1.2989,1.3011,1.3344,1.3641,1.3592,1.3588,1.3654,-1.1369,-1.1278,-1.1082,-1.084,0.0,-1.0736,-1.074,-1.0618,-1.0172,-0.974,-0.9322,-0.9302,-0.9302,-0.9312,-0.9411,-0.9442,-0.9446,-0.9566,-0.9691,-0.9795,-0.98,-0.9809,-0.9798,-0.9646,-0.9428,-0.9087,-0.8771,-0.8328,-0.7811,-0.7434,-0.6908,-0.6245,-0.5964,-0.5531,-0.5066,-0.4619,-0.4221,-0.3841,-0.3513,-0.3282,-0.3165,-0.3053,-0.2984,-0.2982,-0.2953,0.0,0.0,0.0,0.0,0.0,0.0,0.0,0.0,0.0,0.0,0.1525,0.1928,0.2193,0.2294,0.2435,0.252,0.2601,0.2765,0.2895,0.2987,0.3011,0.3013,0.31,0.3132,0.3246,0.3451,0.3677,0.3969,0.4287,0.4776,0.5275,0.5708,0.6101,0.6605,0.7183,0.7534,0.7931,0.8474,0.8675,0.887,0.9153,0.9272,0.9369,0.9584,0.9894,1.0155,1.0404,1.0451,1.0477,1.0607,1.0794,1.087,1.1007,1.1274,1.146,1.1513,1.1726,1.1939,1.2071,1.2204,1.2363,1.2479,1.2748,1.2951,1.2988,1.3234,1.347,1.3419,1.3646,1.3883,-1.1633,-1.1476,-1.1272,-1.1033,-1.0819,-1.0993,-1.1052,-1.0947,0.0,0.0,0.0,-0.9457,-0.9436,-0.9429,-0.9599,-0.9658,-0.9689,-0.9892,-1.0016,-1.0016,-1.0016,-1.0013,-1.0025,-0.9832,-0.9614,-0.9363,-0.8996,-0.8588,-0.8143,-0.7754,-0.731,-0.6808,-0.6389,-0.5889,-0.5288,-0.4688,-0.4234,-0.3924,-0.3634,-0.3385,-0.3122,-0.3122,-0.3122,-0.3122,-0.3048,-0.3021,-0.3019,-0.2562,-0.2152,-0.1872,-0.1066,-0.0439,-0.0066,0.0666,0.1125,0.1206,0.1628,0.1902,0.1882,0.1974,0.2006,0.2022,0.2334,0.2656,0.2962,0.2905,0.2872,0.2923,0.2993,0.3111,0.333,0.3634,0.3903,0.4139,0.4628,0.5107,0.5476,0.5956,0.6394,0.6776,0.7231,0.7683,0.817,0.8427,0.8748,0.9107,0.9253,0.942,0.9519,0.9742,1.0108,1.0463,1.053,1.0617,1.0711,1.0863,1.1017,1.1015,1.1273,1.1514,1.1568,1.1728,1.1896,1.1914,1.211,1.2236,1.2327,1.2531,1.2745,1.2794,1.3017,1.3234,1.3261,1.3645,1.4008,-1.2203,-1.2242,-1.1977,-1.1743,-1.1535,-1.1327,-1.1149,-1.0977,-1.0716,-1.0442,-1.0158,-0.9969,-0.9887,-0.9909,-0.9916,-0.9952,-0.9952,-0.9985,-1.0016,-1.0016,-1.0016,-1.0094,-1.0243,-1.023,-1.0026,-0.9745,-0.9662,-0.9162,-0.835,-0.8187,-0.771,-0.6877,-0.6619,-0.6068,-0.5268,-0.5101,-0.4827,-0.4303,-0.3781,-0.3385,-0.3122,-0.3122,-0.3122,-0.312,-0.309,-0.3083,-0.3083,-0.279,-0.2462,-0.2145,-0.1655,-0.1047,-0.038,0.0,0.0353,0.0759,0.1168,0.1449,0.1492,0.187,0.2124,0.2174,0.2427,0.2713,0.2953,0.3047,0.304,0.3048,0.308,0.3111,0.3169,0.3604,0.3905,0.3981,0.4679,0.5279,0.554,0.5842,0.6291,0.6867,0.7009,0.7342,0.7903,0.8089,0.8299,0.8668,0.8902,0.8974,0.9352,0.9642,0.9951,1.0276,1.0363,1.0449,1.0582,1.0719,1.0747,1.0747,1.0989,1.1185,1.1185,1.1427,1.165,1.165,1.1732,1.1841,1.2005,1.2087,1.225,1.2414,1.2718,1.2908,1.2935,1.3234,1.351,-1.2469,-1.2357,-1.2123,-1.1871,-1.1677,-1.1413,-1.1267,-1.1132,-1.0954,-1.0646,-1.0294,-1.0077,-1.0016,-1.0016,-1.0016,-1.0016,-1.0016,-1.0016,-1.0056,-1.0143,-1.0175,-1.0257,-1.0419,-1.0323,-1.0094,-0.9805,-0.9651,-0.9277,-0.8724,-0.8546,-0.8116,-0.7446,-0.6825,-0.6137,-0.5459,-0.5265,-0.4939,-0.4411,-0.3991,-0.364,-0.337,-0.3221,-0.3172,-0.3147,-0.3142,-0.3122,-0.3098,-0.285,-0.2562,-0.226,-0.1811,-0.1334,-0.0859,-0.0301,0.0092,0.0321,0.0732,0.1052,0.1235,0.1569,0.1847,0.2025,0.2167,0.2437,0.2819,0.3003,0.3111,0.3118,0.3122,0.3112,0.3168,0.364,0.3957,0.3955,0.4564,0.5107,0.5461,0.5725,0.6103,0.6594,0.6931,0.7261,0.7633,0.7805,0.8069,0.8495,0.8695,0.8893,0.9092,0.9213,0.9485,0.9926,1.0033,1.006,1.0198,1.0363,1.0472,1.0476,1.0719,1.0852,1.0911,1.1126,1.1318,1.135,1.1455,1.165,1.1787,1.1782,1.1891,1.2114,1.2278,1.2441,1.2604,1.2849,1.3152,-1.2598,-1.2448,-1.2182,-1.1957,-1.1677,-1.1419,-1.1289,-1.1267,-1.1073,-1.0808,-1.0451,-1.019,-1.0038,-1.0016,-1.0016,-1.0016,-0.9999,-1.0047,-1.0161,-1.029,-1.0342,-1.047,-1.0608,-1.0389,-1.0155,-0.9913,-0.9682,-0.9378,-0.9071,-0.8792,-0.8363,-0.7779,-0.6914,-0.6237,-0.5687,-0.5413,-0.5064,-0.4589,-0.4259,-0.3959,-0.3685,-0.3433,-0.3282,-0.3278,-0.3185,-0.311,-0.3109,-0.292,-0.265,-0.2329,-0.1968,-0.1605,-0.1217,-0.062,-0.0215,-0.0072,0.031,0.0717,0.1079,0.132,0.1563,0.1813,0.1936,0.2174,0.2515,0.285,0.3059,0.3102,0.3135,0.3155,0.3239,0.3679,0.4014,0.4053,0.4511,0.501,0.5378,0.5601,0.5927,0.637,0.6789,0.7123,0.7392,0.7617,0.7898,0.8284,0.8626,0.8795,0.8823,0.8854,0.9103,0.9434,0.9651,0.9757,0.9789,1.0009,1.017,1.0174,1.0417,1.0555,1.0637,1.0825,1.0989,1.1044,1.1208,1.1377,1.1459,1.1486,1.1596,1.1841,1.1951,1.2023,1.2357,1.2558,1.2875,-1.2683,-1.2641,-1.2454,-1.2096,-1.1677,-1.1419,-1.1311,-1.1267,-1.1094,-1.0986,-1.0888,-1.0472,-1.019,-1.0016,-1.0016,-1.0026,-1.0023,-1.0181,-1.0285,-1.0328,-1.0507,-1.0683,-1.083,-1.0577,-1.041,-1.0305,-1.0045,-0.9653,-0.9193,-0.8898,-0.8266,-0.7363,-0.6914,-0.6517,-0.5992,-0.5687,-0.5413,-0.5115,-0.464,-0.4237,-0.3959,-0.371,-0.3561,-0.3561,-0.3327,-0.3197,-0.3193,-0.3167,-0.2912,-0.245,-0.2347,-0.1966,-0.1316,-0.1121,-0.0859,-0.0406,-0.0095,0.0384,0.11,0.1224,0.1356,0.1605,0.186,0.2014,0.2089,0.2538,0.2937,0.312,0.3197,0.3172,0.3229,0.371,0.4043,0.4181,0.465,0.5125,0.5422,0.5497,0.5798,0.6406,0.6553,0.6817,0.7384,0.7572,0.775,0.8011,0.8318,0.8543,0.8543,0.874,0.8864,0.903,0.922,0.9524,0.9721,0.9816,0.9874,0.9894,1.0131,1.0323,1.0426,1.0575,1.0755,1.0821,1.0847,1.0993,1.1118,1.1158,1.1289,1.162,1.173,1.1803,1.2173,1.2339,1.2539,-1.286,-1.2705,-1.2491,-1.2139,-1.1705,-1.157,-1.144,-1.1289,-1.1203,-1.1212,-1.1201,-1.1025,-1.0663,-1.0178,-1.0171,-1.0189,-1.0203,-1.038,-1.0546,-1.0664,-1.0754,-1.0877,-1.1008,-1.0639,-1.0416,-1.0359,-0.9974,-0.9653,-0.9406,-0.9027,-0.8333,-0.7519,-0.7166,-0.6764,-0.6262,-0.5967,-0.5639,-0.5215,-0.4989,-0.4738,-0.4435,-0.3887,-0.3611,-0.3561,-0.3332,-0.3205,-0.3205,-0.3205,-0.3017,-0.2645,-0.2494,-0.2188,-0.1703,-0.1382,-0.1111,-0.0839,-0.0321,0.0198,0.0699,0.1024,0.1253,0.1364,0.1617,0.1819,0.1997,0.2371,0.2744,0.2972,0.3125,0.3219,0.3302,0.377,0.4157,0.4302,0.4738,0.5142,0.5285,0.5511,0.5764,0.6047,0.6393,0.6714,0.7038,0.7385,0.7632,0.7771,0.8017,0.8183,0.8239,0.846,0.8693,0.879,0.9066,0.9286,0.9458,0.9594,0.9686,0.9815,1.0075,1.0302,1.0315,1.0524,1.0694,1.071,1.0835,1.098,1.1162,1.1174,1.1255,1.1524,1.1818,1.1966,1.2154,1.2172,1.2292,-1.2966,-1.2769,-1.2513,-1.2198,-1.1887,-1.1742,-1.163,-1.1489,-1.1424,-1.147,-1.1588,-1.1509,-1.1186,-1.0708,-1.0551,-1.0448,-1.0431,-1.0593,-1.074,-1.0896,-1.0948,-1.1057,-1.1164,-1.0732,-1.0462,-1.0339,-0.992,-0.9599,-0.9377,-0.9023,-0.8407,-0.7668,-0.7338,-0.6964,-0.6514,-0.6192,-0.5766,-0.5338,-0.524,-0.5087,-0.4761,-0.416,-0.3786,-0.3685,-0.3458,-0.3282,-0.3205,-0.3205,-0.3079,-0.2801,-0.2548,-0.2271,-0.2022,-0.1566,-0.1237,-0.1061,-0.048,0.005,0.0379,0.0758,0.1035,0.1187,0.142,0.1629,0.1915,0.2199,0.2506,0.2794,0.3022,0.3201,0.3361,0.3787,0.4133,0.4333,0.4744,0.5047,0.5267,0.5499,0.5659,0.5808,0.6144,0.6546,0.674,0.716,0.7493,0.7521,0.7715,0.7881,0.7946,0.819,0.8451,0.8546,0.8872,0.9158,0.9243,0.9414,0.9591,0.9698,0.9936,1.0127,1.0185,1.0384,1.0582,1.0551,1.0879,1.1035,1.1012,1.1069,1.1224,1.1512,1.1746,1.1944,1.2074,1.2078,1.2167,-1.31,-1.3009,-1.2604,-1.2402,-1.2353,-1.1931,-1.1816,-1.1943,-1.1771,-1.1817,-1.2016,-1.1798,-1.1655,-1.1581,-1.1198,-1.0819,-1.0658,-1.0806,-1.0891,-1.0929,-1.1085,-1.1184,-1.1169,-1.09,-1.063,-1.0388,-1.0093,-0.9599,-0.8924,-0.8796,-0.8382,-0.7646,-0.7363,-0.7064,-0.6767,-0.6292,-0.5864,-0.5586,-0.5363,-0.5087,-0.4809,-0.4537,-0.4212,-0.3984,-0.3734,-0.3458,-0.3232,-0.3205,-0.3079,-0.2826,-0.2573,-0.2296,-0.2022,-0.1718,-0.1338,-0.0884,-0.0556,-0.0152,0.0278,0.043,0.0658,0.1091,0.126,0.1426,0.1688,0.1976,0.2288,0.258,0.2872,0.3115,0.3358,0.3673,0.3992,0.4329,0.4666,0.4976,0.5331,0.5389,0.5539,0.5712,0.5849,0.6156,0.6629,0.7018,0.7213,0.7268,0.7465,0.7641,0.7694,0.7967,0.8203,0.8349,0.8628,0.9026,0.9316,0.9461,0.9465,0.9585,0.9769,0.9844,0.9935,1.0073,1.0229,1.0385,1.0659,1.0804,1.0786,1.0923,1.1128,1.1318,1.1396,1.1579,1.1942,1.1989,1.2077,-1.3328,-1.307,-1.2926,-1.278,-1.2667,-1.2648,-1.2507,-1.2253,-1.2191,-1.2197,-1.2253,-1.2186,-1.2154,-1.2149,-1.1982,-1.1591,-1.109,-1.1091,-1.1085,-1.1094,-1.1161,-1.1194,-1.1169,-1.0929,-1.0654,-1.0384,-1.0117,-0.9673,-0.9105,-0.8878,-0.8577,-0.8113,-0.7665,-0.7319,-0.7042,-0.6695,-0.6292,-0.5889,-0.5586,-0.5338,-0.5037,-0.4788,-0.4537,-0.4261,-0.3836,-0.3561,-0.3458,-0.3307,-0.3155,-0.3054,-0.2801,-0.2548,-0.2246,-0.1843,-0.144,-0.1086,-0.0783,-0.0508,-0.0154,0.0206,0.0465,0.068,0.1079,0.1321,0.151,0.1877,0.2221,0.2388,0.2793,0.3109,0.3268,0.3598,0.3924,0.4151,0.4581,0.4891,0.5061,0.527,0.5437,0.5547,0.5684,0.6017,0.649,0.6798,0.6963,0.7154,0.7268,0.7357,0.7458,0.7712,0.7987,0.8201,0.8487,0.8817,0.9037,0.937,0.9551,0.9632,0.9759,0.9815,0.9888,1.0075,1.0235,1.0302,1.0502,1.0702,1.0754,1.0965,1.1142,1.1213,1.128,1.1428,1.1842,1.1813,1.1914,-1.3513,-1.325,-1.324,-1.3169,-1.3043,-1.3147,-1.3037,-1.2727,-1.26,-1.2582,-1.259,-1.2551,-1.2523,-1.2495,-1.2419,-1.2147,-1.1668,-1.1424,-1.1267,-1.1194,-1.1194,-1.1194,-1.1169,-1.0998,-1.0757,-1.0388,-1.0039,-0.9628,-0.9208,-0.8931,-0.8676,-0.8382,-0.7867,-0.7466,-0.7213,-0.6942,-0.6517,-0.6067,-0.5814,-0.5564,-0.524,-0.5037,-0.4811,-0.4512,-0.4086,-0.3761,-0.3611,-0.3408,-0.3282,-0.318,-0.2953,-0.2656,-0.2314,-0.1961,-0.1609,-0.1284,-0.1054,-0.0775,-0.0444,-0.0052,0.0211,0.04,0.0858,0.1183,0.1319,0.1775,0.2065,0.2295,0.2642,0.2998,0.3159,0.352,0.3849,0.4001,0.4372,0.4706,0.4875,0.51,0.527,0.5435,0.5656,0.5989,0.6323,0.6492,0.6687,0.699,0.7018,0.7094,0.7307,0.7523,0.7774,0.8011,0.8321,0.8561,0.8763,0.9049,0.9343,0.9473,0.9704,0.9741,0.9819,1.0035,1.0156,1.0213,1.0365,1.0607,1.0819,1.1001,1.1091,1.1152,1.1174,1.1221,1.1464,1.1601,1.17,-1.3634,-1.3536,-1.3511,-1.3519,-1.3491,-1.3369,-1.3343,-1.3368,-1.3027,-1.2943,-1.2995,-1.2864,-1.2786,-1.2735,-1.2546,-1.2384,-1.2228,-1.1848,-1.1487,-1.1272,-1.1218,-1.1194,-1.1194,-1.1169,-1.088,-1.0388,-0.9871,-0.948,-0.9232,-0.8977,-0.8705,-0.8357,-0.7942,-0.7565,-0.721,-0.6967,-0.6567,-0.6167,-0.6017,-0.5741,-0.5265,-0.519,-0.5037,-0.4786,-0.4518,-0.4174,-0.3691,-0.3613,-0.3461,-0.3212,-0.2983,-0.2598,-0.2276,-0.21,-0.1854,-0.1454,-0.1302,-0.1011,-0.0533,-0.04,-0.008,0.0269,0.0678,0.1011,0.1261,0.158,0.1902,0.2154,0.2465,0.2805,0.3054,0.3385,0.3666,0.3952,0.4064,0.4316,0.4679,0.4903,0.5044,0.5354,0.5629,0.5794,0.5877,0.6102,0.6383,0.6631,0.6717,0.6875,0.7199,0.7405,0.7554,0.7779,0.8084,0.8334,0.8507,0.8668,0.8964,0.9211,0.9505,0.97,0.9761,0.9943,0.9943,1.0001,1.0092,1.0334,1.0456,1.0637,1.0759,1.0819,1.0883,1.0974,1.1156,1.1311,1.1492,-1.4112,-1.4228,-1.4109,-1.4051,-1.4047,-1.3972,-1.3898,-1.3778,-1.3617,-1.3399,-1.3141,-1.3026,-1.2929,-1.2813,-1.271,-1.257,-1.2395,-1.22,-1.1907,-1.1516,-1.1296,-1.1218,-1.1194,-1.1194,-1.0929,-1.0413,-1.0043,-0.9747,-0.9455,-0.9204,-0.8931,-0.863,-0.8308,-0.7914,-0.749,-0.7216,-0.6892,-0.657,-0.6192,-0.5814,-0.5489,-0.529,-0.509,-0.4841,-0.4794,-0.4625,-0.4294,-0.3864,-0.3507,-0.329,-0.319,-0.3008,-0.2737,-0.2378,-0.2092,-0.1915,-0.1518,-0.126,-0.1029,-0.0625,-0.0328,-0.0083,0.0305,0.0695,0.1002,0.1285,0.1598,0.1907,0.2188,0.2468,0.2805,0.3082,0.3362,0.3699,0.3896,0.4038,0.4318,0.4651,0.5044,0.5326,0.5465,0.5603,0.574,0.5935,0.6075,0.6356,0.6442,0.6608,0.7033,0.719,0.7423,0.7774,0.7994,0.8089,0.8211,0.8363,0.861,0.8912,0.9217,0.9548,0.967,0.9727,0.9727,0.9819,0.9943,1.0035,1.0183,1.0274,1.0395,1.0516,1.0607,1.0762,1.0914,1.1035,1.1129,-1.4484,-1.4738,-1.4604,-1.451,-1.4446,-1.4459,-1.4304,-1.4046,-1.3925,-1.3714,-1.3418,-1.3171,-1.3031,-1.291,-1.2837,-1.2716,-1.2565,-1.2443,-1.2224,-1.1858,-1.1487,-1.1316,-1.1194,-1.11,-1.0826,-1.0437,-1.0117,-0.9846,-0.9599,-0.9331,-0.9059,-0.8804,-0.8531,-0.8113,-0.7643,-0.7441,-0.7191,-0.6795,-0.6467,-0.6117,-0.5799,-0.5526,-0.5293,-0.5054,-0.5027,-0.4916,-0.4629,-0.4219,-0.3856,-0.3581,-0.3407,-0.3251,-0.3034,-0.261,-0.2293,-0.2116,-0.1793,-0.1447,-0.1268,-0.0856,-0.0527,-0.0364,0.0084,0.0448,0.0729,0.1037,0.1402,0.1598,0.1991,0.2272,0.2496,0.2776,0.3083,0.3362,0.3671,0.3868,0.4038,0.4428,0.4847,0.51,0.5212,0.5352,0.5575,0.5687,0.5768,0.6019,0.6105,0.6292,0.6739,0.6925,0.7238,0.7513,0.7673,0.778,0.7903,0.8058,0.8275,0.8549,0.8882,0.9217,0.9457,0.9515,0.9545,0.9727,0.9883,0.9883,1.0001,1.0031,1.0122,1.0243,1.0334,1.0399,1.049,1.0577,1.0732,-1.474,-1.5031,-1.5041,-1.4916,-1.477,-1.4712,-1.452,-1.4304,-1.4046,-1.3913,-1.3762,-1.3394,-1.3147,-1.3074,-1.291,-1.2807,-1.274,-1.2565,-1.2419,-1.22,-1.1853,-1.1487,-1.1194,-1.1027,-1.0752,-1.0458,-1.0191,-0.99,-0.9677,-0.9381,-0.9084,-0.8853,-0.8581,-0.8184,-0.7793,-0.7643,-0.7319,-0.692,-0.6795,-0.6495,-0.6012,-0.5894,-0.5669,-0.5397,-0.5225,-0.5061,-0.4794,-0.4665,-0.4399,-0.392,-0.3581,-0.3347,-0.3114,-0.2821,-0.2536,-0.2287,-0.1989,-0.1677,-0.1373,-0.109,-0.0784,-0.0476,-0.0028,0.0392,0.0476,0.0869,0.1206,0.1374,0.1795,0.2132,0.2244,0.2468,0.2776,0.3082,0.3447,0.3729,0.3982,0.4286,0.4564,0.4817,0.4903,0.5015,0.5324,0.538,0.5517,0.5684,0.5798,0.603,0.6397,0.6637,0.6839,0.7087,0.7345,0.7508,0.7661,0.7752,0.7939,0.8241,0.8516,0.8821,0.9214,0.9335,0.9488,0.967,0.9758,0.9788,0.9819,0.9879,0.9879,0.997,1.0004,1.0004,1.0095,1.0213,1.0395,-1.5331,-1.558,-1.5429,-1.5332,-1.5231,-1.4885,-1.4694,-1.4568,-1.4304,-1.4094,-1.3907,-1.3762,-1.3467,-1.3128,-1.305,-1.2953,-1.2837,-1.274,-1.2565,-1.237,-1.2073,-1.1609,-1.1267,-1.1145,-1.0949,-1.0679,-1.0413,-1.0142,-0.9895,-0.9603,-0.9327,-0.9084,-0.8804,-0.8531,-0.8187,-0.7793,-0.7444,-0.7116,-0.6895,-0.6592,-0.6236,-0.612,-0.5917,-0.5602,-0.556,-0.5366,-0.5079,-0.4916,-0.4558,-0.3942,-0.3685,-0.3519,-0.342,-0.3116,-0.2816,-0.2576,-0.2272,-0.1963,-0.1683,-0.1346,-0.1065,-0.0785,-0.0364,0.0,0.0364,0.0533,0.0841,0.1177,0.1486,0.1739,0.2103,0.23,0.258,0.3026,0.3334,0.3673,0.3924,0.4066,0.4258,0.4536,0.4594,0.4761,0.4959,0.5043,0.5154,0.5405,0.5532,0.5662,0.6036,0.6242,0.6419,0.6805,0.7082,0.7235,0.7388,0.748,0.7661,0.7903,0.8177,0.8394,0.8821,0.9186,0.9427,0.9731,0.97,0.9697,0.9758,0.9819,0.9788,0.9788,0.9822,0.9913,0.9883,0.994,1.0122,-1.5565,-1.5801,-1.5683,-1.5564,-1.5469,-1.5159,-1.4927,-1.4688,-1.4544,-1.4322,-1.4088,-1.3955,-1.3738,-1.3443,-1.3219,-1.3055,-1.2929,-1.2832,-1.2716,-1.2516,-1.217,-1.1707,-1.1321,-1.1194,-1.1071,-1.0806,-1.0536,-1.0265,-0.9994,-0.9727,-0.9455,-0.9187,-0.8931,-0.8651,-0.8357,-0.7992,-0.7646,-0.7378,-0.7142,-0.6864,-0.657,-0.6388,-0.622,-0.5976,-0.5848,-0.5602,-0.5281,-0.5018,-0.4599,-0.4076,-0.3848,-0.3729,-0.3559,-0.3278,-0.3054,-0.2833,-0.2468,-0.2132,-0.1935,-0.157,-0.1234,-0.1009,-0.0673,-0.028,0.0028,0.0252,0.0617,0.0841,0.1121,0.1458,0.1767,0.2047,0.2327,0.2634,0.3027,0.3365,0.3785,0.3841,0.3979,0.4203,0.4314,0.4424,0.4706,0.4706,0.4875,0.51,0.5184,0.5427,0.5726,0.5843,0.6035,0.6429,0.6721,0.6886,0.7103,0.7258,0.7416,0.7658,0.7872,0.8086,0.8485,0.8943,0.9247,0.9488,0.9548,0.9636,0.9697,0.9758,0.9788,0.9788,0.9788,0.9788,0.9788,0.9788,0.994,-1.5621,-1.5801,-1.5801,-1.5683,-1.554,-1.5499,-1.5213,-1.4855,-1.4712,-1.4568,-1.4328,-1.4076,-1.3907,-1.3865,-1.3443,-1.3171,-1.3074,-1.2929,-1.2807,-1.2589,-1.2248,-1.1805,-1.134,-1.1218,-1.1096,-1.0875,-1.058,-1.0314,-1.0068,-0.9797,-0.9505,-0.9282,-0.9006,-0.8726,-0.8478,-0.8162,-0.7899,-0.7673,-0.7499,-0.7284,-0.7027,-0.6773,-0.6597,-0.6404,-0.606,-0.5778,-0.5479,-0.5154,-0.4758,-0.4119,-0.4066,-0.3868,-0.3615,-0.3334,-0.3138,-0.3026,-0.2635,-0.2327,-0.216,-0.1711,-0.1374,-0.1234,-0.0785,-0.0448,-0.0308,0.0,0.028,0.0504,0.0897,0.1177,0.143,0.1823,0.2103,0.2299,0.2524,0.2918,0.3337,0.3531,0.3671,0.3896,0.3952,0.4119,0.4313,0.448,0.4536,0.4819,0.4908,0.5098,0.5341,0.551,0.5758,0.609,0.6332,0.6473,0.6752,0.7037,0.7227,0.7444,0.7658,0.7872,0.8214,0.861,0.8912,0.9156,0.9335,0.9488,0.9636,0.9697,0.9758,0.9788,0.9788,0.9788,0.9788,0.9788,0.9879,-1.5944,-1.5801,-1.5801,-1.5784,-1.5713,-1.5564,-1.5445,-1.5285,-1.4879,-1.4712,-1.4568,-1.4328,-1.4112,-1.3907,-1.3762,-1.3521,-1.3177,-1.3026,-1.2856,-1.2492,-1.24,-1.2005,-1.1561,-1.134,-1.1169,-1.1022,-1.0826,-1.0585,-1.0314,-1.0019,-0.9772,-0.9505,-0.9208,-0.8981,-0.8705,-0.8411,-0.8149,-0.789,-0.7792,-0.7637,-0.7396,-0.7239,-0.7002,-0.6659,-0.6339,-0.6044,-0.5796,-0.5629,-0.532,-0.4789,-0.4288,-0.4008,-0.3868,-0.3643,-0.339,-0.3138,-0.2998,-0.269,-0.23,-0.2047,-0.1795,-0.1374,-0.1177,-0.0925,-0.042,-0.0308,0.0,0.028,0.0533,0.0841,0.1206,0.1402,0.1711,0.2047,0.2244,0.2468,0.2834,0.3083,0.3335,0.3587,0.3671,0.3813,0.4063,0.4092,0.4258,0.451,0.4666,0.4773,0.4958,0.5152,0.5418,0.5726,0.5892,0.6056,0.6374,0.6698,0.6983,0.7232,0.7444,0.7627,0.7966,0.8275,0.861,0.8912,0.9153,0.9305,0.9396,0.964,0.9731,0.9761,0.9788,0.9788,0.9788,0.9788,0.9788,-1.6081,-1.5998,-1.5974,-1.5927,-1.5778,-1.5683,-1.5588,-1.5445,-1.5213,-1.5005,-1.4838,-1.4592,-1.44,-1.4238,-1.4003,-1.3714,-1.3467,-1.3195,-1.2977,-1.271,-1.2516,-1.2248,-1.1951,-1.1585,-1.134,-1.1174,-1.0924,-1.0728,-1.0511,-1.0216,-0.992,-0.9752,-0.9406,-0.9133,-0.8931,-0.8613,-0.8392,-0.8248,-0.8056,-0.7908,-0.7816,-0.7589,-0.7221,-0.6813,-0.6548,-0.6353,-0.6047,-0.5877,-0.5654,-0.5264,-0.4735,-0.426,-0.4038,-0.3868,-0.3643,-0.339,-0.3166,-0.2998,-0.2663,-0.2355,-0.2047,-0.1739,-0.1486,-0.1177,-0.0813,-0.0589,-0.028,0.0,0.028,0.0617,0.1037,0.1262,0.1486,0.1683,0.1935,0.2132,0.244,0.2748,0.3027,0.3278,0.3362,0.3531,0.3671,0.3757,0.3952,0.4203,0.426,0.4392,0.466,0.4848,0.5035,0.5274,0.5432,0.5645,0.6004,0.633,0.6703,0.6987,0.7294,0.7447,0.763,0.7969,0.8275,0.8546,0.8821,0.8943,0.9065,0.9369,0.9579,0.9579,0.9609,0.9731,0.9788,0.9788,0.9788,-1.6193,-1.6265,-1.6224,-1.6076,-1.5879,-1.5832,-1.5713,-1.5564,-1.5499,-1.5333,-1.5148,-1.4885,-1.4712,-1.4592,-1.4244,-1.4027,-1.3762,-1.3418,-1.3123,-1.2977,-1.271,-1.2492,-1.2268,-1.1956,-1.159,-1.1267,-1.0998,-1.085,-1.0683,-1.0388,-1.0142,-0.9969,-0.9599,-0.9307,-0.9109,-0.8848,-0.8643,-0.8625,-0.8429,-0.8252,-0.8229,-0.7932,-0.7509,-0.7018,-0.6824,-0.6631,-0.6381,-0.6158,-0.5905,-0.5796,-0.5294,-0.4761,-0.4288,-0.401,-0.3924,-0.3643,-0.339,-0.3166,-0.297,-0.2607,-0.2272,-0.2188,-0.1711,-0.1374,-0.1177,-0.0869,-0.0561,-0.0252,0.0056,0.0448,0.0785,0.0925,0.1093,0.129,0.1542,0.1795,0.2047,0.2356,0.2663,0.2999,0.3083,0.3195,0.3363,0.3503,0.3699,0.3841,0.3896,0.4041,0.4306,0.449,0.4699,0.4877,0.5026,0.531,0.5644,0.5983,0.6354,0.6672,0.7011,0.7171,0.7324,0.763,0.7936,0.8214,0.8458,0.858,0.8793,0.9065,0.9217,0.9275,0.9427,0.9579,0.97,0.9788,0.9788,-1.6478,-1.6525,-1.6289,-1.6177,-1.6099,-1.5903,-1.5784,-1.5737,-1.5571,-1.5475,-1.5404,-1.5148,-1.4909,-1.4742,-1.464,-1.4334,-1.3925,-1.3588,-1.3322,-1.3171,-1.2977,-1.2802,-1.2467,-1.2273,-1.1956,-1.1561,-1.1243,-1.1022,-1.0855,-1.0683,-1.0408,-1.0093,-0.9895,-0.9653,-0.9375,-0.9239,-0.9093,-0.8968,-0.8862,-0.8774,-0.8544,-0.8324,-0.7992,-0.7438,-0.7213,-0.6963,-0.6715,-0.6573,-0.6323,-0.5877,-0.5682,-0.5322,-0.4819,-0.4316,-0.4038,-0.3868,-0.3643,-0.3419,-0.3166,-0.2831,-0.2496,-0.2216,-0.1907,-0.157,-0.1374,-0.1177,-0.0841,-0.042,-0.0112,0.0196,0.0448,0.0589,0.0701,0.0925,0.1206,0.1402,0.1542,0.1795,0.2216,0.2607,0.2748,0.2861,0.3055,0.3223,0.3363,0.3531,0.3615,0.3785,0.4014,0.4158,0.4279,0.445,0.4651,0.4975,0.5299,0.5656,0.6002,0.6276,0.6571,0.6773,0.6957,0.7263,0.7569,0.7877,0.8152,0.8366,0.858,0.876,0.8943,0.9065,0.9247,0.9457,0.9579,0.967,0.9758,-1.6481,-1.655,-1.6603,-1.6525,-1.6359,-1.6147,-1.5998,-1.5981,-1.5761,-1.5659,-1.5594,-1.5404,-1.5237,-1.5064,-1.4783,-1.4472,-1.4136,-1.3835,-1.3636,-1.3491,-1.3219,-1.3026,-1.2686,-1.254,-1.2297,-1.1956,-1.1614,-1.1272,-1.1002,-1.0855,-1.0654,-1.0437,-1.0167,-0.9846,-0.964,-0.9522,-0.9469,-0.9298,-0.9249,-0.9134,-0.8916,-0.8709,-0.8239,-0.7878,-0.7546,-0.7326,-0.716,-0.6798,-0.6573,-0.6267,-0.5963,-0.5654,-0.5292,-0.4817,-0.4316,-0.4064,-0.3868,-0.3671,-0.3362,-0.3083,-0.2775,-0.2496,-0.2188,-0.1879,-0.1598,-0.1346,-0.1037,-0.0561,-0.0336,-0.0112,0.0168,0.0308,0.0476,0.0645,0.0897,0.1121,0.129,0.143,0.1795,0.2216,0.2356,0.2524,0.2833,0.2971,0.3055,0.3167,0.3306,0.3531,0.3757,0.3839,0.3895,0.4167,0.4368,0.4667,0.4985,0.5299,0.5622,0.5895,0.6154,0.6355,0.6622,0.6926,0.7263,0.7569,0.7847,0.8122,0.8244,0.8424,0.861,0.8824,0.8976,0.9156,0.9396,0.9548,0.9636,-1.6417,-1.6613,-1.6802,-1.6821,-1.6659,-1.6407,-1.6241,-1.6153,-1.5981,-1.5855,-1.5778,-1.5642,-1.5516,-1.535,-1.4975,-1.4592,-1.4352,-1.4094,-1.3949,-1.3786,-1.3497,-1.3249,-1.3001,-1.2759,-1.2492,-1.2273,-1.2029,-1.159,-1.1272,-1.1051,-1.0875,-1.0683,-1.0314,-1.0068,-0.9962,-0.9855,-0.9757,-0.9593,-0.9552,-0.9472,-0.9264,-0.8819,-0.8377,-0.81,-0.7823,-0.7635,-0.7496,-0.7188,-0.6854,-0.6576,-0.6267,-0.5933,-0.5738,-0.5348,-0.4819,-0.4288,-0.4066,-0.3868,-0.3671,-0.3278,-0.297,-0.2776,-0.2412,-0.2132,-0.1851,-0.1514,-0.1121,-0.0701,-0.042,-0.0308,-0.0084,0.0168,0.0308,0.0392,0.0617,0.0869,0.1009,0.1177,0.1374,0.1683,0.1907,0.2187,0.2467,0.2636,0.2719,0.2917,0.3057,0.3195,0.3419,0.3475,0.3589,0.3907,0.4156,0.4391,0.4634,0.4901,0.5232,0.5521,0.5774,0.5985,0.6289,0.6589,0.6896,0.7171,0.7569,0.7814,0.7936,0.8089,0.8336,0.8549,0.8674,0.8885,0.9126,0.9335,0.9457,-1.6316,-1.6834,-1.6634,-1.6691,-1.6873,-1.6652,-1.643,-1.6224,-1.6177,-1.6028,-1.5832,-1.5784,-1.5683,-1.5421,-1.4975,-1.4742,-1.4592,-1.437,-1.416,-1.4003,-1.3811,-1.3515,-1.3171,-1.3074,-1.2759,-1.2521,-1.2351,-1.2029,-1.1639,-1.1292,-1.1047,-1.0855,-1.0732,-1.0511,-1.0147,-1.0238,-1.018,-0.985,-1.0,-0.99,-0.9399,-0.8847,-0.8571,-0.8377,-0.8128,-0.7881,-0.7718,-0.7493,-0.7243,-0.6798,-0.6659,-0.6323,-0.5905,-0.5764,-0.5375,-0.4845,-0.4372,-0.3982,-0.3841,-0.3475,-0.311,-0.2943,-0.258,-0.2244,-0.1991,-0.1655,-0.129,-0.1234,-0.0757,-0.042,-0.0308,-0.0112,0.0028,0.014,0.0308,0.0476,0.0589,0.0841,0.1065,0.129,0.157,0.1823,0.2131,0.2244,0.2356,0.2581,0.2778,0.2945,0.3083,0.3194,0.3278,0.3594,0.3852,0.4079,0.4284,0.4542,0.4791,0.5111,0.5371,0.5623,0.5914,0.6191,0.6375,0.6709,0.7108,0.7536,0.775,0.7936,0.8089,0.8244,0.8397,0.861,0.8854,0.9065,0.9214,-1.6006,-1.6352,-1.6598,-1.68,-1.6923,-1.6847,-1.6767,-1.665,-1.6501,-1.6265,-1.6052,-1.6028,-1.5832,-1.5493,-1.5207,-1.507,-1.4903,-1.464,-1.4472,-1.4262,-1.4076,-1.3781,-1.3539,-1.3244,-1.2929,-1.2807,-1.254,-1.2322,-1.1951,-1.1634,-1.134,-1.1218,-1.0949,-1.0708,-1.0423,-1.0544,-1.0431,-1.0284,-1.0239,-0.9966,-0.9485,-0.9154,-0.8933,-0.874,-0.8436,-0.8239,-0.8072,-0.7718,-0.7521,-0.716,-0.6937,-0.6601,-0.627,-0.6017,-0.5629,-0.5431,-0.4845,-0.44,-0.4038,-0.3757,-0.3475,-0.3138,-0.283,-0.2606,-0.2243,-0.1851,-0.1486,-0.129,-0.1093,-0.0785,-0.0504,-0.0308,-0.0168,-0.0028,0.0112,0.0252,0.0364,0.0504,0.0729,0.0953,0.1206,0.1486,0.1739,0.1907,0.2075,0.23,0.2468,0.258,0.2831,0.3055,0.3138,0.3279,0.3535,0.3768,0.3938,0.4148,0.4388,0.4668,0.4922,0.5175,0.5517,0.5761,0.6004,0.625,0.6648,0.7077,0.7505,0.778,0.7966,0.8058,0.8119,0.8333,0.8549,0.8644,0.8824,-1.5856,-1.5997,-1.6455,-1.6733,-1.6917,-1.6966,-1.6978,-1.6949,-1.6784,-1.6548,-1.6336,-1.6218,-1.5957,-1.5635,-1.5493,-1.5333,-1.519,-1.4927,-1.476,-1.4574,-1.4334,-1.4046,-1.3781,-1.3467,-1.3298,-1.3195,-1.2837,-1.2613,-1.2419,-1.2097,-1.1756,-1.1585,-1.1247,-1.0953,-1.0832,-1.0828,-1.0793,-1.0686,-1.0435,-1.0084,-0.9706,-0.9485,-0.9237,-0.902,-0.8768,-0.8567,-0.8429,-0.8128,-0.7854,-0.7468,-0.7218,-0.691,-0.6604,-0.6297,-0.5961,-0.5738,-0.5292,-0.4873,-0.4428,-0.4036,-0.3783,-0.3447,-0.3082,-0.2802,-0.2271,-0.1991,-0.1795,-0.1486,-0.129,-0.1037,-0.0729,-0.0533,-0.0308,-0.0168,-0.0028,0.0112,0.0,0.0,0.0,0.0645,0.0897,0.1121,0.1374,0.1542,0.1767,0.2019,0.216,0.2272,0.2524,0.2803,0.2943,0.2999,0.3251,0.345,0.3574,0.375,0.4007,0.4265,0.4511,0.4784,0.5143,0.5435,0.5667,0.5943,0.6219,0.6587,0.7016,0.7444,0.7814,0.7936,0.8027,0.8089,0.8211,0.8275,0.8522,-1.6082,-1.6065,-1.6011,-1.6345,-1.6895,-1.6917,-1.6938,-1.7043,-1.6979,-1.68,-1.6541,-1.6305,-1.6052,-1.5808,-1.5618,-1.5516,-1.5445,-1.5196,-1.4981,-1.4814,-1.4622,-1.4334,-1.4046,-1.3859,-1.3666,-1.3467,-1.3152,-1.3031,-1.2934,-1.254,-1.2102,-1.1658,-1.1516,-1.1194,-1.1069,-1.1117,-1.1107,-1.0932,-1.0617,-1.0359,-1.0036,-0.9761,-0.943,-0.9296,-0.9047,-0.8768,-0.8512,-0.8374,-0.8156,-0.7746,-0.7496,-0.7215,-0.6882,-0.6604,-0.6323,-0.5989,-0.5738,-0.532,-0.4929,-0.44,-0.4038,-0.3785,-0.3419,-0.2914,-0.2439,-0.2216,-0.2019,-0.1767,-0.1542,-0.1318,-0.1037,-0.0785,-0.0561,-0.0308,-0.0168,-0.0028,0.0,0.0,0.0,0.0,0.0589,0.0813,0.1037,0.1234,0.1598,0.1851,0.1963,0.2075,0.2244,0.2495,0.2636,0.2748,0.2971,0.3139,0.3166,0.3392,0.3678,0.3931,0.4171,0.4466,0.4794,0.5047,0.5264,0.5634,0.5912,0.6219,0.6526,0.6954,0.7383,0.775,0.7933,0.7994,0.8058,0.815,0.8427,-1.6286,-1.6281,-1.6099,-1.6324,-1.678,-1.686,-1.7017,-1.7187,-1.7169,-1.7059,-1.6807,-1.6407,-1.6153,-1.6004,-1.5784,-1.5689,-1.5659,-1.5452,-1.5285,-1.5094,-1.4855,-1.4592,-1.4334,-1.4076,-1.3816,-1.3714,-1.3467,-1.3219,-1.3055,-1.2861,-1.2565,-1.2175,-1.1829,-1.1561,-1.1405,-1.133,-1.1256,-1.1138,-1.0884,-1.0665,-1.028,-1.0119,-0.9761,-0.9379,-0.9323,-0.9047,-0.8768,-0.8567,-0.8374,-0.8128,-0.7826,-0.7493,-0.7188,-0.6937,-0.6604,-0.6295,-0.6044,-0.571,-0.5403,-0.4847,-0.44,-0.3896,-0.3447,-0.2998,-0.2691,-0.2439,-0.2216,-0.1963,-0.1767,-0.1542,-0.1234,-0.1065,-0.0869,-0.0533,-0.0308,-0.0168,0.0,0.0,0.0,0.0,0.0,0.0533,0.0729,0.0925,0.1346,0.1711,0.1767,0.1851,0.2047,0.216,0.2328,0.2468,0.2691,0.2803,0.2859,0.3092,0.3356,0.3605,0.3837,0.413,0.44,0.4544,0.4805,0.5204,0.5605,0.5912,0.6219,0.6559,0.6987,0.7475,0.778,0.7933,0.7964,0.8027,0.8272,-1.6558,-1.6484,-1.6265,-1.6365,-1.6666,-1.6803,-1.7008,-1.7241,-1.7289,-1.72,-1.6979,-1.6602,-1.639,-1.6265,-1.6052,-1.5933,-1.5855,-1.5689,-1.5564,-1.5374,-1.5142,-1.4879,-1.4616,-1.4382,-1.4148,-1.4003,-1.3762,-1.3515,-1.3394,-1.3177,-1.2905,-1.254,-1.2122,-1.1853,-1.156,-1.1482,-1.1366,-1.1368,-1.1131,-1.0962,-1.0555,-1.0335,-1.0174,-0.9682,-0.9517,-0.9296,-0.902,-0.8819,-0.8595,-0.8377,-0.8128,-0.7829,-0.7524,-0.7218,-0.691,-0.6604,-0.6351,-0.6017,-0.571,-0.5236,-0.4623,-0.4036,-0.3699,-0.3334,-0.3026,-0.2691,-0.2495,-0.2188,-0.1991,-0.1767,-0.1458,-0.1318,-0.1149,-0.0841,-0.0448,-0.028,-0.0168,0.0,0.0,0.0,0.0,0.0308,0.0561,0.0785,0.1093,0.1486,0.1739,0.1795,0.1879,0.1963,0.2047,0.2188,0.2356,0.2468,0.2581,0.281,0.3068,0.3282,0.3538,0.3776,0.4017,0.4155,0.4398,0.4805,0.5206,0.5575,0.5943,0.625,0.6771,0.7322,0.7597,0.7872,0.7903,0.7964,0.8027,-1.6935,-1.6689,-1.6484,-1.6487,-1.6637,-1.6695,-1.6907,-1.7242,-1.7325,-1.7223,-1.7026,-1.6939,-1.6791,-1.6565,-1.6305,-1.617,-1.6082,-1.5903,-1.573,-1.5516,-1.5397,-1.5135,-1.4903,-1.4664,-1.4478,-1.428,-1.4088,-1.3925,-1.3811,-1.3443,-1.3177,-1.2905,-1.2487,-1.207,-1.1663,-1.1508,-1.1626,-1.1833,-1.1396,-1.1185,-1.0911,-1.0582,-1.0366,-1.0068,-0.9761,-0.9544,-0.9268,-0.9075,-0.8823,-0.8571,-0.8429,-0.8156,-0.7771,-0.7579,-0.7243,-0.6824,-0.6712,-0.6351,-0.5849,-0.5236,-0.4733,-0.4204,-0.3952,-0.3671,-0.3278,-0.3026,-0.2802,-0.2467,-0.2216,-0.2047,-0.1795,-0.1514,-0.1346,-0.1093,-0.0701,-0.0448,-0.0336,0.0,0.0,0.0,0.0,0.014,0.0392,0.0673,0.0925,0.1262,0.1598,0.1739,0.1767,0.1823,0.1907,0.1963,0.2104,0.216,0.23,0.2525,0.2782,0.299,0.322,0.3457,0.3691,0.3932,0.4193,0.4481,0.4838,0.5237,0.5605,0.5943,0.6495,0.7046,0.7536,0.7811,0.7872,0.7903,0.7964,-1.7188,-1.6947,-1.6886,-1.6773,-1.6708,-1.6894,-1.7159,-1.7447,-1.7503,-1.7434,-1.7207,-1.7066,-1.6979,-1.6807,-1.6588,-1.6383,-1.6201,-1.6147,-1.595,-1.5706,-1.5588,-1.5445,-1.5213,-1.5029,-1.4838,-1.4616,-1.4424,-1.419,-1.3859,-1.3636,-1.337,-1.308,-1.2683,-1.2276,-1.2062,-1.1942,-1.1994,-1.1959,-1.1759,-1.1541,-1.1154,-1.0911,-1.0637,-1.0339,-1.0091,-0.9816,-0.9489,-0.9296,-0.9047,-0.8768,-0.8654,-0.8401,-0.81,-0.7909,-0.7521,-0.7188,-0.7021,-0.6406,-0.5961,-0.5515,-0.5236,-0.4733,-0.4204,-0.3952,-0.3699,-0.3278,-0.3026,-0.2746,-0.2439,-0.2271,-0.2047,-0.1795,-0.1598,-0.1318,-0.0981,-0.0729,-0.0561,-0.0392,0.0,0.0,0.0,0.0,0.0,0.0,0.0645,0.0869,0.1177,0.157,0.1683,0.1767,0.1851,0.1823,0.1907,0.1907,0.2019,0.2244,0.2412,0.2587,0.2845,0.3095,0.3348,0.3628,0.3957,0.4224,0.4547,0.4868,0.536,0.5849,0.628,0.6771,0.723,0.7661,0.7811,0.7872,0.7933,-1.7383,-1.7221,-1.72,-1.7057,-1.6867,-1.6988,-1.7236,-1.756,-1.7657,-1.7581,-1.741,-1.7207,-1.7113,-1.7043,-1.6855,-1.669,-1.6437,-1.6248,-1.6147,-1.5903,-1.5713,-1.5571,-1.5452,-1.5339,-1.51,-1.4879,-1.4712,-1.4472,-1.4214,-1.3979,-1.3593,-1.3128,-1.2799,-1.2651,-1.2461,-1.2342,-1.2257,-1.222,-1.2114,-1.1782,-1.1455,-1.1181,-1.0907,-1.0637,-1.0363,-1.0123,-0.9789,-0.9517,-0.9299,-0.9047,-0.8823,-0.8595,-0.8405,-0.8183,-0.7826,-0.7521,-0.7021,-0.6518,-0.6242,-0.5849,-0.5543,-0.5236,-0.4568,-0.4148,-0.398,-0.3559,-0.325,-0.2998,-0.2691,-0.2439,-0.2216,-0.2019,-0.1823,-0.1514,-0.1262,-0.1009,-0.0841,-0.0673,0.0,0.0,0.0,0.0,0.0,0.0,0.0336,0.0533,0.0757,0.1149,0.1514,0.1598,0.1711,0.1767,0.1767,0.1823,0.1851,0.1963,0.2104,0.2188,0.2439,0.2728,0.3054,0.3327,0.3658,0.3996,0.4323,0.471,0.5266,0.5726,0.6066,0.6467,0.6896,0.7294,0.7658,0.7811,0.7903,-1.7607,-1.7412,-1.7392,-1.7282,-1.7122,-1.707,-1.7243,-1.7613,-1.7718,-1.7745,-1.7675,-1.741,-1.7309,-1.7239,-1.7059,-1.6956,-1.6862,-1.6461,-1.6272,-1.6123,-1.591,-1.5737,-1.5588,-1.5499,-1.5333,-1.51,-1.4933,-1.4807,-1.4622,-1.4148,-1.3617,-1.3273,-1.3074,-1.2968,-1.2815,-1.2637,-1.2544,-1.2543,-1.2414,-1.2082,-1.1787,-1.1459,-1.1208,-1.0907,-1.0637,-1.0394,-1.0091,-0.9789,-0.9517,-0.9268,-0.9075,-0.8795,-0.8598,-0.8512,-0.8128,-0.7632,-0.7049,-0.6826,-0.6548,-0.6128,-0.5849,-0.5543,-0.4929,-0.4454,-0.4092,-0.3783,-0.3503,-0.3278,-0.2998,-0.2663,-0.2356,-0.2188,-0.2019,-0.1767,-0.1486,-0.1318,-0.1177,-0.0925,-0.0589,0.0,0.0,0.0,0.0,0.0,0.0,0.0252,0.0476,0.0701,0.1037,0.1262,0.1402,0.1655,0.1683,0.1739,0.1795,0.1851,0.1907,0.2047,0.2105,0.2356,0.2674,0.3037,0.3362,0.372,0.4099,0.4551,0.5082,0.5452,0.5728,0.616,0.6591,0.7049,0.7444,0.778,0.7903,-1.7971,-1.7619,-1.7598,-1.7497,-1.736,-1.7637,-1.7788,-1.7832,-1.811,-1.8079,-1.7698,-1.7621,-1.7504,-1.7286,-1.7239,-1.7129,-1.6996,-1.6815,-1.6508,-1.6319,-1.6123,-1.5927,-1.5784,-1.5683,-1.5571,-1.5421,-1.5255,-1.5046,-1.467,-1.419,-1.3931,-1.369,-1.3316,-1.327,-1.3154,-1.295,-1.2937,-1.2829,-1.2689,-1.2414,-1.2114,-1.1814,-1.1514,-1.1154,-1.0935,-1.0665,-1.0312,-1.0147,-0.9844,-0.9461,-0.9323,-0.9099,-0.8795,-0.8598,-0.8239,-0.769,-0.7385,-0.7188,-0.6743,-0.6383,-0.6075,-0.5766,-0.518,-0.4733,-0.437,-0.4064,-0.3755,-0.3531,-0.325,-0.2915,-0.2608,-0.2384,-0.2188,-0.1907,-0.1683,-0.1514,-0.1374,-0.1149,-0.0813,-0.0392,-0.0168,0.0,0.0,0.0,0.0,0.0,0.0196,0.0392,0.0617,0.0841,0.1121,0.1374,0.1486,0.1514,0.1683,0.1795,0.1823,0.1908,0.1965,0.2086,0.2374,0.2704,0.3046,0.3456,0.3937,0.4426,0.4931,0.5241,0.5485,0.5882,0.6313,0.6804,0.7263,0.7566,0.7872,-1.8302,-1.7991,-1.7983,-1.7801,-1.763,-1.804,-1.8155,-1.8057,-1.8355,-1.8272,-1.8032,-1.7908,-1.7721,-1.7504,-1.745,-1.7333,-1.7129,-1.6996,-1.6791,-1.6626,-1.6312,-1.6123,-1.5981,-1.5855,-1.5737,-1.5635,-1.5493,-1.5302,-1.4903,-1.4502,-1.419,-1.3835,-1.3515,-1.3492,-1.3438,-1.3367,-1.3268,-1.3136,-1.292,-1.2671,-1.2414,-1.2114,-1.1705,-1.1404,-1.1213,-1.0857,-1.05,-1.0417,-1.0091,-0.971,-0.9627,-0.9323,-0.902,-0.8737,-0.846,-0.7965,-0.7662,-0.744,-0.7107,-0.669,-0.6328,-0.5963,-0.5515,-0.5096,-0.465,-0.4258,-0.4008,-0.3757,-0.3475,-0.3166,-0.2861,-0.2581,-0.23,-0.1991,-0.1851,-0.1711,-0.1542,-0.1374,-0.0953,-0.0504,-0.0252,-0.014,0.0,0.0,0.0,0.0,0.0,0.014,0.0336,0.0533,0.0813,0.1093,0.1177,0.1234,0.143,0.1655,0.1711,0.1739,0.1851,0.1976,0.217,0.2429,0.282,0.3294,0.3816,0.4268,0.4687,0.4995,0.5271,0.5669,0.6099,0.6589,0.7049,0.7385,0.7627,-1.8591,-1.8414,-1.8402,-1.8112,-1.7801,-1.8278,-1.8373,-1.818,-1.8481,-1.8527,-1.8458,-1.8241,-1.7978,-1.7768,-1.7675,-1.7527,-1.734,-1.7153,-1.7019,-1.6986,-1.6579,-1.6319,-1.6123,-1.5981,-1.5855,-1.5761,-1.5618,-1.5469,-1.5309,-1.4855,-1.4334,-1.3949,-1.3859,-1.3739,-1.3504,-1.3695,-1.3593,-1.3346,-1.3168,-1.2962,-1.2713,-1.2359,-1.1923,-1.1623,-1.135,-1.1021,-1.0747,-1.0531,-1.0308,-1.0091,-0.9871,-0.9513,-0.921,-0.8878,-0.8598,-0.8294,-0.7937,-0.7662,-0.7357,-0.694,-0.6604,-0.6297,-0.5991,-0.5515,-0.5041,-0.4566,-0.4286,-0.3952,-0.3671,-0.3362,-0.3055,-0.2831,-0.2551,-0.2243,-0.1991,-0.1851,-0.1683,-0.1458,-0.1121,-0.0729,-0.0561,-0.042,0.0,0.0,0.0,0.0,0.0,0.0,0.0,0.0,0.0504,0.0785,0.0841,0.0925,0.1177,0.1374,0.1514,0.1598,0.1711,0.1825,0.1951,0.2266,0.2567,0.3134,0.3693,0.4023,0.4378,0.4749,0.5118,0.5485,0.5914,0.6438,0.6834,0.7171,0.7505,-1.8812,-1.8612,-1.8471,-1.8132,-1.7813,-1.8443,-1.8603,-1.8452,-1.8865,-1.8835,-1.852,-1.8427,-1.8264,-1.8024,-1.7846,-1.7698,-1.7551,-1.734,-1.716,-1.705,-1.6791,-1.6532,-1.6265,-1.6147,-1.5998,-1.5849,-1.5706,-1.5547,-1.5261,-1.4903,-1.4568,-1.4232,-1.407,-1.3802,-1.3571,-1.3797,-1.3786,-1.3522,-1.3465,-1.3224,-1.2935,-1.2577,-1.2169,-1.1896,-1.1623,-1.1322,-1.1021,-1.0747,-1.05,-1.0284,-1.0174,-0.9844,-0.9434,-0.902,-0.874,-0.8484,-0.8128,-0.7881,-0.7549,-0.7132,-0.6771,-0.6462,-0.6156,-0.5849,-0.5431,-0.4957,-0.4538,-0.4204,-0.3841,-0.3531,-0.325,-0.3054,-0.283,-0.2495,-0.2132,-0.1963,-0.1823,-0.1542,-0.1262,-0.1065,-0.0897,-0.0673,-0.042,-0.0252,-0.0168,0.0,0.0,0.0,0.0,0.0,0.0,0.0448,0.0504,0.0617,0.0897,0.1093,0.1234,0.1458,0.1598,0.1683,0.1795,0.2145,0.2542,0.3078,0.3565,0.3861,0.4217,0.4656,0.5025,0.53,0.573,0.6254,0.6655,0.699,0.7385,-1.9022,-1.8812,-1.8623,-1.8418,-1.8353,-1.8858,-1.904,-1.8979,-1.9315,-1.9242,-1.8804,-1.8674,-1.8512,-1.8303,-1.8125,-1.7869,-1.7745,-1.7558,-1.7371,-1.7207,-1.7026,-1.6845,-1.6602,-1.6343,-1.6147,-1.5981,-1.5832,-1.5618,-1.5267,-1.5029,-1.476,-1.4472,-1.4208,-1.3943,-1.3765,-1.3877,-1.391,-1.3687,-1.371,-1.3528,-1.3184,-1.2854,-1.2387,-1.2087,-1.1841,-1.1541,-1.1213,-1.0939,-1.0747,-1.0421,-1.0202,-0.9844,-0.9434,-0.9047,-0.885,-0.8657,-0.8405,-0.8072,-0.7715,-0.7357,-0.6968,-0.6659,-0.6353,-0.6021,-0.571,-0.5236,-0.4817,-0.4456,-0.4066,-0.3729,-0.3447,-0.3194,-0.3054,-0.2774,-0.2355,-0.2047,-0.1879,-0.1683,-0.143,-0.1206,-0.1065,-0.0953,-0.0701,-0.0392,-0.0336,0.0,0.0,0.0,0.0,0.0,0.0,0.0,0.0,0.0,0.0589,0.0785,0.0953,0.1177,0.1458,0.1627,0.1771,0.2123,0.2519,0.2979,0.3386,0.3698,0.4049,0.4558,0.4841,0.5087,0.5548,0.607,0.644,0.6839,0.7204,-1.9183,-1.8973,-1.8812,-1.8812,-1.8984,-1.9338,-1.9488,-1.9536,-1.9768,-1.9677,-1.9288,-1.8989,-1.8743,-1.8589,-1.8481,-1.8148,-1.7916,-1.7721,-1.7535,-1.7364,-1.7153,-1.7003,-1.6815,-1.6579,-1.6366,-1.6123,-1.5903,-1.5713,-1.5452,-1.5237,-1.4999,-1.4736,-1.4478,-1.4214,-1.4078,-1.4109,-1.4134,-1.3955,-1.3879,-1.3782,-1.3532,-1.3207,-1.2659,-1.2305,-1.2005,-1.1705,-1.135,-1.1076,-1.0966,-1.0637,-1.0225,-0.9871,-0.9544,-0.9213,-0.8992,-0.8826,-0.8571,-0.8266,-0.7965,-0.7662,-0.7271,-0.6882,-0.655,-0.6216,-0.5907,-0.5543,-0.5126,-0.4679,-0.4288,-0.3952,-0.3671,-0.339,-0.3222,-0.2969,-0.255,-0.2132,-0.1935,-0.1795,-0.1598,-0.1374,-0.1318,-0.1206,-0.0953,-0.0673,-0.0504,-0.042,-0.0252,-0.0112,0.0,0.0,0.0,0.0,0.0,0.0,0.0,0.0533,0.0701,0.0925,0.1177,0.1458,0.1718,0.1976,0.2325,0.2827,0.3197,0.3489,0.3954,0.4499,0.4718,0.4935,0.5486,0.6009,0.6377,0.6745,0.7023,-1.932,-1.9002,-1.8971,-1.9055,-1.9241,-1.9453,-1.9678,-1.9915,-1.9912,-1.9814,-1.9654,-1.9302,-1.8981,-1.8735,-1.8543,-1.8357,-1.8218,-1.7962,-1.7745,-1.7605,-1.7364,-1.7183,-1.6996,-1.6815,-1.6572,-1.6265,-1.595,-1.5713,-1.5571,-1.5452,-1.5166,-1.4736,-1.4688,-1.443,-1.4061,-1.4197,-1.4373,-1.4191,-1.418,-1.4175,-1.364,-1.3288,-1.2962,-1.2577,-1.225,-1.1896,-1.1541,-1.1236,-1.0962,-1.0692,-1.039,-1.0033,-0.9734,-0.9434,-0.9189,-0.8964,-0.8709,-0.8405,-0.8131,-0.7826,-0.7438,-0.7157,-0.6798,-0.6437,-0.613,-0.5849,-0.5403,-0.4931,-0.454,-0.4232,-0.3923,-0.3615,-0.3419,-0.3026,-0.2606,-0.2215,-0.1935,-0.1851,-0.1711,-0.1655,-0.1627,-0.1486,-0.129,-0.1037,-0.0841,-0.0673,-0.042,-0.028,-0.0084,0.0,0.0,0.0,0.0,0.0,0.0,0.0,0.0504,0.0701,0.1009,0.1374,0.1662,0.1766,0.2138,0.2728,0.3008,0.3268,0.3786,0.4441,0.4718,0.4996,0.5517,0.5978,0.6315,0.6653,0.6959]},{"header":{"parameterUnit":"m.s-1","parameterCategory":1,"la1":31.0,"la2":29.5877,"lo1":-88.7671,"lo2":-86.6584,"dx":0.0162,"dy":0.0185,"nx":115,"ny":88,"refTime":"2022-11-03T06:00:00:Z","depth":0,"parameterNumber":3,"parameterNumberName":"V-component_of_WINDS"},"data":[0.0,0.0,0.0,0.0,0.0,0.0,0.0,0.0,0.0,0.0,0.0,0.0,0.0,0.0,0.0,0.0,0.0,0.0,0.0,0.0,0.0,0.0,0.0,0.0,0.0,0.0,0.0,0.0,0.0,0.0,0.0,0.0,0.0,0.0,0.0,0.0,0.0,0.0,0.0,0.0,0.0,0.0,0.0,0.0,0.0,0.0,0.0,0.0,0.0,0.0,0.0,0.0,0.0,0.0,0.0,0.0,0.0,0.0,0.0,0.0,0.0,0.0,0.0,0.0,0.0,0.0,0.0,0.0,0.0,0.0,0.0,0.0,0.0,0.0,0.0,0.0,0.0,0.0,0.0,0.0,0.0,0.0,0.0,0.0,0.0,0.0,0.0,0.0,0.0,0.0,0.0,0.0,0.0,0.0,0.0,0.0,0.0,0.0,0.0,0.0,0.0,0.0,0.0,0.0,0.0,0.0,0.0,0.0,0.0,0.0,0.0,0.0,0.0,0.0,0.0,0.0,0.0,0.0,0.0,0.0,0.0,0.0,0.0,0.0,0.0,0.0,0.0,0.0,0.0,0.0,0.0,0.0,0.0,0.0,0.0,0.0,0.0,0.0,0.0,0.0,0.0,0.0,0.0,0.0,0.0,0.0,0.0,0.0,0.0,0.0,0.0,0.0,0.0,0.0,0.0,0.0,0.0,0.0,0.0,0.0,0.0,0.0,0.0,0.0,0.0,0.0,0.0,0.0,0.0,0.0,0.0,0.0,0.0,0.0,0.0,0.0,0.0,0.0,0.0,0.0,0.0,0.0,0.0,0.0,0.0,0.0,0.0,0.0,0.0,0.0,0.0,0.0,0.0,0.0,0.0,0.0,0.0,0.0,0.0,0.0,0.0,0.0,0.0,0.0,0.0,0.0,0.0,0.0,0.0,0.0,0.0,0.0,0.0,0.0,0.0,0.0,0.0,0.0,0.0,0.0,0.0,0.0,0.0,0.0,0.0,0.0,0.0,0.0,0.0,0.0,0.0,0.0,0.0,0.0,0.0,0.0,0.0,0.0,0.0,0.0,0.0,0.0,0.0,0.0,0.0,0.0,0.0,0.0,0.0,0.0,0.0,0.0,0.0,0.0,0.0,0.0,0.0,0.0,0.0,0.0,0.0,0.0,0.0,0.0,0.0,0.0,0.0,0.0,0.0,0.0,0.0,0.0,0.0,0.0,0.0,0.0,0.0,0.0,0.0,0.0,0.0,0.0,0.0,0.0,0.0,0.0,0.0,0.0,0.0,0.0,0.0,0.0,0.0,0.0,0.0,0.0,0.0,0.0,0.0,0.0,0.0,0.0,0.0,0.0,0.0,0.0,0.0,0.0,0.0,0.0,0.0,0.0,0.0,0.0,0.0,0.0,0.0,0.0,0.0,0.0,0.0,0.0,0.0,0.0,0.0,0.0,0.0,0.0,0.0,0.0,0.0,0.0,0.0,0.0,0.0,0.0,0.0,0.0,0.0,0.0,0.0,0.0,0.0,0.0,0.0,0.0,0.0,0.0,0.0,0.0,0.0,0.0,0.0,0.0,0.0,0.0,0.0,0.0,0.0,0.0,0.0,0.0,0.0,0.0,0.0,0.0,0.0,0.0,0.0,0.0,0.0,0.0,0.0,0.0,0.0,0.0,0.0,0.0,0.0,0.0,0.0,0.0,0.0,0.0,0.0,0.0,0.0,0.0,0.0,0.0,0.0,0.0,0.0,0.0,0.0,0.0,0.0,0.0,0.0,0.0,0.0,0.0,0.0,0.0,0.0,0.0,0.0,0.0,0.0,0.0,0.0,0.0,0.0,0.0,0.0,0.0,0.0,0.0,0.0,0.0,0.0,0.0,0.0,0.0,0.0,0.0,0.0,0.0,0.0,0.0,0.0,0.0,0.0,0.0,0.0,0.0,0.0,0.0,0.0,0.0,0.0,0.0,0.0,0.0,0.0,0.0,0.0,0.0,0.0,0.0,0.0,0.0,0.0,0.0,0.0,0.0,0.0,0.0,0.0,0.0,0.0,0.0,0.0,0.0,0.0,0.0,0.0,0.0,0.0,0.0,0.0,0.0,0.0,0.0,0.0,0.0,0.0,0.0,0.0,0.0,0.0,0.0,0.0,0.0,0.0,0.0,0.0,0.0,0.0,0.0,0.0,0.0,0.0,0.0,0.0,0.0,0.0,0.0,0.0,0.0,0.0,0.0,0.0,0.0,0.0,0.0,0.0,0.0,0.0,0.0,0.0,0.0,0.0,0.0,0.0,0.0,0.0,0.0,0.0,0.0,0.0,0.0,0.0,0.0,0.0,0.0,0.0,0.0,0.0,0.0,0.0,0.0,0.0,0.0,0.0,0.0,0.0,0.0,0.0,0.0,0.0,0.0,0.0,0.0,0.0,0.0,0.0,0.0,0.0,0.0,0.0,0.0,0.0,0.0,0.0,0.0,0.0,0.0,0.0,0.0,0.0,0.0,0.0,0.0,0.0,0.0,0.0,0.0,0.0,0.0,0.0,0.0,0.0,0.0,0.0,0.0,0.0,0.0,0.0,0.0,0.0,0.0,0.0,0.0,0.0,0.0,0.0,0.0,0.0,0.0,0.0,0.0,0.0,0.0,0.0,0.0,0.0,0.0,0.0,0.0,0.0,0.0,0.0,0.0,0.0,0.0,0.0,0.0,0.0,0.0,0.0,0.0,0.0,0.0,0.0,0.0,0.0,0.0,0.0,0.0,0.0,0.0,0.0,0.0,0.0,0.0,0.0,0.0,0.0,0.0,0.0,0.0,0.0,0.0,0.0,0.0,0.0,0.0,0.0,0.0,0.0,0.0,0.0,0.0,0.0,0.0,0.0,0.0,0.0,0.0,0.0,0.0,0.0,0.0,0.0,0.0,0.0,0.0,0.0,0.0,0.0,0.0,0.0,0.0,0.0,0.0,0.0,0.0,0.0,0.0,0.0,0.0,0.0,0.0,0.0,0.0,0.0,0.0,0.0,0.0,0.0,0.0,0.0,0.0,0.0,0.0,0.0,0.0,0.0,0.0,0.0,0.0,0.0,0.0,0.0,0.0,0.0,0.0,0.0,0.0,0.0,0.0,0.0,0.0,0.0,0.0,0.0,0.0,0.0,0.0,0.0,0.0,0.0,0.0,0.0,0.0,0.0,0.0,0.0,0.0,0.0,0.0,0.0,0.0,0.0,0.0,0.0,0.0,0.0,0.0,0.0,0.0,0.0,0.0,0.0,0.0,0.0,0.0,0.0,0.0,0.0,0.0,0.0,0.0,0.0,0.0,0.0,0.0,0.0,0.0,0.0,0.0,0.0,0.0,0.0,0.0,0.0,0.0,0.0,0.0,0.0,0.0,0.0,0.0,0.0,0.0,0.0,0.0,0.0,0.0,0.0,0.0,0.0,0.0,0.0,0.0,0.0,0.0,0.0,0.0,0.0,0.0,0.0,0.0,0.0,0.0,0.0,0.0,0.0,0.0,0.0,0.0,0.0,0.0,0.0,0.0,0.0,0.0,0.0,0.0,0.0,0.0,0.0,0.0,0.0,0.0,0.0,0.0,0.0,0.0,0.0,0.0,0.0,0.0,0.0,0.0,0.0,0.0,0.0,0.0,0.0,0.0,0.0,0.0,0.0,0.0,0.0,0.0,0.0,0.0,0.0,0.0,0.0,0.0,0.0,0.0,0.0,0.0,0.0,0.0,0.0,0.0,0.0,0.0,0.0,0.0,0.0,0.0,0.0,0.0,0.0,0.0,0.0,0.0,0.0,0.0,0.0,0.0,0.0,0.0,0.0,0.0,0.0,0.0,0.0,0.0,0.0,0.0,0.0,0.0,0.0,0.0,0.0,0.0,0.0,0.0,0.0,0.0,0.0,0.0,0.0,0.0,0.0,0.0,0.0,0.0,0.0,0.0,0.0,0.0,0.0,0.0,0.0,0.0,0.0,0.0,0.0,0.0,0.0,0.0,0.0,0.0,0.0,0.0,0.0,0.0,0.0,0.0,0.0,0.0,0.0,0.0,0.0,0.0,0.0,0.0,0.0,0.0,0.0,0.0,0.0,0.0,0.0,0.0,0.0,0.0,0.0,0.0,0.0,0.0,0.0,0.0,0.0,0.0,0.0,0.0,0.0,0.0,0.0,0.0,0.0,0.0,0.0,0.0,0.0,0.0,0.0,0.0,0.0,0.0,0.0,0.0,0.0,0.0,0.0,0.0,0.0,0.0,0.0,0.0,0.0,0.0,2.0381,0.0,0.0,0.0,2.0483,0.0,0.0,0.0,0.0,0.0,0.0,0.0,0.0,0.0,0.0,0.0,0.0,0.0,0.0,0.0,0.0,0.0,0.0,0.0,0.0,0.0,0.0,0.0,0.0,0.0,0.0,0.0,0.0,0.0,0.0,0.0,0.0,0.0,0.0,0.0,0.0,0.0,0.0,0.0,0.0,0.0,0.0,0.0,0.0,0.0,0.0,0.0,0.0,0.0,0.0,0.0,0.0,0.0,0.0,0.0,0.0,0.0,0.0,0.0,0.0,0.0,0.0,0.0,0.0,0.0,0.0,0.0,0.0,0.0,0.0,0.0,0.0,0.0,0.0,0.0,0.0,0.0,0.0,0.0,0.0,0.0,0.0,0.0,0.0,0.0,0.0,0.0,0.0,0.0,0.0,0.0,0.0,0.0,0.0,0.0,0.0,0.0,0.0,0.0,0.0,0.0,0.0,0.0,0.0,0.0,0.0,0.0,0.0,0.0,0.0,2.0456,2.0443,2.0462,2.0484,2.0488,0.0,0.0,0.0,0.0,0.0,0.0,0.0,0.0,0.0,0.0,0.0,0.0,0.0,0.0,0.0,0.0,0.0,0.0,0.0,0.0,0.0,0.0,0.0,0.0,0.0,0.0,0.0,0.0,0.0,0.0,0.0,0.0,0.0,0.0,0.0,0.0,0.0,0.0,0.0,0.0,0.0,0.0,0.0,0.0,0.0,0.0,0.0,0.0,0.0,0.0,0.0,0.0,0.0,0.0,0.0,0.0,0.0,0.0,0.0,0.0,0.0,0.0,0.0,0.0,0.0,0.0,0.0,0.0,0.0,0.0,0.0,0.0,0.0,0.0,0.0,0.0,0.0,0.0,0.0,0.0,0.0,0.0,0.0,0.0,0.0,0.0,0.0,0.0,0.0,0.0,0.0,0.0,0.0,0.0,0.0,0.0,0.0,0.0,0.0,0.0,0.0,0.0,0.0,0.0,0.0,0.0,0.0,0.0,0.0,0.0,0.0,0.0,2.0586,2.0507,2.0488,0.0,0.0,0.0,0.0,0.0,0.0,0.0,0.0,0.0,0.0,0.0,0.0,0.0,0.0,0.0,0.0,0.0,0.0,0.0,0.0,0.0,0.0,0.0,0.0,0.0,0.0,0.0,0.0,0.0,0.0,0.0,0.0,0.0,0.0,0.0,0.0,0.0,0.0,0.0,0.0,0.0,0.0,0.0,0.0,0.0,0.0,0.0,0.0,0.0,0.0,0.0,0.0,0.0,0.0,0.0,0.0,0.0,0.0,0.0,0.0,0.0,0.0,0.0,0.0,0.0,0.0,0.0,0.0,0.0,0.0,0.0,0.0,0.0,0.0,0.0,0.0,0.0,0.0,0.0,0.0,0.0,0.0,0.0,0.0,0.0,0.0,0.0,0.0,0.0,0.0,0.0,0.0,0.0,0.0,0.0,0.0,0.0,0.0,0.0,0.0,0.0,0.0,0.0,0.0,0.0,0.0,0.0,0.0,0.0,0.0,2.0839,2.1558,2.0897,0.0,2.0507,0.0,0.0,0.0,0.0,0.0,0.0,0.0,0.0,0.0,0.0,0.0,0.0,0.0,0.0,0.0,0.0,0.0,0.0,0.0,0.0,0.0,0.0,0.0,0.0,0.0,0.0,0.0,0.0,0.0,0.0,0.0,0.0,0.0,0.0,0.0,0.0,0.0,0.0,0.0,0.0,0.0,0.0,0.0,0.0,0.0,0.0,0.0,0.0,0.0,0.0,0.0,0.0,0.0,0.0,0.0,0.0,0.0,0.0,0.0,0.0,0.0,0.0,0.0,0.0,0.0,0.0,0.0,0.0,0.0,0.0,0.0,0.0,0.0,0.0,0.0,0.0,0.0,0.0,0.0,0.0,0.0,0.0,0.0,0.0,0.0,0.0,0.0,0.0,0.0,0.0,0.0,0.0,0.0,0.0,0.0,0.0,0.0,0.0,0.0,0.0,0.0,0.0,0.0,0.0,0.0,0.0,0.0,0.0,0.0,0.0,2.0896,2.1676,2.1364,2.1232,0.0,0.0,0.0,0.0,0.0,0.0,0.0,0.0,0.0,0.0,0.0,0.0,0.0,0.0,0.0,0.0,0.0,0.0,0.0,0.0,0.0,0.0,0.0,0.0,0.0,0.0,0.0,0.0,0.0,0.0,0.0,0.0,0.0,0.0,0.0,0.0,0.0,0.0,0.0,0.0,0.0,0.0,0.0,0.0,0.0,0.0,0.0,0.0,0.0,0.0,0.0,0.0,0.0,0.0,0.0,0.0,0.0,0.0,0.0,0.0,0.0,0.0,0.0,0.0,0.0,0.0,0.0,0.0,0.0,0.0,0.0,0.0,0.0,0.0,0.0,0.0,0.0,0.0,0.0,0.0,0.0,0.0,0.0,0.0,0.0,0.0,0.0,0.0,0.0,0.0,0.0,0.0,0.0,0.0,0.0,0.0,0.0,0.0,0.0,0.0,0.0,0.0,0.0,0.0,0.0,0.0,0.0,0.0,0.0,0.0,2.0507,2.0897,2.1657,2.1929,2.1975,2.1793,0.0,0.0,0.0,0.0,0.0,0.0,0.0,0.0,0.0,0.0,0.0,0.0,0.0,0.0,0.0,0.0,0.0,0.0,0.0,0.0,0.0,0.0,0.0,0.0,0.0,0.0,0.0,0.0,0.0,0.0,0.0,0.0,0.0,0.0,0.0,0.0,0.0,0.0,0.0,0.0,0.0,0.0,0.0,0.0,0.0,0.0,0.0,0.0,0.0,0.0,0.0,0.0,0.0,0.0,0.0,0.0,0.0,0.0,0.0,0.0,0.0,0.0,0.0,0.0,0.0,0.0,0.0,0.0,0.0,0.0,0.0,0.0,0.0,0.0,0.0,0.0,0.0,0.0,0.0,0.0,0.0,0.0,0.0,0.0,0.0,0.0,0.0,0.0,0.0,0.0,0.0,0.0,0.0,0.0,0.0,0.0,0.0,0.0,0.0,0.0,0.0,0.0,0.0,0.0,0.0,0.0,0.0,0.0,2.0507,2.0527,2.0916,2.1734,2.2514,2.2598,0.0,0.0,0.0,0.0,0.0,0.0,0.0,0.0,0.0,0.0,0.0,0.0,0.0,0.0,0.0,0.0,0.0,0.0,0.0,0.0,0.0,0.0,0.0,0.0,0.0,0.0,0.0,0.0,0.0,0.0,0.0,0.0,0.0,0.0,0.0,0.0,0.0,0.0,0.0,0.0,0.0,0.0,0.0,0.0,0.0,0.0,0.0,0.0,0.0,0.0,0.0,0.0,0.0,0.0,0.0,0.0,0.0,0.0,0.0,0.0,0.0,0.0,0.0,0.0,0.0,0.0,0.0,0.0,0.0,0.0,0.0,0.0,0.0,0.0,0.0,0.0,0.0,0.0,0.0,0.0,0.0,0.0,0.0,0.0,0.0,0.0,0.0,0.0,0.0,0.0,0.0,0.0,0.0,0.0,0.0,0.0,0.0,0.0,0.0,0.0,0.0,0.0,0.0,0.0,0.0,0.0,0.0,0.0,0.0,2.0547,2.1558,2.251,2.3326,2.3155,2.2873,0.0,0.0,0.0,0.0,0.0,0.0,0.0,0.0,0.0,0.0,0.0,0.0,0.0,0.0,0.0,0.0,0.0,0.0,0.0,0.0,0.0,0.0,0.0,0.0,0.0,0.0,0.0,0.0,0.0,0.0,0.0,0.0,0.0,0.0,0.0,0.0,0.0,0.0,0.0,0.0,0.0,0.0,0.0,0.0,0.0,0.0,0.0,0.0,0.0,0.0,0.0,0.0,0.0,0.0,0.0,0.0,0.0,0.0,0.0,0.0,0.0,0.0,0.0,0.0,0.0,0.0,0.0,0.0,0.0,0.0,0.0,0.0,0.0,0.0,0.0,0.0,0.0,0.0,0.0,0.0,0.0,0.0,0.0,0.0,0.0,0.0,0.0,0.0,0.0,0.0,0.0,0.0,0.0,0.0,0.0,0.0,0.0,0.0,0.0,0.0,0.0,0.0,0.0,0.0,0.0,0.0,0.0,0.0,0.0,2.0936,2.2261,2.3405,2.4218,2.3464,2.3049,0.0,0.0,0.0,0.0,0.0,0.0,0.0,0.0,0.0,0.0,0.0,0.0,0.0,0.0,0.0,0.0,0.0,0.0,0.0,0.0,0.0,0.0,0.0,0.0,0.0,0.0,0.0,0.0,0.0,0.0,0.0,0.0,0.0,0.0,0.0,0.0,0.0,0.0,0.0,0.0,0.0,0.0,0.0,0.0,0.0,0.0,0.0,0.0,0.0,0.0,0.0,0.0,0.0,0.0,0.0,0.0,0.0,0.0,0.0,0.0,0.0,0.0,0.0,0.0,0.0,0.0,0.0,0.0,0.0,0.0,0.0,0.0,0.0,0.0,0.0,0.0,0.0,0.0,0.0,0.0,0.0,0.0,0.0,0.0,0.0,0.0,0.0,0.0,0.0,0.0,0.0,0.0,0.0,0.0,0.0,0.0,0.0,0.0,0.0,0.0,0.0,0.0,0.0,0.0,0.0,0.0,0.0,0.0,2.0916,2.1714,2.259,2.3503,2.4257,2.3483,2.3049,0.0,0.0,0.0,0.0,0.0,0.0,0.0,0.0,0.0,0.0,0.0,0.0,0.0,0.0,0.0,0.0,0.0,0.0,0.0,0.0,0.0,0.0,0.0,0.0,0.0,0.0,0.0,0.0,0.0,0.0,0.0,0.0,0.0,0.0,0.0,0.0,0.0,0.0,0.0,0.0,0.0,0.0,0.0,0.0,0.0,0.0,0.0,0.0,0.0,0.0,0.0,0.0,0.0,0.0,0.0,0.0,0.0,0.0,0.0,0.0,0.0,0.0,0.0,0.0,0.0,0.0,0.0,0.0,0.0,0.0,0.0,0.0,0.0,0.0,0.0,0.0,0.0,0.0,0.0,0.0,0.0,0.0,0.0,0.0,0.0,0.0,0.0,0.0,0.0,0.0,0.0,0.0,0.0,0.0,0.0,0.0,0.0,0.0,0.0,0.0,0.0,0.0,0.0,0.0,0.0,0.0,0.0,0.0,0.0,2.2571,2.3442,2.4298,2.5093,2.3775,2.3029,0.0,0.0,0.0,0.0,0.0,0.0,0.0,0.0,0.0,0.0,0.0,0.0,0.0,0.0,0.0,0.0,0.0,0.0,0.0,0.0,0.0,0.0,0.0,0.0,0.0,0.0,0.0,0.0,0.0,0.0,0.0,0.0,0.0,0.0,0.0,0.0,0.0,0.0,0.0,0.0,0.0,0.0,0.0,0.0,0.0,0.0,0.0,0.0,0.0,0.0,0.0,0.0,0.0,0.0,0.0,0.0,0.0,0.0,0.0,0.0,0.0,0.0,0.0,0.0,0.0,0.0,0.0,0.0,0.0,0.0,0.0,0.0,0.0,0.0,0.0,0.0,0.0,0.0,0.0,0.0,0.0,0.0,0.0,0.0,0.0,0.0,0.0,0.0,0.0,0.0,0.0,0.0,0.0,0.0,0.0,0.0,0.0,0.0,0.0,0.0,0.0,0.0,0.0,0.0,0.0,0.0,0.0,0.0,0.0,2.3463,2.4006,2.4703,2.5582,2.4222,2.3377,2.3068,0.0,0.0,0.0,0.0,0.0,0.0,0.0,0.0,0.0,0.0,0.0,0.0,0.0,0.0,0.0,0.0,0.0,0.0,0.0,0.0,0.0,0.0,0.0,0.0,0.0,0.0,0.0,0.0,0.0,0.0,0.0,0.0,0.0,0.0,0.0,0.0,0.0,0.0,0.0,0.0,0.0,0.0,0.0,0.0,0.0,0.0,0.0,0.0,0.0,0.0,0.0,0.0,0.0,0.0,0.0,0.0,0.0,0.0,0.0,0.0,0.0,0.0,0.0,0.0,0.0,0.0,0.0,0.0,0.0,0.0,0.0,0.0,0.0,0.0,0.0,0.0,0.0,0.0,0.0,0.0,0.0,0.0,0.0,0.0,0.0,0.0,0.0,0.0,0.0,0.0,0.0,0.0,0.0,0.0,0.0,0.0,0.0,0.0,0.0,0.0,0.0,0.0,0.0,0.0,0.0,0.0,0.0,0.0,2.4431,2.449,2.486,2.5543,2.4744,2.3919,0.0,0.0,0.0,0.0,0.0,0.0,0.0,0.0,0.0,0.0,0.0,0.0,0.0,0.0,0.0,0.0,0.0,0.0,0.0,0.0,0.0,0.0,0.0,0.0,0.0,0.0,0.0,0.0,0.0,0.0,0.0,0.0,0.0,0.0,0.0,0.0,0.0,0.0,0.0,0.0,0.0,0.0,0.0,0.0,0.0,0.0,0.0,0.0,0.0,0.0,0.0,0.0,0.0,0.0,0.0,0.0,0.0,0.0,0.0,0.0,0.0,0.0,0.0,0.0,0.0,0.0,0.0,0.0,0.0,0.0,0.0,0.0,0.0,0.0,0.0,0.0,0.0,0.0,0.0,0.0,0.0,0.0,0.0,0.0,0.0,0.0,0.0,0.0,0.0,0.0,0.0,0.0,0.0,0.0,0.0,0.0,0.0,0.0,0.0,0.0,0.0,0.0,0.0,0.0,0.0,0.0,0.0,0.0,0.0,2.6203,2.6802,2.6608,2.564,2.4758,2.3918,0.0,0.0,0.0,0.0,0.0,0.0,0.0,0.0,0.0,0.0,0.0,0.0,0.0,0.0,0.0,0.0,0.0,0.0,0.0,0.0,0.0,0.0,0.0,0.0,0.0,0.0,0.0,0.0,0.0,0.0,0.0,0.0,0.0,0.0,0.0,0.0,0.0,0.0,0.0,0.0,0.0,0.0,0.0,0.0,0.0,0.0,0.0,0.0,0.0,0.0,0.0,0.0,0.0,0.0,0.0,0.0,0.0,0.0,0.0,0.0,0.0,0.0,0.0,0.0,0.0,0.0,0.0,0.0,0.0,0.0,0.0,0.0,0.0,0.0,0.0,0.0,0.0,0.0,0.0,0.0,0.0,0.0,0.0,0.0,0.0,0.0,0.0,0.0,0.0,0.0,0.0,0.0,0.0,0.0,0.0,0.0,0.0,0.0,0.0,0.0,0.0,0.0,0.0,0.0,0.0,0.0,0.0,0.0,2.6386,2.6906,2.7676,2.7636,2.6668,2.5829,2.4839,0.0,0.0,0.0,0.0,0.0,0.0,0.0,0.0,0.0,0.0,0.0,0.0,0.0,0.0,0.0,0.0,0.0,0.0,0.0,0.0,0.0,0.0,0.0,0.0,0.0,0.0,0.0,0.0,0.0,0.0,0.0,0.0,0.0,0.0,0.0,0.0,0.0,0.0,0.0,0.0,0.0,0.0,0.0,0.0,0.0,0.0,0.0,0.0,0.0,0.0,0.0,0.0,0.0,0.0,0.0,0.0,0.0,0.0,0.0,0.0,0.0,0.0,0.0,0.0,0.0,0.0,0.0,0.0,0.0,0.0,0.0,0.0,0.0,0.0,0.0,0.0,0.0,0.0,0.0,0.0,0.0,0.0,0.0,0.0,0.0,0.0,0.0,0.0,0.0,0.0,0.0,0.0,0.0,0.0,0.0,0.0,0.0,0.0,0.0,0.0,0.0,0.0,0.0,0.0,0.0,0.0,0.0,0.0,2.7074,2.7158,2.795,2.8335,2.8199,2.7384,2.6126,0.0,0.0,0.0,0.0,0.0,0.0,0.0,0.0,0.0,0.0,0.0,0.0,0.0,0.0,0.0,0.0,0.0,0.0,0.0,0.0,0.0,0.0,0.0,0.0,0.0,0.0,0.0,0.0,0.0,0.0,0.0,0.0,0.0,0.0,0.0,0.0,0.0,0.0,0.0,0.0,0.0,0.0,0.0,0.0,0.0,0.0,0.0,0.0,0.0,0.0,0.0,0.0,0.0,0.0,0.0,0.0,0.0,0.0,0.0,0.0,0.0,0.0,0.0,0.0,0.0,0.0,0.0,0.0,0.0,0.0,0.0,0.0,0.0,0.0,0.0,0.0,0.0,0.0,0.0,0.0,0.0,0.0,0.0,0.0,0.0,0.0,0.0,0.0,0.0,0.0,0.0,0.0,0.0,0.0,0.0,0.0,0.0,0.0,0.0,0.0,0.0,0.0,0.0,0.0,0.0,0.0,0.0,0.0,2.8241,2.8864,2.97,2.9816,2.9135,2.7665,2.641,0.0,0.0,0.0,0.0,0.0,0.0,0.0,0.0,0.0,0.0,0.0,0.0,0.0,0.0,0.0,0.0,0.0,0.0,0.0,0.0,0.0,0.0,0.0,0.0,0.0,0.0,0.0,0.0,0.0,0.0,0.0,0.0,0.0,0.0,0.0,0.0,0.0,0.0,0.0,0.0,0.0,0.0,0.0,0.0,0.0,0.0,0.0,0.0,2.1478,0.0,0.0,0.0,0.0,0.0,0.0,0.0,0.0,0.0,0.0,0.0,0.0,0.0,0.0,0.0,0.0,0.0,0.0,0.0,0.0,0.0,0.0,0.0,0.0,0.0,0.0,0.0,0.0,0.0,0.0,0.0,0.0,0.0,0.0,0.0,0.0,0.0,0.0,0.0,0.0,0.0,0.0,0.0,0.0,0.0,0.0,0.0,0.0,0.0,0.0,0.0,0.0,0.0,0.0,0.0,0.0,0.0,0.0,0.0,2.8597,2.9387,3.0243,3.0462,2.9983,2.8378,2.7083,0.0,0.0,0.0,0.0,0.0,0.0,0.0,0.0,0.0,0.0,0.0,0.0,0.0,0.0,0.0,0.0,0.0,0.0,0.0,0.0,0.0,0.0,0.0,0.0,0.0,0.0,0.0,0.0,0.0,0.0,0.0,0.0,0.0,0.0,0.0,0.0,0.0,0.0,0.0,0.0,0.0,0.0,0.0,0.0,0.0,0.0,0.0,0.0,0.0,0.0,0.0,0.0,0.0,0.0,0.0,0.0,0.0,0.0,0.0,0.0,0.0,0.0,0.0,0.0,0.0,0.0,0.0,0.0,0.0,0.0,0.0,0.0,0.0,0.0,0.0,0.0,0.0,0.0,0.0,0.0,0.0,0.0,0.0,0.0,0.0,0.0,0.0,0.0,0.0,0.0,0.0,0.0,0.0,0.0,0.0,0.0,0.0,0.0,0.0,0.0,0.0,0.0,0.0,0.0,0.0,0.0,0.0,2.7451,2.8662,2.9585,3.0323,3.0699,3.0675,2.907,2.7854,2.71,0.0,0.0,0.0,0.0,0.0,0.0,0.0,0.0,0.0,0.0,0.0,0.0,0.0,0.0,0.0,0.0,0.0,0.0,0.0,0.0,0.0,0.0,0.0,0.0,0.0,0.0,0.0,0.0,0.0,0.0,0.0,0.0,0.0,0.0,0.0,0.0,0.0,0.0,2.1047,2.2538,0.0,0.0,0.0,0.0,0.0,0.0,0.0,0.0,2.3795,0.0,0.0,0.0,0.0,0.0,0.0,0.0,0.0,0.0,0.0,0.0,0.0,0.0,0.0,0.0,0.0,0.0,0.0,0.0,0.0,0.0,0.0,0.0,0.0,0.0,0.0,0.0,0.0,0.0,0.0,0.0,0.0,0.0,0.0,0.0,0.0,0.0,0.0,0.0,0.0,0.0,0.0,0.0,0.0,0.0,0.0,0.0,0.0,0.0,0.0,0.0,0.0,0.0,0.0,0.0,0.0,2.7742,2.8054,2.8954,3.0441,3.0614,3.0699,3.0654,2.9077,2.8144,2.7864,0.0,0.0,0.0,0.0,0.0,0.0,0.0,0.0,0.0,0.0,0.0,0.0,0.0,0.0,0.0,0.0,0.0,0.0,0.0,0.0,0.0,0.0,0.0,0.0,0.0,0.0,0.0,0.0,0.0,0.0,0.0,0.0,0.0,0.0,0.0,0.0,0.0,0.0,0.0,2.4215,2.4968,0.0,0.0,0.0,0.0,0.0,0.0,0.0,0.0,2.3728,0.0,0.0,0.0,0.0,0.0,0.0,0.0,0.0,0.0,0.0,0.0,0.0,0.0,0.0,0.0,0.0,0.0,0.0,0.0,0.0,0.0,0.0,0.0,0.0,0.0,0.0,0.0,0.0,0.0,0.0,0.0,0.0,0.0,0.0,0.0,0.0,0.0,0.0,0.0,0.0,0.0,0.0,0.0,0.0,0.0,0.0,0.0,0.0,0.0,0.0,0.0,0.0,0.0,0.0,0.0,2.8017,2.819,2.9012,3.0635,3.0692,3.0706,3.0668,2.9064,2.8227,0.0,0.0,0.0,0.0,0.0,0.0,0.0,0.0,0.0,0.0,0.0,0.0,0.0,0.0,0.0,0.0,0.0,0.0,0.0,0.0,0.0,0.0,0.0,0.0,0.0,0.0,0.0,0.0,0.0,0.0,0.0,0.0,0.0,0.0,0.0,0.0,0.0,0.0,0.0,0.0,2.4914,2.563,2.5563,0.0,0.0,0.0,0.0,0.0,0.0,2.4776,2.4477,0.0,0.0,0.0,0.0,0.0,0.0,0.0,0.0,0.0,0.0,0.0,0.0,0.0,0.0,0.0,0.0,0.0,0.0,0.0,0.0,0.0,0.0,0.0,0.0,0.0,0.0,0.0,0.0,0.0,0.0,0.0,0.0,0.0,0.0,0.0,0.0,0.0,0.0,0.0,0.0,0.0,0.0,0.0,0.0,0.0,0.0,0.0,0.0,0.0,0.0,0.0,0.0,0.0,0.0,0.0,2.8055,2.819,2.9014,3.0618,3.0692,3.0709,3.0681,2.9248,2.8409,0.0,0.0,0.0,0.0,0.0,0.0,0.0,0.0,0.0,0.0,0.0,0.0,0.0,0.0,0.0,0.0,0.0,0.0,0.0,0.0,0.0,0.0,0.0,0.0,0.0,0.0,0.0,0.0,0.0,0.0,0.0,0.0,0.0,0.0,0.0,0.0,0.0,0.0,0.0,0.0,0.0,2.614,2.6664,2.6809,0.0,0.0,0.0,0.0,2.6436,2.5827,0.0,0.0,0.0,0.0,0.0,0.0,0.0,0.0,0.0,0.0,0.0,0.0,0.0,0.0,0.0,0.0,0.0,0.0,0.0,0.0,0.0,0.0,0.0,0.0,0.0,0.0,0.0,0.0,0.0,0.0,0.0,0.0,0.0,0.0,0.0,0.0,0.0,0.0,0.0,0.0,0.0,0.0,0.0,0.0,0.0,0.0,0.0,0.0,0.0,0.0,0.0,0.0,0.0,0.0,0.0,0.0,2.8054,2.819,2.9011,3.0598,3.0692,3.0709,3.0682,2.9826,2.9006,0.0,0.0,0.0,0.0,0.0,0.0,0.0,0.0,0.0,0.0,0.0,0.0,0.0,0.0,0.0,0.0,0.0,0.0,0.0,0.0,0.0,0.0,0.0,0.0,0.0,0.0,0.0,0.0,0.0,0.0,0.0,0.0,0.0,0.0,0.0,0.0,0.0,0.0,0.0,0.0,0.0,2.6837,2.6778,2.734,2.7503,0.0,0.0,2.6493,2.6493,2.6397,0.0,0.0,0.0,0.0,0.0,0.0,0.0,0.0,0.0,0.0,0.0,0.0,0.0,0.0,0.0,0.0,0.0,0.0,0.0,0.0,0.0,0.0,0.0,0.0,0.0,0.0,0.0,0.0,0.0,0.0,0.0,0.0,0.0,0.0,0.0,0.0,0.0,0.0,0.0,0.0,0.0,0.0,0.0,0.0,0.0,0.0,0.0,0.0,0.0,0.0,0.0,0.0,0.0,0.0,0.0,2.5278,2.8094,2.8678,2.95,3.0655,3.0692,3.0709,3.0701,2.9905,2.9087,0.0,0.0,0.0,0.0,0.0,0.0,0.0,0.0,0.0,0.0,0.0,0.0,0.0,0.0,0.0,0.0,0.0,0.0,0.0,0.0,0.0,0.0,0.0,0.0,0.0,0.0,0.0,0.0,0.0,0.0,0.0,0.0,0.0,0.0,0.0,0.0,0.0,0.0,0.0,0.0,0.0,0.0,2.8856,2.923,0.0,0.0,0.0,2.9229,2.8787,0.0,0.0,0.0,0.0,0.0,0.0,0.0,0.0,0.0,0.0,0.0,0.0,0.0,0.0,0.0,0.0,0.0,0.0,0.0,0.0,0.0,0.0,0.0,0.0,0.0,0.0,0.0,0.0,0.0,0.0,0.0,0.0,0.0,0.0,0.0,0.0,0.0,0.0,0.0,0.0,0.0,0.0,0.0,0.0,0.0,0.0,0.0,0.0,0.0,0.0,0.0,0.0,0.0,0.0,0.0,0.0,0.0,2.8153,2.9048,3.0006,3.0983,3.104,3.1038,3.1013,3.0451,0.0,0.0,0.0,0.0,0.0,0.0,0.0,0.0,0.0,0.0,0.0,0.0,0.0,0.0,0.0,0.0,0.0,0.0,0.0,0.0,0.0,0.0,0.0,0.0,0.0,0.0,0.0,1.8865,0.0,0.0,0.0,0.0,0.0,0.0,0.0,0.0,0.0,0.0,0.0,0.0,0.0,0.0,2.9171,3.0458,3.078,3.1106,0.0,0.0,3.1457,3.0853,2.9985,2.9102,0.0,0.0,0.0,0.0,0.0,0.0,0.0,0.0,0.0,0.0,0.0,0.0,0.0,0.0,0.0,0.0,0.0,0.0,0.0,0.0,0.0,0.0,0.0,0.0,0.0,0.0,0.0,0.0,0.0,0.0,0.0,0.0,0.0,0.0,0.0,0.0,0.0,0.0,0.0,0.0,0.0,0.0,0.0,0.0,0.0,0.0,0.0,0.0,0.0,0.0,0.0,0.0,0.0,0.0,2.5648,2.8133,2.9048,3.0315,3.1834,3.191,3.1911,3.1908,3.1931,3.0762,0.0,0.0,0.0,0.0,0.0,0.0,0.0,0.0,0.0,0.0,0.0,0.0,0.0,0.0,0.0,0.0,0.0,0.0,0.0,0.0,0.0,0.0,0.0,0.0,0.0,0.0,0.0,0.0,0.0,0.0,0.0,0.0,0.0,0.0,0.0,0.0,0.0,0.0,0.0,0.0,0.0,2.9826,3.057,3.1331,3.1843,0.0,3.1928,3.1831,3.1714,3.1034,3.0128,2.9092,0.0,0.0,0.0,0.0,0.0,0.0,0.0,0.0,0.0,0.0,0.0,0.0,0.0,0.0,0.0,0.0,0.0,0.0,0.0,0.0,0.0,0.0,0.0,0.0,0.0,0.0,0.0,0.0,0.0,0.0,0.0,0.0,0.0,0.0,0.0,0.0,0.0,0.0,0.0,0.0,0.0,0.0,0.0,0.0,0.0,0.0,0.0,0.0,0.0,0.0,0.0,0.0,0.0,2.6679,2.819,3.0059,3.1347,3.199,3.2512,3.2806,3.2804,3.2339,3.1384,0.0,0.0,0.0,0.0,0.0,0.0,0.0,0.0,0.0,0.0,0.0,0.0,0.0,0.0,0.0,0.0,0.0,0.0,0.0,0.0,0.0,0.0,0.0,0.0,0.0,0.0,0.0,0.0,2.1999,2.2315,2.3152,0.0,0.0,0.0,0.0,0.0,0.0,0.0,0.0,0.0,0.0,3.0979,3.2204,3.2622,0.0,0.0,3.3441,3.3256,3.2749,3.2322,3.1767,3.0802,2.9876,0.0,0.0,0.0,0.0,0.0,0.0,0.0,0.0,0.0,0.0,0.0,0.0,0.0,0.0,0.0,0.0,0.0,0.0,0.0,0.0,0.0,0.0,0.0,0.0,0.0,0.0,0.0,0.0,0.0,0.0,0.0,0.0,0.0,0.0,0.0,0.0,0.0,0.0,0.0,0.0,0.0,0.0,0.0,0.0,0.0,0.0,0.0,0.0,0.0,0.0,0.0,0.0,2.7453,2.8579,3.0833,3.2256,3.2749,3.3351,3.3663,3.366,3.3149,3.2193,0.0,0.0,0.0,0.0,0.0,0.0,0.0,0.0,0.0,0.0,0.0,0.0,0.0,0.0,0.0,0.0,0.0,0.0,0.0,0.0,0.0,0.0,0.0,0.0,0.0,0.0,0.0,0.0,2.3108,2.3449,2.4009,0.0,0.0,0.0,0.0,0.0,0.0,0.0,0.0,0.0,0.0,3.2293,3.3631,3.4035,3.4417,3.5124,3.5019,3.4634,3.4057,3.3474,3.2862,3.2201,0.0,0.0,0.0,0.0,0.0,0.0,0.0,0.0,0.0,0.0,0.0,0.0,0.0,0.0,0.0,0.0,0.0,0.0,0.0,0.0,0.0,0.0,0.0,0.0,0.0,0.0,0.0,1.8939,0.0,0.0,1.7889,0.0,0.0,0.0,0.0,0.0,0.0,0.0,0.0,0.0,0.0,0.0,0.0,0.0,0.0,0.0,0.0,0.0,0.0,0.0,0.0,0.0,0.0,2.7755,2.9456,3.1172,3.2806,3.4346,3.4461,3.4519,3.4577,3.455,3.336,3.0874,0.0,0.0,0.0,0.0,0.0,0.0,0.0,0.0,0.0,0.0,0.0,0.0,0.0,0.0,0.0,0.0,0.0,0.0,0.0,0.0,0.0,0.0,0.0,0.0,0.0,0.0,2.3597,2.4431,2.4914,0.0,0.0,0.0,0.0,0.0,0.0,0.0,0.0,0.0,2.9886,3.193,3.377,3.4675,3.5454,3.6187,3.6989,3.6405,3.584,3.5735,3.4407,3.3229,0.0,0.0,0.0,0.0,0.0,0.0,0.0,0.0,0.0,0.0,0.0,0.0,0.0,0.0,0.0,0.0,0.0,0.0,0.0,0.0,0.0,0.0,0.0,0.0,0.0,0.0,0.0,2.1354,2.1362,0.0,0.0,0.0,0.0,0.0,0.0,0.0,0.0,0.0,0.0,0.0,2.6677,2.6948,0.0,0.0,0.0,0.0,0.0,0.0,0.0,0.0,0.0,0.0,0.0,0.0,2.8615,3.0294,3.1989,3.3411,3.4462,3.5059,3.5364,3.5389,3.4872,3.3405,3.0885,0.0,0.0,0.0,0.0,0.0,0.0,0.0,0.0,0.0,0.0,0.0,0.0,0.0,0.0,0.0,0.0,0.0,0.0,0.0,0.0,0.0,0.0,0.0,0.0,0.0,2.3685,0.0,0.0,0.0,0.0,0.0,0.0,0.0,0.0,0.0,0.0,0.0,3.0734,3.2901,3.3914,3.494,3.6333,3.6768,3.7011,0.0,0.0,0.0,0.0,0.0,0.0,0.0,0.0,0.0,0.0,0.0,0.0,0.0,0.0,3.1219,3.0235,3.0045,3.0075,3.0279,0.0,0.0,0.0,0.0,0.0,0.0,0.0,0.0,0.0,0.0,0.0,0.0,0.0,0.0,2.3884,0.0,2.3688,0.0,0.0,0.0,0.0,0.0,0.0,0.0,0.0,2.7218,2.8189,2.8761,2.9349,2.9671,0.0,2.9488,2.8543,0.0,0.0,0.0,0.0,0.0,0.0,0.0,0.0,2.9758,3.1146,3.2838,3.4105,3.4925,3.5505,3.5805,3.5788,3.5031,3.3837,3.2209,3.1285,2.9765,0.0,0.0,0.0,0.0,0.0,0.0,0.0,0.0,0.0,0.0,0.0,0.0,0.0,0.0,0.0,0.0,0.0,0.0,0.0,0.0,0.0,0.0,0.0,2.5339,0.0,0.0,0.0,0.0,0.0,0.0,0.0,0.0,0.0,3.0431,3.1138,3.2497,3.4605,3.5401,3.6281,3.7657,0.0,0.0,0.0,0.0,0.0,0.0,0.0,3.7033,3.6956,3.6434,3.6006,3.5926,3.5448,3.507,3.5064,0.0,0.0,3.298,3.267,3.2729,3.2965,3.3401,3.3764,3.3753,3.4174,3.454,0.0,0.0,0.0,0.0,0.0,0.0,0.0,0.0,2.6527,2.6265,0.0,2.5528,0.0,0.0,0.0,0.0,2.4243,2.5941,0.0,0.0,2.9205,3.0366,3.0478,3.2035,3.2862,3.2836,3.2124,3.1799,3.1724,2.9494,0.0,0.0,0.0,0.0,0.0,0.0,3.1186,3.2112,3.3718,3.4964,3.5797,3.5892,3.5885,3.5846,3.5116,3.4694,3.4591,3.2288,3.0915,3.0779,2.7665,0.0,0.0,0.0,0.0,0.0,0.0,0.0,0.0,0.0,0.0,0.0,0.0,0.0,0.0,0.0,0.0,0.0,0.0,0.0,0.0,2.6686,0.0,0.0,0.0,0.0,0.0,0.0,0.0,0.0,0.0,0.0,3.1701,3.3449,3.4965,3.504,0.0,0.0,0.0,0.0,3.9085,3.9777,3.921,3.8704,3.8567,3.7917,3.7369,3.7252,0.0,0.0,3.7094,3.7075,3.7106,3.7057,3.7125,3.6721,3.5728,3.5381,3.5475,3.6168,3.6315,3.6427,3.6419,3.653,3.6585,2.9729,0.0,0.0,0.0,0.0,2.7314,2.7345,2.7396,2.7157,2.7095,2.7165,2.6978,0.0,0.0,0.0,0.0,0.0,0.0,2.912,2.9171,3.1049,3.1947,3.1962,3.2515,3.2798,3.2894,3.2736,3.2679,3.2721,3.2102,3.0881,2.9171,0.0,0.0,0.0,0.0,3.2373,3.3828,3.4896,3.5838,3.671,3.7333,3.7352,3.6742,3.6554,3.5893,3.4747,3.3979,3.2999,3.1777,3.0193,0.0,0.0,0.0,0.0,0.0,0.0,0.0,0.0,0.0,0.0,0.0,0.0,0.0,0.0,0.0,0.0,0.0,0.0,0.0,2.6989,2.7488,2.7968,0.0,0.0,0.0,0.0,0.0,0.0,0.0,0.0,0.0,3.5609,3.5747,3.6258,0.0,0.0,3.9508,4.0366,4.0972,4.1402,4.1626,4.1408,0.0,4.1187,4.095,4.074,4.0672,4.0559,4.0474,4.0396,4.0408,4.0402,4.0364,4.039,4.0288,3.9915,3.8372,3.731,3.738,3.8217,3.8969,3.9025,3.9486,3.9907,3.1214,2.9889,2.9395,2.9202,2.921,2.9238,2.9249,2.9307,2.9366,2.94,2.9448,2.9509,2.9383,2.9117,2.9135,0.0,0.0,0.0,3.1142,3.1146,3.2472,3.3097,3.3137,3.3504,3.3926,3.437,3.4432,3.4497,3.4599,3.4311,3.3441,3.2008,0.0,0.0,3.173,3.2608,3.3686,3.5045,3.5883,3.6748,3.7607,3.8121,3.8161,3.7644,3.7683,3.7074,3.575,3.5374,3.4572,3.3182,3.1972,3.0676,0.0,0.0,0.0,0.0,0.0,0.0,0.0,0.0,0.0,0.0,0.0,2.2506,2.3196,0.0,0.0,0.0,2.7047,2.7967,2.9329,2.9704,0.0,0.0,0.0,0.0,0.0,0.0,0.0,3.5505,3.6167,3.7067,3.8332,3.8397,3.849,3.9107,4.0171,4.1091,4.1645,0.0,4.2447,4.2441,4.2399,4.2365,4.2293,4.2276,4.2202,4.2153,4.2051,4.1966,4.1932,4.1899,4.1879,4.1872,4.1872,4.1865,4.1844,4.0797,3.9851,3.9442,4.0083,4.0729,4.073,4.1156,4.1501,3.2227,3.229,3.2291,3.2203,3.2105,3.2163,3.2183,3.2212,3.2312,3.2391,3.2402,3.2469,3.2089,3.14,3.14,0.0,3.1438,3.2298,3.2727,3.2818,3.3614,3.4063,3.4223,3.5024,3.584,3.6696,3.6776,3.6871,3.6924,3.6181,3.5852,3.5952,3.4456,3.3667,3.3647,3.4469,3.5278,3.6017,3.6873,3.7724,3.8583,3.8602,3.8562,3.8523,3.8544,3.8179,3.733,3.659,3.5793,3.4914,3.3301,3.2025,3.1128,0.0,0.0,0.0,0.0,0.0,0.0,0.0,0.0,0.0,0.0,0.0,0.0,0.0,0.0,0.0,2.974,0.0,3.1929,3.2687,0.0,0.0,0.0,3.428,3.4208,3.5586,3.6571,3.6699,0.0,0.0,4.0194,4.1064,4.127,4.0331,4.1546,4.2542,4.2598,4.2699,4.2704,4.2799,4.2737,4.2678,4.2749,4.267,4.2653,4.258,4.236,4.2403,4.2397,4.2352,4.2249,4.2311,4.2217,4.2235,4.2118,4.2779,4.3121,4.2254,4.2065,4.1999,4.1959,4.2012,4.2046,3.3837,3.3859,3.3963,3.3274,3.211,3.2101,3.2139,3.2188,3.2298,3.2354,3.2405,3.2416,3.2351,3.2222,3.2285,3.2262,3.226,3.3115,3.382,3.4391,3.5244,3.6017,3.6705,3.6933,3.7201,3.7506,3.7598,3.7643,3.7722,3.7632,3.7627,3.7674,3.73,3.68,3.6258,3.7052,3.7594,3.7771,3.8637,3.9498,4.0358,4.0375,4.0064,3.9402,3.9408,3.9036,3.8227,3.8028,3.7524,3.6706,3.5643,3.4686,3.3795,3.1487,0.0,0.0,0.0,0.0,0.0,0.0,0.0,0.0,0.0,2.5416,2.6437,0.0,2.8898,0.0,3.1547,3.2899,3.3781,3.3979,0.0,0.0,3.6061,3.6368,3.6903,3.7306,3.7998,3.9257,3.9707,4.0501,4.1898,4.2806,4.3218,4.2982,4.3281,4.3547,4.3583,4.4115,4.4477,4.4471,4.4458,4.4465,4.4431,4.433,4.4246,4.4191,4.4127,4.4101,4.4076,4.4063,4.4055,4.4002,4.3989,4.3943,4.3881,4.4536,4.4993,4.4766,4.4211,4.3702,4.3673,4.3691,4.3669,3.4392,3.4403,3.4545,3.4057,3.3193,3.3217,3.3247,3.3272,3.3353,3.3426,3.3478,3.3492,3.3538,3.3603,3.4019,3.419,3.421,3.5026,3.5619,3.605,3.6505,3.7023,3.7547,3.759,3.786,3.8344,3.839,3.8451,3.8533,3.8665,3.8767,3.8831,3.8873,3.8865,3.8791,3.8533,3.8585,3.8985,3.9846,4.0518,4.098,4.098,4.0763,4.0287,4.0294,3.9916,3.9114,3.9076,3.8691,3.7873,3.7048,3.6171,3.5302,3.3542,3.2188,0.0,0.0,0.0,0.0,0.0,0.0,0.0,0.0,0.0,0.0,0.0,3.122,3.2784,3.4151,3.5273,3.6103,3.6197,3.652,3.7392,3.7788,3.8296,3.901,3.9423,4.0106,4.1344,4.1471,4.1919,4.3167,4.3696,4.4133,4.4472,4.4824,4.4914,4.4644,4.5186,4.5719,4.5713,4.6037,4.6241,4.6218,4.613,4.6044,4.6007,4.5924,4.5871,4.5852,4.5833,4.5792,4.5752,4.5752,4.5738,4.5728,4.6013,4.6318,4.6247,4.5887,4.5536,4.5473,4.5447,4.5432,3.461,3.4739,3.4866,3.4902,3.4907,3.4926,3.487,3.4781,3.503,3.5124,3.5145,3.5196,3.5211,3.5268,3.5993,3.6353,3.6391,3.7073,3.7452,3.7571,3.7566,3.7672,3.7812,3.7875,3.8328,3.9155,3.9206,3.9275,3.935,3.9471,3.9573,3.9655,3.9852,4.0316,4.0982,3.9711,3.933,3.9857,4.0599,4.0978,4.098,4.102,4.1011,4.1013,4.1064,4.0739,4.0,3.997,3.9564,3.8706,3.8004,3.7226,3.6378,3.5501,3.4305,0.0,3.2473,0.0,0.0,0.0,0.0,0.0,0.0,0.0,0.0,3.2541,3.3638,3.5951,3.6822,3.7593,3.8408,3.8635,3.8733,3.8741,3.9475,4.0262,4.0905,4.1578,4.2281,4.3082,4.3115,4.3392,4.4149,4.4255,4.4565,4.5352,4.6006,4.62,4.5789,4.6205,4.6671,4.6658,4.7262,4.7487,4.746,4.747,4.7434,4.7447,4.7302,4.7325,4.723,4.7177,4.7186,4.7154,4.7097,4.7128,4.7197,4.7198,4.725,4.7262,4.7291,4.7203,4.6892,4.6776,4.6866,3.5776,3.6428,3.6518,3.6583,3.6622,3.6635,3.6259,3.5715,3.6494,3.6865,3.6915,3.6917,3.6922,3.6941,3.7097,3.7168,3.7192,3.732,3.7799,3.8462,3.8462,3.8829,3.9502,3.9532,3.9688,3.9962,4.0,4.0038,4.0183,4.0239,4.0339,4.0481,4.124,4.1732,4.1952,0.0,0.0,0.0,4.0908,4.0983,4.1002,4.1037,4.1085,4.1085,4.1088,0.0,4.0857,4.0846,4.0457,3.9612,3.9464,0.0,0.0,0.0,0.0,0.0,0.0,0.0,0.0,0.0,0.0,0.0,3.5917,3.527,3.4262,3.5389,3.6692,3.778,3.8056,3.8501,3.9346,4.0092,4.0773,4.14,4.2144,4.2691,4.2802,4.2867,4.3246,4.3959,4.4049,4.4317,4.5021,4.5156,4.5481,4.6305,4.6573,4.6864,4.7334,4.7447,4.7548,4.7586,4.781,4.7806,4.7678,4.7737,4.7797,4.7596,4.7529,4.7505,4.7549,4.7479,4.7376,4.7374,4.7278,4.7322,4.7267,4.7704,4.8162,4.8136,4.8632,4.8671,4.7305,4.7001,4.6941,3.6472,3.6889,3.6968,3.704,0.0,3.7518,3.7455,3.7104,3.7229,3.7324,3.739,3.7395,3.7395,3.7433,3.7831,3.8045,3.8064,3.8457,3.8869,3.9286,3.9304,3.9524,3.9949,3.9986,4.0038,4.0157,4.0187,4.048,4.1021,4.1111,4.142,4.194,4.2434,4.2729,4.2807,4.327,4.3094,4.2306,4.2276,4.2295,4.2284,4.2331,4.2336,4.2317,4.1908,0.0,0.0,0.0,0.0,0.0,0.0,0.0,0.0,0.0,0.0,3.7254,3.6785,3.6516,3.653,3.654,3.6906,3.7782,3.8632,3.8387,3.6675,3.7732,3.8828,3.9664,4.0073,4.0671,4.1536,4.2027,4.2432,4.2813,4.3174,4.3549,4.3908,4.3934,4.4197,4.4878,4.5018,4.5267,4.6003,4.6105,4.6446,4.7227,4.7701,4.806,4.8456,4.8493,4.8559,4.8945,4.9035,4.903,4.8982,4.8941,4.8904,4.8893,4.8833,4.8789,4.8777,4.8726,4.8674,4.8642,4.8608,4.8568,4.8579,4.8852,4.9082,4.9112,4.939,4.9408,4.849,4.8284,4.8217,3.7106,3.7318,3.738,3.7472,3.7575,3.8257,3.8544,3.8493,0.0,0.0,0.0,3.784,3.7845,3.7907,3.859,3.8917,3.895,3.9583,3.9895,3.9895,3.9895,3.9976,4.0114,4.0182,4.0335,4.0554,4.0577,4.1065,4.1892,4.1965,4.2402,4.3138,4.3399,4.3628,4.3862,4.3911,4.3976,4.4025,4.3736,4.3619,4.3619,4.3619,4.3619,4.3619,4.2919,4.2529,4.251,4.1894,4.1487,4.1325,4.0709,4.0271,4.0098,3.9369,3.889,3.877,3.8735,3.8723,3.8743,3.8876,3.9089,3.9401,4.0714,4.0871,3.9283,3.9973,4.0758,4.1479,4.214,4.2817,4.3525,4.3736,4.3791,4.373,4.3799,4.4178,4.4803,4.486,4.5135,4.585,4.5978,4.6221,4.6931,4.7044,4.7343,4.811,4.8739,4.9323,4.9404,4.94,4.9546,5.0031,5.0077,5.0218,5.0258,5.0165,5.0212,5.0072,5.0075,5.012,5.0108,5.005,5.0031,4.9866,4.9959,4.9888,4.9906,4.9795,4.9841,4.9809,4.9771,4.9714,4.9707,4.9623,4.9461,3.8195,3.89,3.9024,3.9095,3.9177,3.9339,3.9451,3.9499,3.9389,3.9401,3.9455,3.9524,3.9564,3.9559,3.9678,3.973,3.973,3.9862,3.9895,3.9895,3.9895,4.0298,4.0986,4.1029,4.1461,4.221,4.2269,4.242,4.2707,4.2739,4.2906,4.3265,4.3958,4.4766,4.5575,4.5653,4.5683,4.5735,4.4331,4.3619,4.3619,4.3619,4.3619,4.3599,4.3504,4.3406,4.3406,4.3289,4.2937,4.225,4.2116,4.1706,4.0994,4.0801,4.0428,3.9778,3.9651,3.9622,3.964,4.0308,4.1391,4.2816,4.3154,4.2824,4.1908,4.2567,4.3135,4.3252,4.3367,4.3463,4.3615,4.4248,4.4634,4.4667,4.5227,4.5672,4.574,4.5722,4.6037,4.6823,4.6901,4.7186,4.7868,4.8015,4.8296,4.9005,4.938,4.9625,5.0151,5.0335,5.0314,5.0369,5.0371,5.0373,5.0325,5.0296,5.029,5.029,5.0218,5.0194,5.0194,5.012,5.0089,5.0089,5.007,5.0044,5.0005,4.9985,4.9945,4.9905,4.9848,4.98,4.9792,4.9714,4.966,3.8808,3.9192,3.9346,3.9444,3.9501,3.9558,3.962,3.9638,3.9668,3.9731,3.9804,3.9859,3.9895,3.9895,3.9895,3.9895,3.9895,3.9895,4.0146,4.0588,4.062,4.1042,4.1787,4.1891,4.2148,4.2577,4.2652,4.2955,4.3489,4.3584,4.3924,4.4498,4.4993,4.5466,4.5907,4.5989,4.6025,4.6078,4.5332,4.499,4.5011,4.5002,4.5005,4.5007,4.4577,4.4304,4.4306,4.3853,4.344,4.3124,4.3106,4.2909,4.255,4.2499,4.2344,4.1991,4.1927,4.192,4.1915,4.2275,4.2851,4.3644,4.4107,4.4191,4.3737,4.3627,4.3796,4.4246,4.4304,4.4501,4.4947,4.5303,4.5512,4.5492,4.5828,4.6164,4.6575,4.6622,4.6949,4.7671,4.7801,4.8048,4.888,4.8932,4.9206,4.9927,5.011,5.0274,5.0596,5.0633,5.0563,5.0478,5.0438,5.0432,5.0404,5.0371,5.0348,5.0367,5.0296,5.0248,5.0255,5.0188,5.0145,5.0158,5.0114,5.0089,5.0057,5.0038,5.0012,4.9978,4.9939,4.9898,4.9857,4.9795,4.9736,3.9135,3.9183,3.9308,3.9418,3.9501,3.9577,3.9614,3.962,3.9675,3.9728,3.9783,3.985,3.9889,3.9895,3.9895,3.9895,3.9919,4.0108,4.0563,4.1175,4.1383,4.1895,4.2646,4.276,4.2916,4.3153,4.3226,4.3652,4.4335,4.4451,4.4852,4.5571,4.575,4.5827,4.5899,4.5952,4.6011,4.6081,4.6073,4.6119,4.6181,4.6201,4.6212,4.6153,4.5553,4.5186,4.5166,4.4553,4.412,4.3981,4.3979,4.3896,4.3733,4.3706,4.371,4.3711,4.371,4.3803,4.3971,4.4004,4.4074,4.4299,4.49,4.526,4.5164,4.4596,4.4446,4.5069,4.5184,4.5477,4.596,4.6103,4.6173,4.6327,4.6324,4.6685,4.743,4.7542,4.7837,4.8588,4.8689,4.8937,4.9648,4.9851,5.0045,5.0517,5.0697,5.0688,5.0683,5.0697,5.0653,5.0593,5.0532,5.0492,5.0505,5.0462,5.041,5.0429,5.0359,5.0331,5.0314,5.0253,5.0218,5.0206,5.0169,5.0151,5.0133,5.0126,5.0101,5.0044,5.0018,5.0081,5.0261,5.0251,5.001,3.9108,3.9122,3.9202,3.9334,3.9501,3.9577,3.9608,3.962,3.9669,3.9699,3.9767,3.9777,3.985,3.9895,3.9895,3.9932,4.0014,4.0739,4.1156,4.1327,4.1946,4.2748,4.3536,4.3639,4.41,4.4747,4.4846,4.4932,4.5187,4.5247,4.5426,4.568,4.575,4.5828,4.59,4.5899,4.5952,4.6006,4.6075,4.6114,4.6119,4.6179,4.6211,4.6211,4.613,4.6081,4.6022,4.6004,4.5571,4.4874,4.4782,4.4468,4.3847,4.3736,4.3722,4.3748,4.375,4.4022,4.4791,4.4886,4.5194,4.5948,4.6056,4.6128,4.6124,4.6024,4.5961,4.6066,4.6081,4.6082,4.6176,4.6179,4.6504,4.7198,4.7213,4.7517,4.829,4.8478,4.8758,4.9489,4.9569,4.9888,5.0538,5.0668,5.072,5.0758,5.0729,5.0711,5.0711,5.0697,5.0755,5.0726,5.0672,5.0616,5.0598,5.05,5.0648,5.0604,5.0498,5.0598,5.0677,5.0566,5.0328,5.0774,5.0488,5.0497,5.041,5.0201,5.0271,5.0457,5.0431,5.0374,5.0949,5.115,5.088,3.9071,3.9101,3.917,3.9321,3.9514,3.9533,3.9571,3.9614,3.9639,3.992,4.039,4.0438,4.0232,3.9894,4.0419,4.0677,4.0734,4.1535,4.2198,4.2672,4.3032,4.3625,4.4357,4.4528,4.4781,4.5095,4.5222,4.5291,4.5343,4.538,4.5513,4.5694,4.5731,4.5772,4.5824,4.5903,4.5925,4.5994,4.6019,4.6046,4.6056,4.6165,4.6207,4.6211,4.6208,4.6197,4.6197,4.6197,4.6034,4.5705,4.5674,4.5553,4.5241,4.5233,4.524,4.5246,4.5233,4.539,4.5756,4.577,4.592,4.6288,4.63,4.6292,4.6324,4.6698,4.6971,4.6918,4.6516,4.6392,4.6856,4.6919,4.722,4.7971,4.8107,4.8419,4.9248,4.9322,4.9627,5.0381,5.0476,5.0572,5.0883,5.0932,5.0876,5.0855,5.0797,5.077,5.0761,5.0725,5.0923,5.1323,5.1414,5.1355,5.1343,5.1298,5.1479,5.1853,5.1982,5.1937,5.1855,5.1873,5.1838,5.1775,5.1669,5.1658,5.1819,5.1737,5.1699,5.158,5.1573,5.17,5.1997,5.2073,5.1824,3.9036,3.908,3.9163,3.9283,3.9418,3.9482,3.9658,3.9902,3.9921,4.0416,4.1174,4.1237,4.0941,4.0584,4.1169,4.1518,4.1643,4.2388,4.3076,4.3701,4.391,4.4345,4.4882,4.5028,4.5091,4.512,4.5213,4.5283,4.5329,4.5361,4.5499,4.5669,4.5684,4.5742,4.5809,4.5873,4.5928,4.596,4.5991,4.5989,4.6024,4.6102,4.6173,4.6181,4.6199,4.6212,4.6197,4.6197,4.6206,4.6204,4.6199,4.6233,4.6303,4.6302,4.6292,4.6296,4.6306,4.6289,4.6287,4.6302,4.6297,4.6313,4.6482,4.6651,4.6797,4.739,4.7825,4.7828,4.7286,4.7255,4.7694,4.778,4.8143,4.891,4.8989,4.9313,5.0114,5.0207,5.0406,5.0979,5.0959,5.1007,5.0982,5.0945,5.0897,5.0892,5.0863,5.0838,5.0887,5.0987,5.136,5.1938,5.2141,5.227,5.2255,5.2225,5.255,5.2808,5.2963,5.2867,5.3015,5.2956,5.2897,5.2445,5.2737,5.2765,5.251,5.2638,5.2805,5.2743,5.2711,5.2786,5.2957,5.2976,5.3096,3.9011,3.9021,3.9154,3.9259,3.9254,3.9487,3.997,4.0645,4.0715,4.121,4.1905,4.2007,4.2027,4.2027,4.2252,4.231,4.2452,4.324,4.3682,4.3834,4.4459,4.4857,4.4901,4.4967,4.5032,4.5108,4.5175,4.5283,4.5381,4.5386,4.5504,4.5693,4.568,4.5727,4.5792,4.5859,4.5896,4.5911,4.5958,4.5989,4.5999,4.6066,4.6117,4.6117,4.6158,4.6199,4.6215,4.6197,4.6206,4.6203,4.6198,4.6212,4.6303,4.6296,4.6289,4.63,4.6305,4.6308,4.6347,4.6365,4.6401,4.6491,4.7151,4.7537,4.7587,4.828,4.8735,4.8721,4.8704,4.8748,4.8791,4.8709,4.9017,4.9793,4.988,5.0242,5.0991,5.1005,5.1087,5.1127,5.1092,5.1056,5.0997,5.0945,5.0917,5.0909,5.0901,5.0934,5.1104,5.1576,5.1974,5.2346,5.2796,5.3224,5.3174,5.3149,5.3168,5.3504,5.3689,5.3278,5.3122,5.3056,5.3086,5.3115,5.328,5.3251,5.3015,5.2947,5.3064,5.3104,5.3187,5.3328,5.3868,5.3938,5.4058,3.8914,3.9063,3.9707,4.0,4.0098,4.0656,4.1149,4.1449,4.1488,4.2015,4.2731,4.2852,4.3185,4.3714,4.376,4.3542,4.3269,4.4075,4.4459,4.4497,4.4762,4.4895,4.4901,4.498,4.5026,4.5089,4.517,4.5267,4.5385,4.541,4.5448,4.5573,4.565,4.5726,4.575,4.5822,4.5859,4.5893,4.5911,4.596,4.5994,4.6041,4.6066,4.6092,4.6169,4.6211,4.6199,4.621,4.6201,4.6208,4.6204,4.6199,4.6234,4.6272,4.6306,4.6296,4.6302,4.654,4.7031,4.7128,4.74,4.7925,4.823,4.8419,4.8551,4.9144,4.9638,4.9708,5.0157,5.0373,5.0284,4.989,4.9865,5.0631,5.077,5.08,5.1098,5.1214,5.1196,5.1165,5.113,5.1072,5.1015,5.0994,5.0952,5.0906,5.0909,5.1133,5.1632,5.199,5.2462,5.3476,5.3966,5.4328,5.4925,5.4354,5.4164,5.4626,5.4822,5.4792,5.4679,5.4526,5.4556,5.4424,5.4346,5.4267,5.4217,5.4195,5.4159,5.4204,5.423,5.4199,5.4829,5.4696,5.4874,3.9036,3.9456,4.0077,4.0531,4.09,4.1461,4.1905,4.2205,4.2284,4.2819,4.3548,4.3682,4.4035,4.449,4.4592,4.4363,4.4027,4.4575,4.4877,4.4895,4.4895,4.4895,4.4901,4.4943,4.5022,4.5108,4.5167,4.5297,4.5384,4.5419,4.5429,4.5504,4.5635,4.5683,4.5704,4.5765,4.5828,4.589,4.5903,4.5934,4.5991,4.5994,4.6019,4.6069,4.6128,4.6175,4.6207,4.6202,4.6212,4.6199,4.6214,4.633,4.6583,4.6658,4.6808,4.7072,4.7117,4.7357,4.7908,4.8027,4.8261,4.8846,4.9153,4.9283,4.9338,5.0047,5.0446,5.0651,5.0947,5.1319,5.1192,5.0737,5.0674,5.1191,5.1259,5.121,5.1214,5.1211,5.1214,5.1177,5.1133,5.1076,5.1035,5.1034,5.1009,5.0948,5.0945,5.1289,5.1989,5.2491,5.3007,5.4413,5.4861,5.5219,5.5524,5.5181,5.4914,5.5308,5.5387,5.5598,5.5684,5.5665,5.5643,5.5613,5.5585,5.5539,5.5498,5.5462,5.5444,5.5432,5.5229,5.5,5.5269,5.532,5.5339,3.9387,4.0163,4.0233,4.0848,4.1597,4.1842,4.2239,4.2887,4.3114,4.3608,4.4224,4.4405,4.4407,4.4503,4.4577,4.4561,4.4564,4.4706,4.4821,4.4896,4.4889,4.4895,4.4895,4.4901,4.4992,4.5108,4.5224,4.5328,4.5379,4.539,4.5443,4.5508,4.5622,4.5667,4.5684,4.5762,4.5821,4.5876,4.5896,4.5932,4.5989,4.5997,4.5994,4.6021,4.6127,4.6257,4.6259,4.6226,4.6238,4.6295,4.6291,4.6646,4.7387,4.7512,4.7855,4.8455,4.8693,4.8759,4.8864,4.8924,4.8945,4.9257,4.9702,5.0107,5.0238,5.0815,5.1254,5.1263,5.1327,5.1369,5.1315,5.1216,5.1217,5.1293,5.1284,5.1264,5.1232,5.1211,5.1217,5.1205,5.1136,5.1098,5.1089,5.1082,5.1067,5.1016,5.1024,5.1358,5.226,5.2902,5.3749,5.4703,5.533,5.5767,5.5879,5.5914,5.5808,5.5788,5.5679,5.5724,5.5714,5.5682,5.5682,5.5651,5.5635,5.559,5.5568,5.5533,5.551,5.5498,5.5505,5.5488,5.5451,5.544,5.5403,4.013,4.0958,4.1639,4.2071,4.2443,4.3002,4.3498,4.3782,4.3852,4.4083,4.4364,4.4418,4.4447,4.4501,4.451,4.457,4.4599,4.4652,4.4731,4.4833,4.4889,4.4889,4.4895,4.4895,4.498,4.5103,4.5186,4.5251,4.5333,4.5365,4.5419,4.5457,4.5517,4.5607,4.5679,4.5723,4.5773,4.584,4.5873,4.5903,4.5943,4.5986,4.6008,4.6055,4.659,4.696,4.7011,4.65,4.6508,4.7053,4.7099,4.7483,4.8203,4.8399,4.8529,4.8751,4.8804,4.9124,4.9638,4.9781,5.0038,5.0488,5.0858,5.0972,5.1006,5.1214,5.1401,5.139,5.1399,5.1386,5.1369,5.1314,5.1296,5.1292,5.1297,5.1306,5.1283,5.1234,5.1217,5.1208,5.1193,5.1159,5.1124,5.1102,5.1085,5.1071,5.108,5.1492,5.2756,5.3267,5.4102,5.5316,5.5778,5.6001,5.5983,5.596,5.5943,5.5876,5.5826,5.5751,5.573,5.57,5.57,5.5684,5.5682,5.5665,5.5618,5.5602,5.5579,5.5556,5.5539,5.5529,5.5499,5.5476,5.5477,4.062,4.169,4.2337,4.2823,4.3175,4.3767,4.4023,4.4127,4.4165,4.4252,4.4322,4.4376,4.4437,4.4473,4.4494,4.4528,4.4551,4.4585,4.4646,4.4744,4.4821,4.4864,4.4895,4.4938,4.4985,4.5097,4.517,4.523,4.5283,4.5359,4.5414,4.5424,4.5476,4.5573,4.5673,4.5687,4.5727,4.5807,4.5835,4.5883,4.5983,4.6253,4.6457,4.6621,4.7331,4.7775,4.7804,4.7332,4.7343,4.7835,4.7965,4.8387,4.9164,4.9286,4.9419,4.9701,4.9792,5.0038,5.0511,5.0637,5.0837,5.1288,5.1387,5.1385,5.1401,5.1396,5.1387,5.1401,5.1387,5.1395,5.1385,5.137,5.1333,5.1296,5.1294,5.13,5.1306,5.1254,5.1216,5.1211,5.12,5.1186,5.1162,5.115,5.1121,5.1092,5.1101,5.1708,5.2971,5.3499,5.4521,5.5431,5.5921,5.6025,5.6008,5.6005,5.5993,5.5952,5.588,5.5826,5.5766,5.5737,5.5731,5.57,5.5692,5.5692,5.5651,5.5646,5.5629,5.5607,5.559,5.5598,5.5581,5.5545,5.5535,4.0984,4.2374,4.2474,4.3014,4.3746,4.3889,4.3953,4.4023,4.4127,4.421,4.4237,4.4329,4.4383,4.4404,4.4473,4.4482,4.4522,4.4551,4.4592,4.4652,4.4725,4.4821,4.4895,4.4956,4.5003,4.5072,4.5153,4.5238,4.5286,4.5348,4.5409,4.5415,4.5467,4.554,4.5648,4.5673,4.5726,4.5789,4.5807,4.5851,4.6054,4.6739,4.7239,4.7369,4.8194,4.8663,4.8671,4.8722,4.8747,4.8788,4.8912,4.9418,5.002,5.0155,5.0503,5.1101,5.1329,5.1242,5.1349,5.1258,5.1322,5.1365,5.1387,5.1385,5.1384,5.1399,5.1392,5.1388,5.1394,5.1401,5.1396,5.1386,5.137,5.1314,5.131,5.131,5.131,5.1247,5.1203,5.12,5.1211,5.12,5.1189,5.1183,5.1149,5.113,5.1137,5.1917,5.3053,5.3811,5.4475,5.5231,5.6024,5.6082,5.6061,5.6048,5.6042,5.5979,5.5937,5.589,5.5807,5.5787,5.5761,5.573,5.5695,5.5689,5.5684,5.5673,5.5673,5.5657,5.5671,5.5671,5.5654,5.5613,5.5579,4.2266,4.3173,4.3269,4.3448,4.3691,4.3851,4.3915,4.3937,4.4023,4.4112,4.4191,4.4237,4.4307,4.4409,4.4411,4.444,4.4494,4.4522,4.4551,4.4605,4.4667,4.4789,4.4877,4.4907,4.4955,4.502,4.5103,4.5164,4.5219,4.5302,4.5339,4.5409,4.5424,4.5476,4.5559,4.5648,4.5706,4.5739,4.5792,4.6172,4.6774,4.7084,4.7543,4.823,4.9041,4.9495,4.9623,5.0189,5.0204,4.9746,5.0334,5.0718,5.0901,5.094,5.1075,5.1302,5.1395,5.1388,5.1398,5.1389,5.1395,5.14,5.1385,5.1387,5.1385,5.1384,5.1399,5.1393,5.1385,5.1396,5.1383,5.1394,5.138,5.1317,5.1298,5.1314,5.1295,5.1304,5.1249,5.1206,5.122,5.1205,5.1206,5.1197,5.1186,5.116,5.1284,5.1702,5.2977,5.374,5.4231,5.5423,5.6157,5.6137,5.6117,5.6105,5.6061,5.6008,5.5968,5.5956,5.589,5.5831,5.5771,5.5719,5.5724,5.5705,5.5695,5.5684,5.5689,5.5689,5.5703,5.5687,5.5692,5.5662,5.5629,4.2763,4.3488,4.3531,4.3573,4.3607,4.3716,4.3816,4.3897,4.3945,4.3997,4.4093,4.4176,4.4244,4.4314,4.4361,4.443,4.4447,4.4475,4.4528,4.4565,4.464,4.4764,4.4883,4.4895,4.4925,4.501,4.5074,4.5136,4.5197,4.5275,4.5333,4.5408,4.5419,4.5434,4.5508,4.5614,4.5693,4.5776,4.6071,4.6626,4.7122,4.7916,4.847,4.911,4.9873,5.0393,5.0506,5.0945,5.0965,5.0735,5.1027,5.131,5.1302,5.1301,5.1315,5.1367,5.1386,5.1401,5.1389,5.1402,5.1391,5.1396,5.1402,5.1386,5.1387,5.1386,5.1402,5.1399,5.1394,5.1385,5.1395,5.1385,5.1373,5.1339,5.1336,5.1335,5.1306,5.1302,5.1272,5.1254,5.1244,5.1215,5.121,5.121,5.1214,5.1211,5.1203,5.1904,5.2815,5.3353,5.4019,5.5095,5.6004,5.6083,5.6075,5.6075,5.6094,5.6042,5.6012,5.5981,5.5942,5.5871,5.5821,5.5761,5.5751,5.5716,5.5705,5.5695,5.5689,5.5689,5.5689,5.5689,5.5689,5.5689,5.5662,4.2847,4.3488,4.3488,4.3531,4.3582,4.3617,4.3718,4.3841,4.3889,4.3937,4.4016,4.4138,4.4191,4.4225,4.4314,4.4376,4.4404,4.4447,4.4482,4.4544,4.4639,4.4738,4.4858,4.4889,4.4919,4.4973,4.5043,4.5125,4.5181,4.524,4.5323,4.5369,4.5404,4.5419,4.5466,4.5564,4.567,4.6005,4.6528,4.7155,4.7728,4.877,4.9484,4.9903,5.0497,5.0962,5.1054,5.1186,5.1166,5.126,5.1304,5.13,5.1298,5.1298,5.131,5.1317,5.1358,5.1373,5.14,5.1397,5.1388,5.1391,5.14,5.1385,5.1386,5.1387,5.1386,5.1384,5.1398,5.1393,5.1386,5.1393,5.1383,5.1374,5.1383,5.1382,5.1337,5.1304,5.1294,5.1297,5.1293,5.126,5.1225,5.1211,5.1206,5.1219,5.1269,5.1761,5.2463,5.2976,5.3657,5.4504,5.5303,5.5994,5.6001,5.6044,5.6079,5.607,5.6042,5.6012,5.6002,5.5943,5.5876,5.5836,5.5787,5.5761,5.5716,5.5705,5.5695,5.5689,5.5689,5.5689,5.5689,5.5689,5.5673,4.329,4.3488,4.3488,4.3515,4.354,4.3573,4.3615,4.3693,4.3832,4.3889,4.3937,4.4016,4.4085,4.4191,4.4237,4.4311,4.4394,4.4418,4.4468,4.4572,4.4618,4.4705,4.4802,4.4858,4.4901,4.4937,4.4985,4.5062,4.5125,4.5192,4.5246,4.5323,4.5384,4.5409,4.5443,4.5518,4.5923,4.6523,4.6876,4.7713,4.8759,4.9355,5.002,5.0579,5.0935,5.1069,5.1118,5.1136,5.115,5.1202,5.1266,5.1289,5.13,5.1296,5.1294,5.131,5.1319,5.1336,5.1394,5.1385,5.1394,5.1388,5.1393,5.1398,5.1385,5.1386,5.1387,5.1386,5.1384,5.1399,5.1392,5.1387,5.1397,5.1385,5.1396,5.1386,5.1387,5.1333,5.1317,5.13,5.1294,5.1304,5.1265,5.1282,5.1249,5.1228,5.139,5.1635,5.2089,5.26,5.3221,5.3915,5.4624,5.5294,5.5671,5.581,5.611,5.6118,5.607,5.6046,5.6018,5.5993,5.5943,5.5876,5.5817,5.5792,5.5776,5.5735,5.5719,5.5714,5.5689,5.5689,5.5689,5.5689,5.5689,4.301,4.3437,4.3445,4.3463,4.3496,4.3531,4.3565,4.3615,4.3718,4.381,4.3867,4.3929,4.3992,4.4065,4.4161,4.4252,4.4307,4.4368,4.4433,4.451,4.4565,4.4639,4.4699,4.4796,4.4858,4.492,4.4961,4.5009,4.508,4.5148,4.5213,4.527,4.5343,4.5399,4.5419,4.55,4.5979,4.6778,4.7347,4.8223,4.9346,5.0033,5.0383,5.0894,5.1027,5.1051,5.1089,5.1089,5.1114,5.1156,5.1227,5.1269,5.1306,5.13,5.1296,5.1294,5.1309,5.1319,5.1357,5.1372,5.1385,5.1396,5.1385,5.1393,5.14,5.1383,5.1386,5.1387,5.1386,5.1402,5.1396,5.1391,5.1385,5.1398,5.1389,5.1401,5.1387,5.1372,5.1336,5.1301,5.1296,5.1304,5.1294,5.1308,5.1293,5.1254,5.1269,5.1493,5.1646,5.2138,5.2591,5.3255,5.3946,5.4572,5.5103,5.5558,5.6105,5.6149,5.611,5.609,5.6065,5.6038,5.5993,5.5933,5.589,5.5871,5.5851,5.5801,5.5745,5.5745,5.574,5.5719,5.5689,5.5689,5.5689,4.2529,4.3358,4.3394,4.3429,4.348,4.3497,4.354,4.3573,4.3617,4.3676,4.3761,4.3851,4.3889,4.3929,4.4084,4.4153,4.4237,4.4322,4.439,4.4433,4.451,4.4572,4.4613,4.4718,4.4815,4.4877,4.4943,4.4979,4.5039,4.5108,4.5164,4.5203,4.5283,4.5364,4.5404,4.5654,4.621,4.7108,4.7956,4.8819,4.9674,5.0435,5.0815,5.0945,5.0971,5.1016,5.1048,5.1075,5.1085,5.1118,5.1172,5.1205,5.1266,5.1308,5.1295,5.1296,5.1294,5.1309,5.132,5.136,5.1395,5.1399,5.1397,5.1388,5.1393,5.1399,5.1384,5.1386,5.1387,5.1385,5.14,5.1398,5.1395,5.139,5.1403,5.1394,5.1385,5.1391,5.1357,5.1338,5.1333,5.1326,5.1316,5.1306,5.1292,5.1302,5.1297,5.1345,5.148,5.1641,5.2073,5.2449,5.3102,5.4213,5.4847,5.5184,5.5772,5.6108,5.6087,5.6126,5.6106,5.6065,5.6023,5.6002,5.5966,5.5947,5.5914,5.5851,5.5826,5.5797,5.5771,5.5745,5.5724,5.5689,5.5689,4.2441,4.326,4.3349,4.3412,4.342,4.3471,4.3515,4.3532,4.3592,4.3625,4.3651,4.3761,4.3843,4.3899,4.3913,4.4034,4.4165,4.427,4.4351,4.4376,4.4433,4.4463,4.4578,4.4632,4.4718,4.4802,4.4883,4.4937,4.4998,4.5039,4.5084,4.5175,4.5219,4.5291,4.5569,4.6055,4.6781,4.766,4.8553,4.9442,5.0216,5.0589,5.0821,5.0905,5.0917,5.0952,5.1005,5.1004,5.1035,5.1089,5.1111,5.1169,5.1219,5.1264,5.1306,5.13,5.1296,5.1312,5.1309,5.1348,5.1385,5.1397,5.139,5.1402,5.1388,5.1393,5.1399,5.1385,5.1386,5.1386,5.1385,5.1383,5.1401,5.1398,5.1392,5.1387,5.1383,5.1394,5.1397,5.136,5.1372,5.1366,5.1335,5.1325,5.1316,5.1304,5.1298,5.1306,5.1367,5.1394,5.1502,5.184,5.2176,5.35,5.4724,5.4964,5.5359,5.5899,5.6042,5.6175,5.6153,5.6114,5.6073,5.6051,5.6011,5.598,5.5947,5.59,5.5871,5.5851,5.5821,5.5766,5.5745,5.573,5.5695,4.1705,4.2559,4.3041,4.326,4.3323,4.3402,4.3437,4.3464,4.3523,4.3539,4.3583,4.3651,4.3709,4.3749,4.3865,4.3968,4.4078,4.4214,4.4255,4.43,4.4361,4.4418,4.4517,4.4558,4.4626,4.4718,4.4808,4.4896,4.4962,4.4998,4.5026,4.5097,4.5159,4.523,4.5474,4.6157,4.7065,4.7974,4.8859,4.9735,5.0567,5.0683,5.0761,5.0819,5.0869,5.0921,5.0945,5.0994,5.1004,5.1042,5.1098,5.1114,5.1153,5.12,5.1264,5.1284,5.13,5.1294,5.1296,5.1333,5.1351,5.1385,5.1399,5.1391,5.1401,5.1389,5.1396,5.1384,5.1386,5.1386,5.1386,5.1386,5.1384,5.1402,5.1398,5.1394,5.139,5.1386,5.1394,5.1397,5.1391,5.1383,5.1367,5.134,5.1335,5.1328,5.13,5.1304,5.1308,5.1282,5.1278,5.1511,5.1887,5.2684,5.393,5.441,5.4928,5.5508,5.5912,5.6047,5.6213,5.6156,5.6114,5.6073,5.6055,5.6016,5.5998,5.5951,5.5943,5.5909,5.5885,5.5836,5.5776,5.5751,5.5716,4.089,4.1905,4.2586,4.2978,4.3187,4.3305,4.3367,4.3421,4.3464,4.3489,4.3496,4.3566,4.359,4.3649,4.38,4.3929,4.4008,4.4112,4.4158,4.4229,4.4318,4.4373,4.4426,4.4496,4.4572,4.4632,4.4699,4.4815,4.4896,4.495,4.4973,4.5039,4.5125,4.5181,4.5404,4.6366,4.7165,4.7956,4.8999,4.989,5.0445,5.0664,5.0739,5.0784,5.0827,5.0895,5.0916,5.0941,5.0987,5.1023,5.1042,5.1082,5.1105,5.1147,5.1219,5.1266,5.1304,5.13,5.1294,5.1301,5.132,5.137,5.1389,5.1401,5.1392,5.1384,5.1394,5.1401,5.1385,5.1386,5.1387,5.1386,5.1386,5.1385,5.1402,5.1399,5.1396,5.1393,5.1388,5.1398,5.139,5.1379,5.1366,5.1378,5.1354,5.1362,5.1354,5.1326,5.1312,5.1308,5.132,5.1434,5.1728,5.2159,5.2962,5.3663,5.4338,5.5134,5.5521,5.5773,5.6015,5.6197,5.616,5.6126,5.6073,5.604,5.6023,5.6001,5.5984,5.5952,5.5953,5.59,5.5841,5.5787,5.5766,4.0383,4.1732,4.196,4.2441,4.3041,4.3169,4.3296,4.3394,4.3412,4.3446,4.3497,4.3515,4.3531,4.3624,4.38,4.3899,4.3929,4.3981,4.407,4.4161,4.4222,4.4292,4.4376,4.4404,4.4496,4.4584,4.4631,4.4699,4.4802,4.487,4.4931,4.4998,4.5028,4.508,4.5303,4.6663,4.7635,4.8143,4.9428,5.0344,5.0559,5.0659,5.0706,5.0739,5.0779,5.0838,5.0883,5.0897,5.0933,5.0994,5.1012,5.1035,5.1085,5.1082,5.1144,5.1197,5.1259,5.131,5.1302,5.1308,5.1312,5.1341,5.138,5.1396,5.1387,5.1399,5.139,5.1391,5.1401,5.1385,5.1386,5.1386,5.1387,5.1386,5.1386,5.1384,5.1383,5.1399,5.1395,5.139,5.1402,5.1393,5.1381,5.1396,5.1391,5.14,5.139,5.1361,5.1333,5.1307,5.1301,5.1398,5.1457,5.1832,5.2246,5.2911,5.3752,5.4644,5.5149,5.5536,5.5977,5.6242,5.6222,5.6163,5.6114,5.6058,5.6029,5.6023,5.6001,5.5998,5.5975,5.5943,5.5905,5.5851,5.5807,3.9307,4.0474,4.1406,4.1978,4.2349,4.2905,4.3187,4.3233,4.3269,4.3358,4.3437,4.3446,4.3497,4.3599,4.3699,4.3767,4.3824,4.3913,4.3968,4.4058,4.4138,4.4211,4.4285,4.4354,4.4447,4.4482,4.4558,4.4619,4.4699,4.4783,4.4858,4.4889,4.4955,4.5033,4.5261,4.6835,4.7541,4.8252,4.9359,5.0391,5.0563,5.0624,5.0664,5.0697,5.0749,5.0761,5.0788,5.0883,5.0892,5.0945,5.0975,5.1,5.1062,5.1072,5.1136,5.1138,5.1197,5.1257,5.1306,5.1308,5.1308,5.131,5.1328,5.134,5.1377,5.1392,5.1385,5.139,5.1395,5.14,5.1384,5.1386,5.1386,5.1387,5.1386,5.1386,5.1385,5.1384,5.1401,5.1397,5.1392,5.1385,5.1396,5.139,5.1384,5.1394,5.1386,5.138,5.1348,5.1335,5.131,5.1321,5.1363,5.1464,5.1843,5.2336,5.3159,5.4037,5.4877,5.5325,5.6018,5.6288,5.6243,5.6216,5.617,5.6118,5.6062,5.6025,5.6018,5.6005,5.5996,5.5965,5.5952,5.5957,5.5909,3.8398,3.9163,4.0537,4.1352,4.1741,4.2458,4.2895,4.3095,4.316,4.3251,4.3331,4.3376,4.3472,4.3548,4.3599,4.3676,4.3726,4.3816,4.3873,4.3955,4.4034,4.4127,4.4211,4.4307,4.4358,4.4368,4.4494,4.4537,4.4592,4.466,4.4751,4.4796,4.4902,4.4974,4.5446,4.667,4.782,4.8705,4.9757,5.0407,5.0521,5.0563,5.0609,5.0668,5.0693,5.0687,5.071,5.0779,5.0842,5.092,5.0956,5.0979,5.102,5.1058,5.1079,5.1105,5.1153,5.1194,5.1254,5.1287,5.1286,5.131,5.1314,5.133,5.1375,5.1387,5.1394,5.1385,5.139,5.1396,5.1401,5.1384,5.1386,5.1386,5.1387,5.1386,5.1387,5.1387,5.1387,5.1402,5.1398,5.1394,5.1388,5.1403,5.1395,5.1386,5.14,5.1395,5.1383,5.1349,5.1341,5.1338,5.1323,5.1349,5.1517,5.1994,5.2758,5.3443,5.4285,5.5027,5.5642,5.6124,5.6278,5.6249,5.6219,5.6178,5.6126,5.607,5.604,5.6023,5.601,5.6001,5.5983,5.5993,5.5976,3.7944,3.8078,3.9137,4.0392,4.1687,4.1741,4.2322,4.3058,4.3104,4.3133,4.3233,4.3322,4.3437,4.3506,4.3575,4.359,4.3615,4.3744,4.3818,4.3875,4.3939,4.4034,4.4127,4.4207,4.4267,4.4307,4.4401,4.4437,4.4466,4.4558,4.4679,4.4777,4.4833,4.4895,4.5449,4.6643,4.835,4.931,5.0218,5.0352,5.0457,5.0511,5.0573,5.0618,5.0663,5.0693,5.0696,5.072,5.0775,5.0878,5.0916,5.0937,5.0983,5.102,5.1035,5.1076,5.1105,5.115,5.1189,5.1257,5.1306,5.1306,5.1312,5.1323,5.1368,5.1397,5.1386,5.1395,5.1403,5.1389,5.1396,5.14,5.1384,5.1386,5.1386,5.1387,5.1387,5.1387,5.1387,5.1387,5.1383,5.14,5.1396,5.1391,5.1401,5.1392,5.1388,5.1384,5.1396,5.1365,5.1378,5.1372,5.134,5.133,5.1309,5.1744,5.2195,5.2901,5.3745,5.4466,5.5143,5.5592,5.6278,5.6261,5.6253,5.6219,5.6185,5.6133,5.6078,5.6029,5.6003,5.5995,5.6005,5.5992,5.5971,3.7793,3.7837,3.8275,3.9409,4.0953,4.1469,4.2185,4.2875,4.2966,4.3031,4.3151,4.3305,4.3421,4.3455,4.3515,4.3549,4.3539,4.3634,4.3693,4.3759,4.3841,4.3929,4.4034,4.4138,4.424,4.4252,4.4307,4.4361,4.443,4.4487,4.4551,4.4659,4.4732,4.4802,4.5426,4.6632,4.8396,4.9725,5.0261,5.0308,5.0388,5.044,5.0511,5.0603,5.0613,5.0663,5.0693,5.0687,5.072,5.0779,5.0846,5.0897,5.0941,5.0975,5.102,5.1039,5.1069,5.1108,5.1141,5.1216,5.1257,5.1297,5.131,5.1319,5.1355,5.1368,5.1397,5.1388,5.1395,5.1403,5.1391,5.1395,5.1399,5.1384,5.1386,5.1386,5.1387,5.1387,5.1387,5.1387,5.1387,5.1384,5.1401,5.1398,5.1389,5.1397,5.1395,5.1392,5.1385,5.14,5.1392,5.1386,5.1355,5.1349,5.1346,5.147,5.1629,5.2376,5.3202,5.3983,5.4765,5.5792,5.6338,5.6303,5.6284,5.6253,5.6219,5.6201,5.6149,5.6066,5.6025,5.6003,5.5999,5.601,5.5974,3.7631,3.7685,3.7801,3.8672,4.005,4.0944,4.1767,4.2474,4.2792,4.2975,4.3104,4.3251,4.3332,4.3358,4.3437,4.3481,4.3489,4.3549,4.3573,4.3641,4.3742,4.3832,4.3921,4.4019,4.4115,4.4161,4.4237,4.4292,4.4329,4.4394,4.4454,4.4558,4.4653,4.4725,4.5206,4.6594,4.839,4.9733,5.0207,5.0224,5.0331,5.0376,5.0429,5.0546,5.0577,5.0618,5.0668,5.0664,5.0682,5.0739,5.0779,5.0866,5.0912,5.0956,5.0979,5.102,5.1032,5.1072,5.1108,5.1158,5.1237,5.1287,5.1292,5.1298,5.1317,5.1355,5.1365,5.1399,5.1387,5.1395,5.1385,5.1389,5.1393,5.1399,5.1385,5.1386,5.1386,5.1387,5.1387,5.1387,5.1387,5.1386,5.1384,5.14,5.1395,5.1385,5.1396,5.1394,5.1391,5.1388,5.1385,5.1399,5.1391,5.1386,5.14,5.1466,5.1549,5.181,5.2655,5.3578,5.4461,5.5509,5.6274,5.6338,5.6322,5.6287,5.6249,5.6216,5.6156,5.6086,5.605,5.6012,5.6008,5.5999,5.601,3.7485,3.7595,3.7685,3.8259,3.9193,4.0059,4.0943,4.1819,4.2545,4.2965,4.3086,4.3141,4.3178,4.3224,4.3322,4.3394,4.3447,4.3471,4.3513,4.359,4.3632,4.3724,4.3824,4.3905,4.3987,4.4031,4.4093,4.4165,4.4222,4.4314,4.4394,4.4454,4.4553,4.4849,4.4997,4.6588,4.8308,4.9765,5.0107,5.0194,5.0255,5.0325,5.039,5.047,5.0511,5.0572,5.0623,5.0658,5.0683,5.0706,5.071,5.0775,5.0855,5.0904,5.0933,5.0971,5.0986,5.1032,5.1092,5.1158,5.1207,5.1273,5.1293,5.1294,5.1301,5.1317,5.133,5.1366,5.1397,5.1385,5.1394,5.1384,5.1389,5.1395,5.1401,5.1385,5.1386,5.1387,5.1387,5.1387,5.1387,5.1386,5.1385,5.1402,5.1398,5.1391,5.1401,5.1396,5.1395,5.1393,5.139,5.1388,5.1402,5.14,5.1394,5.1403,5.1468,5.1652,5.2186,5.3188,5.4054,5.4937,5.5604,5.615,5.6355,5.6319,5.6284,5.6249,5.6188,5.6122,5.6058,5.602,5.6012,5.6008,5.5999,3.7391,3.7458,3.7485,3.7729,3.8312,3.9678,4.0732,4.1543,4.2388,4.288,4.2993,4.3049,4.3104,4.3151,4.3214,4.3314,4.3403,4.3402,4.3454,4.3522,4.3565,4.3615,4.3718,4.3802,4.3867,4.3921,4.3984,4.4081,4.4207,4.4255,4.4336,4.4423,4.4599,4.532,4.6225,4.7345,4.8218,4.9694,5.0063,5.0114,5.0182,5.0255,5.0314,5.0396,5.0446,5.05,5.0582,5.0618,5.0663,5.0693,5.0692,5.0715,5.0784,5.0834,5.0892,5.0941,5.0964,5.1025,5.1079,5.1129,5.1158,5.1207,5.1273,5.1293,5.1292,5.1301,5.1317,5.1333,5.1368,5.1375,5.1385,5.1394,5.1401,5.1389,5.1397,5.1401,5.1384,5.1385,5.1387,5.1387,5.1387,5.1387,5.1387,5.1387,5.1402,5.1399,5.1393,5.1402,5.1398,5.1395,5.1392,5.1393,5.139,5.139,5.1386,5.1396,5.1389,5.1517,5.211,5.2976,5.3782,5.4449,5.5288,5.6013,5.6203,5.6352,5.6308,5.624,5.6213,5.6156,5.6098,5.6061,5.602,5.6012,5.6003,3.7279,3.7354,3.7364,3.7429,3.7772,3.9128,4.036,4.1432,4.2366,4.2841,4.289,4.2993,4.303,4.3058,4.3132,4.3196,4.3314,4.3385,4.3402,4.3471,4.354,4.3592,4.3634,4.3694,4.3777,4.3832,4.3889,4.3968,4.4073,4.4169,4.4289,4.4409,4.4545,4.5521,4.6605,4.7404,4.8152,4.947,4.9978,5.0038,5.0114,5.0175,5.0236,5.0314,5.0371,5.0459,5.0505,5.0577,5.0637,5.0663,5.0683,5.0682,5.0734,5.077,5.0846,5.0892,5.0964,5.1011,5.1065,5.1092,5.1126,5.1158,5.1242,5.1278,5.1291,5.1302,5.1303,5.1319,5.1355,5.1368,5.1397,5.1386,5.1393,5.1384,5.1391,5.1396,5.1399,5.1402,5.1387,5.1387,5.1387,5.1387,5.1387,5.1387,5.1386,5.1384,5.1401,5.1393,5.1384,5.1401,5.1397,5.1395,5.1395,5.1393,5.1392,5.1388,5.1402,5.1399,5.1954,5.2605,5.3272,5.3921,5.4898,5.5834,5.6103,5.6307,5.6297,5.6252,5.6236,5.6211,5.616,5.611,5.6042,5.602,5.6008,3.7174,3.7287,3.7297,3.7326,3.7571,3.8622,3.9954,4.1431,4.2383,4.2774,4.2803,4.289,4.291,4.2938,4.3031,4.3114,4.3151,4.3305,4.3376,4.3411,4.349,4.3532,4.3565,4.3617,4.3676,4.3777,4.3835,4.3857,4.3939,4.4115,4.4281,4.4365,4.4404,4.5411,4.6407,4.7265,4.8179,4.9389,4.9905,4.9966,5.0057,5.0133,5.0169,5.0236,5.0314,5.0384,5.0446,5.0505,5.0577,5.0623,5.0658,5.0688,5.0702,5.0696,5.0779,5.0876,5.096,5.099,5.1027,5.1059,5.1092,5.1126,5.1189,5.1232,5.1282,5.1286,5.1306,5.1301,5.1319,5.1357,5.1391,5.1399,5.1386,5.1395,5.1385,5.1389,5.1393,5.1398,5.1383,5.1387,5.1387,5.1387,5.1387,5.1387,5.1387,5.1386,5.1384,5.1401,5.1396,5.1391,5.1387,5.1399,5.1398,5.1396,5.1394,5.1392,5.139,5.1385,5.1441,5.1997,5.2666,5.3488,5.4486,5.5363,5.5983,5.6261,5.6314,5.6299,5.6272,5.6246,5.6216,5.6141,5.607,5.6025,5.6008,3.6999,3.7147,3.7156,3.7204,3.7548,3.8925,4.0248,4.138,4.2217,4.2655,4.2793,4.2804,4.2852,4.2919,4.2938,4.3003,4.3077,4.3169,4.3287,4.3359,4.3411,4.3463,4.3515,4.3531,4.3592,4.3624,4.3682,4.3775,4.3923,4.4081,4.4184,4.4259,4.4332,4.5161,4.5967,4.6796,4.8176,4.9275,4.9735,4.9905,4.9978,5.005,5.012,5.0182,5.023,5.0308,5.0401,5.0435,5.0495,5.0588,5.0613,5.0634,5.0688,5.0702,5.0761,5.0887,5.0932,5.0941,5.1001,5.1067,5.1085,5.1101,5.1164,5.1207,5.124,5.1284,5.1288,5.1304,5.1303,5.1343,5.1379,5.139,5.1399,5.139,5.1398,5.1384,5.1388,5.1393,5.14,5.1385,5.1386,5.1387,5.1387,5.1387,5.1387,5.1387,5.1386,5.1385,5.1402,5.1399,5.1394,5.1388,5.1385,5.1384,5.1398,5.1394,5.1393,5.141,5.1447,5.1657,5.2407,5.3271,5.4172,5.5028,5.5857,5.6232,5.6367,5.6358,5.6315,5.6256,5.6229,5.6171,5.6114,5.6054,5.6012,3.6859,3.6989,3.6972,3.706,3.7487,3.902,4.0127,4.0856,4.1962,4.2594,4.2675,4.2706,4.2783,4.2852,4.2853,4.29,4.3003,4.3077,4.3178,4.3242,4.334,4.3411,4.3464,4.3489,4.3532,4.3548,4.3599,4.3666,4.3824,4.3979,4.4081,4.4214,4.4292,4.483,4.5641,4.6617,4.7741,4.881,4.9514,4.978,4.9905,4.9978,5.0076,5.0145,5.0188,5.0267,5.0342,5.0359,5.0446,5.054,5.0556,5.0613,5.0668,5.0678,5.0725,5.0825,5.0891,5.0924,5.0972,5.1028,5.1074,5.1098,5.1129,5.1173,5.1215,5.1249,5.1289,5.1308,5.1308,5.1309,5.1366,5.14,5.1394,5.1387,5.1392,5.1397,5.1403,5.1388,5.1397,5.1384,5.1386,5.1386,5.1387,5.1387,5.1387,5.1387,5.1387,5.1386,5.1386,5.1384,5.14,5.1395,5.1393,5.1391,5.1386,5.1399,5.1397,5.1396,5.1412,5.172,5.2318,5.2991,5.3813,5.4842,5.5885,5.6186,5.6407,5.6381,5.6355,5.6297,5.6252,5.6197,5.6141,5.6098,5.6046,3.6735,3.6781,3.6809,3.693,3.732,3.8866,3.9683,4.0008,4.1693,4.2483,4.2514,4.2586,4.2676,4.2764,4.2803,4.2842,4.2918,4.2994,4.3068,4.3123,4.326,4.3359,4.3411,4.3464,4.3489,4.3523,4.3575,4.3607,4.3684,4.3841,4.4034,4.4158,4.4207,4.4591,4.5316,4.642,4.7406,4.8125,4.9145,4.9785,4.983,4.9918,5.0024,5.0095,5.0158,5.0231,5.029,5.0356,5.0382,5.0446,5.0489,5.0558,5.0614,5.0673,5.0702,5.0752,5.0829,5.0891,5.0936,5.0995,5.102,5.1058,5.1095,5.1129,5.1178,5.1223,5.1247,5.1293,5.1294,5.1296,5.1335,5.1348,5.1362,5.1377,5.1387,5.1392,5.1398,5.1385,5.1394,5.1401,5.1384,5.1385,5.1387,5.1387,5.1387,5.1387,5.1387,5.1387,5.1387,5.1387,5.1384,5.14,5.1399,5.1398,5.1393,5.1388,5.1384,5.1401,5.1397,5.1452,5.1819,5.2568,5.3434,5.4656,5.5874,5.6204,5.6412,5.6402,5.637,5.6315,5.6272,5.6234,5.6168,5.6126,5.6062,3.6623,3.6725,3.6796,3.6921,3.7292,3.8831,3.9555,3.9797,4.1456,4.2305,4.2465,4.2506,4.2576,4.2657,4.2753,4.2793,4.2833,4.2918,4.3012,4.3077,4.3178,4.3278,4.3358,4.3402,4.3437,4.347,4.3522,4.36,4.3701,4.3824,4.3937,4.4047,4.4119,4.4449,4.4827,4.6023,4.7106,4.7548,4.8862,4.9676,4.9792,4.9864,4.9965,5.0031,5.0095,5.0164,5.0231,5.029,5.0342,5.0407,5.0429,5.0495,5.0593,5.0668,5.0697,5.0701,5.0779,5.0838,5.0888,5.0948,5.0998,5.1018,5.1056,5.1092,5.1138,5.1186,5.1225,5.1273,5.1302,5.1304,5.1303,5.1315,5.1328,5.1365,5.1401,5.1388,5.1393,5.1383,5.1391,5.1395,5.1398,5.1402,5.1385,5.1386,5.1386,5.1387,5.1387,5.1387,5.1387,5.1387,5.1387,5.1385,5.1384,5.1402,5.1398,5.1395,5.1391,5.1385,5.1401,5.1398,5.1394,5.2417,5.3533,5.4738,5.5785,5.6098,5.6327,5.641,5.6378,5.6333,5.6291,5.6255,5.6228,5.6168,5.6098,3.6492,3.6623,3.6697,3.7041,3.7682,3.8826,3.9585,4.0241,4.1421,4.21,4.2297,4.2377,4.2447,4.2538,4.2635,4.2743,4.2774,4.2851,4.2927,4.2993,4.3086,4.3178,4.3251,4.335,4.3402,4.3464,4.3497,4.3575,4.3719,4.3802,4.3873,4.3968,4.4055,4.4221,4.4502,4.5836,4.6866,4.7054,4.8713,4.9513,4.9747,4.9814,4.9912,4.9985,5.0044,5.0114,5.0188,5.0249,5.029,5.0379,5.0424,5.0495,5.0593,5.0663,5.0678,5.0712,5.0734,5.0788,5.0863,5.0936,5.0991,5.1012,5.1051,5.1111,5.1108,5.1158,5.12,5.1252,5.1304,5.131,5.131,5.1307,5.1315,5.1331,5.1372,5.1385,5.1391,5.1398,5.1386,5.1392,5.1395,5.1397,5.1401,5.1385,5.1386,5.1387,5.1387,5.1387,5.1387,5.1387,5.1387,5.1387,5.1387,5.1387,5.1403,5.14,5.1397,5.1393,5.1385,5.14,5.1512,5.2574,5.3671,5.4567,5.5365,5.5952,5.6143,5.6339,5.6394,5.6372,5.6329,5.6275,5.6253,5.6206,5.6141,3.6364,3.6496,3.6623,3.7171,3.8024,3.8786,3.9627,4.056,4.1445,4.1899,4.2079,4.2215,4.2346,4.2435,4.2503,4.2625,4.2724,4.2783,4.286,4.2909,4.2994,4.3095,4.3169,4.326,4.3341,4.3411,4.3471,4.354,4.3634,4.3709,4.3792,4.3881,4.3987,4.4073,4.4649,4.5704,4.6778,4.7301,4.8401,4.9382,4.9634,4.9721,4.9843,4.9932,5.0005,5.0076,5.0158,5.0219,5.0243,5.0314,5.0399,5.0489,5.0572,5.0633,5.0673,5.0702,5.0706,5.0757,5.0825,5.0891,5.0929,5.0983,5.1046,5.1088,5.1105,5.1126,5.1189,5.1232,5.1266,5.1293,5.1294,5.1294,5.1305,5.1301,5.1343,5.1401,5.1389,5.1394,5.1401,5.1388,5.1389,5.1392,5.1397,5.1402,5.1384,5.1385,5.1386,5.1386,5.1387,5.1387,5.1387,5.1387,5.1387,5.1387,5.1387,5.1384,5.1401,5.1398,5.1393,5.1385,5.1631,5.2482,5.325,5.3949,5.4711,5.5554,5.6111,5.6383,5.6404,5.6406,5.6335,5.6282,5.6241,5.6198,5.6184,3.6335,3.6502,3.6541,3.7047,3.7917,3.8751,3.9577,4.044,4.1397,4.1834,4.1909,4.2051,4.2197,4.2328,4.2455,4.2536,4.2596,4.2704,4.2774,4.2832,4.2909,4.3002,4.3077,4.3169,4.3242,4.3358,4.3454,4.354,4.3592,4.3634,4.3734,4.3881,4.3897,4.4085,4.4511,4.5635,4.6828,4.7434,4.8354,4.9434,4.9604,4.9699,4.9785,4.9864,4.9945,5.0031,5.0114,5.0163,5.0224,5.0302,5.0365,5.0438,5.0516,5.0593,5.0658,5.0678,5.0683,5.0734,5.0799,5.0846,5.0905,5.0925,5.0994,5.1041,5.1079,5.1092,5.1141,5.1208,5.1245,5.1271,5.1276,5.1298,5.1312,5.1317,5.134,5.1378,5.1389,5.1392,5.1397,5.1399,5.14,5.1385,5.139,5.1396,5.1399,5.1402,5.1385,5.1386,5.1387,5.1387,5.1387,5.1387,5.1387,5.1387,5.1387,5.1387,5.1384,5.1401,5.1396,5.1388,5.1633,5.2216,5.2945,5.3739,5.4546,5.5411,5.5887,5.6427,5.6404,5.64,5.6332,5.6285,5.6248,5.6209,5.6172]}]]